[[{"header":{"parameterUnit":"m.s-1","parameterCategory":1,"la1":31.0,"la2":29.5877,"lo1":-88.7671,"lo2":-86.6584,"dy":0.0162,"dx":0.0185,"nx":115,"ny":88,"refTime":"2023-07-28T06:00:00:Z","depth":0,"parameterNumber":2,"parameterNumberName":"U-component_of_WINDS"},"data":[0.0,0.0,0.0,0.0,0.0,0.0,0.0,0.0,0.0,0.0,0.0,0.0,0.0,0.0,0.0,0.0,0.0,0.0,0.0,0.0,0.0,0.0,0.0,0.0,0.0,0.0,0.0,0.0,0.0,0.0,0.0,0.0,0.0,0.0,0.0,0.0,0.0,0.0,0.0,0.0,0.0,0.0,0.0,0.0,0.0,0.0,0.0,0.0,0.0,0.0,0.0,0.0,0.0,0.0,0.0,0.0,0.0,0.0,0.0,0.0,0.0,0.0,0.0,0.0,0.0,0.0,0.0,0.0,0.0,0.0,0.0,0.0,0.0,0.0,0.0,0.0,0.0,0.0,0.0,0.0,0.0,0.0,0.0,0.0,0.0,0.0,0.0,0.0,0.0,0.0,0.0,0.0,0.0,0.0,0.0,0.0,0.0,0.0,0.0,0.0,0.0,0.0,0.0,0.0,0.0,0.0,0.0,0.0,0.0,0.0,0.0,0.0,0.0,0.0,0.0,0.0,0.0,0.0,0.0,0.0,0.0,0.0,0.0,0.0,0.0,0.0,0.0,0.0,0.0,0.0,0.0,0.0,0.0,0.0,0.0,0.0,0.0,0.0,0.0,0.0,0.0,0.0,0.0,0.0,0.0,0.0,0.0,0.0,0.0,0.0,0.0,0.0,0.0,0.0,0.0,0.0,0.0,0.0,0.0,0.0,0.0,0.0,0.0,0.0,0.0,0.0,0.0,0.0,0.0,0.0,0.0,0.0,0.0,0.0,0.0,0.0,0.0,0.0,0.0,0.0,0.0,0.0,0.0,0.0,0.0,0.0,0.0,0.0,0.0,0.0,0.0,0.0,0.0,0.0,0.0,0.0,0.0,0.0,0.0,0.0,0.0,0.0,0.0,0.0,0.0,0.0,0.0,0.0,0.0,0.0,0.0,0.0,0.0,0.0,0.0,0.0,0.0,0.0,0.0,0.0,0.0,0.0,0.0,0.0,0.0,0.0,0.0,0.0,0.0,0.0,0.0,0.0,0.0,0.0,0.0,0.0,0.0,0.0,0.0,0.0,0.0,0.0,0.0,0.0,0.0,0.0,0.0,0.0,0.0,0.0,0.0,0.0,0.0,0.0,0.0,0.0,0.0,0.0,0.0,0.0,0.0,0.0,0.0,0.0,0.0,0.0,0.0,0.0,0.0,0.0,0.0,0.0,0.0,0.0,0.0,0.0,0.0,0.0,0.0,0.0,0.0,0.0,0.0,0.0,0.0,0.0,0.0,0.0,0.0,0.0,0.0,0.0,0.0,0.0,0.0,0.0,0.0,0.0,0.0,0.0,0.0,0.0,0.0,0.0,0.0,0.0,0.0,0.0,0.0,0.0,0.0,0.0,0.0,0.0,0.0,0.0,0.0,0.0,0.0,0.0,0.0,0.0,0.0,0.0,0.0,0.0,0.0,0.0,0.0,0.0,0.0,0.0,0.0,0.0,0.0,0.0,0.0,0.0,0.0,0.0,0.0,0.0,0.0,0.0,0.0,0.0,0.0,0.0,0.0,0.0,0.0,0.0,0.0,0.0,0.0,0.0,0.0,0.0,0.0,0.0,0.0,0.0,0.0,0.0,0.0,0.0,0.0,0.0,0.0,0.0,0.0,0.0,0.0,0.0,0.0,0.0,0.0,0.0,0.0,0.0,0.0,0.0,0.0,0.0,0.0,0.0,0.0,0.0,0.0,0.0,0.0,0.0,0.0,0.0,0.0,0.0,0.0,0.0,0.0,0.0,0.0,0.0,0.0,0.0,0.0,0.0,0.0,0.0,0.0,0.0,0.0,0.0,0.0,0.0,0.0,0.0,0.0,0.0,0.0,0.0,0.0,0.0,0.0,0.0,0.0,0.0,0.0,0.0,0.0,0.0,0.0,0.0,0.0,0.0,0.0,0.0,0.0,0.0,0.0,0.0,0.0,0.0,0.0,0.0,0.0,0.0,0.0,0.0,0.0,0.0,0.0,0.0,0.0,0.0,0.0,0.0,0.0,0.0,0.0,0.0,0.0,0.0,0.0,0.0,0.0,0.0,0.0,0.0,0.0,0.0,0.0,0.0,0.0,0.0,0.0,0.0,0.0,0.0,0.0,0.0,0.0,0.0,0.0,0.0,0.0,0.0,0.0,0.0,0.0,0.0,0.0,0.0,0.0,0.0,0.0,0.0,0.0,0.0,0.0,0.0,0.0,0.0,0.0,0.0,0.0,0.0,0.0,0.0,0.0,0.0,0.0,0.0,0.0,0.0,0.0,0.0,0.0,0.0,0.0,0.0,0.0,0.0,0.0,0.0,0.0,0.0,0.0,0.0,0.0,0.0,0.0,0.0,0.0,0.0,0.0,0.0,0.0,0.0,0.0,0.0,0.0,0.0,0.0,0.0,0.0,0.0,0.0,0.0,0.0,0.0,0.0,0.0,0.0,0.0,0.0,0.0,0.0,0.0,0.0,0.0,0.0,0.0,0.0,0.0,0.0,0.0,0.0,0.0,0.0,0.0,0.0,0.0,0.0,0.0,0.0,0.0,0.0,0.0,0.0,0.0,0.0,0.0,0.0,0.0,0.0,0.0,0.0,0.0,0.0,0.0,0.0,0.0,0.0,0.0,0.0,0.0,0.0,0.0,0.0,0.0,0.0,0.0,0.0,0.0,0.0,0.0,0.0,0.0,0.0,0.0,0.0,0.0,0.0,0.0,0.0,0.0,0.0,0.0,0.0,0.0,0.0,0.0,0.0,0.0,0.0,0.0,0.0,0.0,0.0,0.0,0.0,0.0,0.0,0.0,0.0,0.0,0.0,0.0,0.0,0.0,0.0,0.0,0.0,0.0,0.0,0.0,0.0,0.0,0.0,0.0,0.0,0.0,0.0,0.0,0.0,0.0,0.0,0.0,0.0,0.0,0.0,0.0,0.0,0.0,0.0,0.0,0.0,0.0,0.0,0.0,0.0,0.0,0.0,0.0,0.0,0.0,0.0,0.0,0.0,0.0,0.0,0.0,0.0,0.0,0.0,0.0,0.0,0.0,0.0,0.0,0.0,0.0,0.0,0.0,0.0,0.0,0.0,0.0,0.0,0.0,0.0,0.0,0.0,0.0,0.0,0.0,0.0,0.0,0.0,0.0,0.0,0.0,0.0,0.0,0.0,0.0,0.0,0.0,0.0,0.0,0.0,0.0,0.0,0.0,0.0,0.0,0.0,0.0,0.0,0.0,0.0,0.0,0.0,0.0,0.0,0.0,0.0,0.0,0.0,0.0,0.0,0.0,0.0,0.0,0.0,0.0,0.0,0.0,0.0,0.0,0.0,0.0,0.0,0.0,0.0,0.0,0.0,0.0,0.0,0.0,0.0,0.0,0.0,0.0,0.0,0.0,0.0,0.0,0.0,0.0,0.0,0.0,0.0,0.0,0.0,0.0,0.0,0.0,0.0,0.0,0.0,0.0,0.0,0.0,0.0,0.0,0.0,0.0,0.0,0.0,0.0,0.0,0.0,0.0,0.0,0.0,0.0,0.0,0.0,0.0,0.0,0.0,0.0,0.0,0.0,0.0,0.0,0.0,0.0,0.0,0.0,0.0,0.0,0.0,0.0,0.0,0.0,0.0,0.0,0.0,0.0,0.0,0.0,0.0,0.0,0.0,0.0,0.0,0.0,0.0,0.0,0.0,0.0,0.0,0.0,0.0,0.0,0.0,0.0,0.0,0.0,0.0,0.0,0.0,0.0,0.0,0.0,0.0,0.0,0.0,0.0,0.0,0.0,0.0,0.0,0.0,0.0,0.0,0.0,0.0,0.0,0.0,0.0,0.0,0.0,0.0,0.0,0.0,0.0,0.0,0.0,0.0,0.0,0.0,0.0,0.0,0.0,0.0,0.0,0.0,0.0,0.0,0.0,0.0,0.0,0.0,0.0,0.0,0.0,0.0,0.0,0.0,0.0,0.0,0.0,0.0,0.0,0.0,0.0,0.0,0.0,0.0,0.0,0.0,0.0,0.0,0.0,0.0,0.0,0.0,0.0,0.0,0.0,0.0,0.0,0.0,0.0,0.0,0.0,0.0,0.0,0.0,0.0,0.0,0.0,0.0,0.0,0.0,0.0,0.0,0.0,0.0,0.0,0.0,0.0,0.0,0.0,0.0,0.0,0.0,0.0,0.0,0.0,0.0,0.0,0.0,0.0,0.0,0.0,0.0,0.0,0.0,0.0,0.0,0.0,0.0,0.0,0.0,0.0,0.0,0.0,0.0,2.7224,0.0,0.0,0.0,2.6045,0.0,0.0,0.0,0.0,0.0,0.0,0.0,0.0,0.0,0.0,0.0,0.0,0.0,0.0,0.0,0.0,0.0,0.0,0.0,0.0,0.0,0.0,0.0,0.0,0.0,0.0,0.0,0.0,0.0,0.0,0.0,0.0,0.0,0.0,0.0,0.0,0.0,0.0,0.0,0.0,0.0,0.0,0.0,0.0,0.0,0.0,0.0,0.0,0.0,0.0,0.0,0.0,0.0,0.0,0.0,0.0,0.0,0.0,0.0,0.0,0.0,0.0,0.0,0.0,0.0,0.0,0.0,0.0,0.0,0.0,0.0,0.0,0.0,0.0,0.0,0.0,0.0,0.0,0.0,0.0,0.0,0.0,0.0,0.0,0.0,0.0,0.0,0.0,0.0,0.0,0.0,0.0,0.0,0.0,0.0,0.0,0.0,0.0,0.0,0.0,0.0,0.0,0.0,0.0,0.0,0.0,0.0,0.0,0.0,0.0,2.6477,2.546,2.6696,2.6654,2.5107,0.0,0.0,0.0,0.0,0.0,0.0,0.0,0.0,0.0,0.0,0.0,0.0,0.0,0.0,0.0,0.0,0.0,0.0,0.0,0.0,0.0,0.0,0.0,0.0,0.0,0.0,0.0,0.0,0.0,0.0,0.0,0.0,0.0,0.0,0.0,0.0,0.0,0.0,0.0,0.0,0.0,0.0,0.0,0.0,0.0,0.0,0.0,0.0,0.0,0.0,0.0,0.0,0.0,0.0,0.0,0.0,0.0,0.0,0.0,0.0,0.0,0.0,0.0,0.0,0.0,0.0,0.0,0.0,0.0,0.0,0.0,0.0,0.0,0.0,0.0,0.0,0.0,0.0,0.0,0.0,0.0,0.0,0.0,0.0,0.0,0.0,0.0,0.0,0.0,0.0,0.0,0.0,0.0,0.0,0.0,0.0,0.0,0.0,0.0,0.0,0.0,0.0,0.0,0.0,0.0,0.0,0.0,0.0,0.0,0.0,0.0,0.0,2.5675,2.5623,2.4392,0.0,0.0,0.0,0.0,0.0,0.0,0.0,0.0,0.0,0.0,0.0,0.0,0.0,0.0,0.0,0.0,0.0,0.0,0.0,0.0,0.0,0.0,0.0,0.0,0.0,0.0,0.0,0.0,0.0,0.0,0.0,0.0,0.0,0.0,0.0,0.0,0.0,0.0,0.0,0.0,0.0,0.0,0.0,0.0,0.0,0.0,0.0,0.0,0.0,0.0,0.0,0.0,0.0,0.0,0.0,0.0,0.0,0.0,0.0,0.0,0.0,0.0,0.0,0.0,0.0,0.0,0.0,0.0,0.0,0.0,0.0,0.0,0.0,0.0,0.0,0.0,0.0,0.0,0.0,0.0,0.0,0.0,0.0,0.0,0.0,0.0,0.0,0.0,0.0,0.0,0.0,0.0,0.0,0.0,0.0,0.0,0.0,0.0,0.0,0.0,0.0,0.0,0.0,0.0,0.0,0.0,0.0,0.0,0.0,0.0,2.4326,2.4785,2.4702,0.0,2.4192,0.0,0.0,0.0,0.0,0.0,0.0,0.0,0.0,0.0,0.0,0.0,0.0,0.0,0.0,0.0,0.0,0.0,0.0,0.0,0.0,0.0,0.0,0.0,0.0,0.0,0.0,0.0,0.0,0.0,0.0,0.0,0.0,0.0,0.0,0.0,0.0,0.0,0.0,0.0,0.0,0.0,0.0,0.0,0.0,0.0,0.0,0.0,0.0,0.0,0.0,0.0,0.0,0.0,0.0,0.0,0.0,0.0,0.0,0.0,0.0,0.0,0.0,0.0,0.0,0.0,0.0,0.0,0.0,0.0,0.0,0.0,0.0,0.0,0.0,0.0,0.0,0.0,0.0,0.0,0.0,0.0,0.0,0.0,0.0,0.0,0.0,0.0,0.0,0.0,0.0,0.0,0.0,0.0,0.0,0.0,0.0,0.0,0.0,0.0,0.0,0.0,0.0,0.0,0.0,0.0,0.0,0.0,0.0,0.0,0.0,2.36,2.3749,2.3638,2.3212,0.0,0.0,0.0,0.0,0.0,0.0,0.0,0.0,0.0,0.0,0.0,0.0,0.0,0.0,0.0,0.0,0.0,0.0,0.0,0.0,0.0,0.0,0.0,0.0,0.0,0.0,0.0,0.0,0.0,0.0,0.0,0.0,0.0,0.0,0.0,0.0,0.0,0.0,0.0,0.0,0.0,0.0,0.0,0.0,0.0,0.0,0.0,0.0,0.0,0.0,0.0,0.0,0.0,0.0,0.0,0.0,0.0,0.0,0.0,0.0,0.0,0.0,0.0,0.0,0.0,0.0,0.0,0.0,0.0,0.0,0.0,0.0,0.0,0.0,0.0,0.0,0.0,0.0,0.0,0.0,0.0,0.0,0.0,0.0,0.0,0.0,0.0,0.0,0.0,0.0,0.0,0.0,0.0,0.0,0.0,0.0,0.0,0.0,0.0,0.0,0.0,0.0,0.0,0.0,0.0,0.0,0.0,0.0,0.0,0.0,2.2855,2.2606,2.2305,2.216,2.1727,2.0967,0.0,0.0,0.0,0.0,0.0,0.0,0.0,0.0,0.0,0.0,0.0,0.0,0.0,0.0,0.0,0.0,0.0,0.0,0.0,0.0,0.0,0.0,0.0,0.0,0.0,0.0,0.0,0.0,0.0,0.0,0.0,0.0,0.0,0.0,0.0,0.0,0.0,0.0,0.0,0.0,0.0,0.0,0.0,0.0,0.0,0.0,0.0,0.0,0.0,0.0,0.0,0.0,0.0,0.0,0.0,0.0,0.0,0.0,0.0,0.0,0.0,0.0,0.0,0.0,0.0,0.0,0.0,0.0,0.0,0.0,0.0,0.0,0.0,0.0,0.0,0.0,0.0,0.0,0.0,0.0,0.0,0.0,0.0,0.0,0.0,0.0,0.0,0.0,0.0,0.0,0.0,0.0,0.0,0.0,0.0,0.0,0.0,0.0,0.0,0.0,0.0,0.0,0.0,0.0,0.0,0.0,0.0,0.0,2.3204,2.1993,2.1049,2.0511,2.0051,2.0078,0.0,0.0,0.0,0.0,0.0,0.0,0.0,0.0,0.0,0.0,0.0,0.0,0.0,0.0,0.0,0.0,0.0,0.0,0.0,0.0,0.0,0.0,0.0,0.0,0.0,0.0,0.0,0.0,0.0,0.0,0.0,0.0,0.0,0.0,0.0,0.0,0.0,0.0,0.0,0.0,0.0,0.0,0.0,0.0,0.0,0.0,0.0,0.0,0.0,0.0,0.0,0.0,0.0,0.0,0.0,0.0,0.0,0.0,0.0,0.0,0.0,0.0,0.0,0.0,0.0,0.0,0.0,0.0,0.0,0.0,0.0,0.0,0.0,0.0,0.0,0.0,0.0,0.0,0.0,0.0,0.0,0.0,0.0,0.0,0.0,0.0,0.0,0.0,0.0,0.0,0.0,0.0,0.0,0.0,0.0,0.0,0.0,0.0,0.0,0.0,0.0,0.0,0.0,0.0,0.0,0.0,0.0,0.0,0.0,2.2196,2.1166,1.9933,1.8599,1.9181,1.9123,0.0,0.0,0.0,0.0,0.0,0.0,0.0,0.0,0.0,0.0,0.0,0.0,0.0,0.0,0.0,0.0,0.0,0.0,0.0,0.0,0.0,0.0,0.0,0.0,0.0,0.0,0.0,0.0,0.0,0.0,0.0,0.0,0.0,0.0,0.0,0.0,0.0,0.0,0.0,0.0,0.0,0.0,0.0,0.0,0.0,0.0,0.0,0.0,0.0,0.0,0.0,0.0,0.0,0.0,0.0,0.0,0.0,0.0,0.0,0.0,0.0,0.0,0.0,0.0,0.0,0.0,0.0,0.0,0.0,0.0,0.0,0.0,0.0,0.0,0.0,0.0,0.0,0.0,0.0,0.0,0.0,0.0,0.0,0.0,0.0,0.0,0.0,0.0,0.0,0.0,0.0,0.0,0.0,0.0,0.0,0.0,0.0,0.0,0.0,0.0,0.0,0.0,0.0,0.0,0.0,0.0,0.0,0.0,0.0,1.9955,0.0,1.8002,1.6554,1.7284,1.7241,0.0,0.0,0.0,0.0,0.0,0.0,0.0,0.0,0.0,0.0,0.0,0.0,0.0,0.0,0.0,0.0,0.0,0.0,0.0,0.0,0.0,0.0,0.0,0.0,0.0,0.0,0.0,0.0,0.0,0.0,0.0,0.0,0.0,0.0,0.0,0.0,0.0,0.0,0.0,0.0,0.0,0.0,0.0,0.0,0.0,0.0,0.0,0.0,0.0,0.0,0.0,0.0,0.0,0.0,0.0,0.0,0.0,0.0,0.0,0.0,0.0,0.0,0.0,0.0,0.0,0.0,0.0,0.0,0.0,0.0,0.0,0.0,0.0,0.0,0.0,0.0,0.0,0.0,0.0,0.0,0.0,0.0,0.0,0.0,0.0,0.0,0.0,0.0,0.0,0.0,0.0,0.0,0.0,0.0,0.0,0.0,0.0,0.0,0.0,0.0,0.0,0.0,0.0,0.0,0.0,0.0,0.0,0.0,1.9108,1.6562,1.5733,1.4976,1.4227,1.4118,1.4302,0.0,0.0,0.0,0.0,0.0,0.0,0.0,0.0,0.0,0.0,0.0,0.0,0.0,0.0,0.0,0.0,0.0,0.0,0.0,0.0,0.0,0.0,0.0,0.0,0.0,0.0,0.0,0.0,0.0,0.0,0.0,0.0,0.0,0.0,0.0,0.0,0.0,0.0,0.0,0.0,0.0,0.0,0.0,0.0,0.0,0.0,0.0,0.0,0.0,0.0,0.0,0.0,0.0,0.0,0.0,0.0,0.0,0.0,0.0,0.0,0.0,0.0,0.0,0.0,0.0,0.0,0.0,0.0,0.0,0.0,0.0,0.0,0.0,0.0,0.0,0.0,0.0,0.0,0.0,0.0,0.0,0.0,0.0,0.0,0.0,0.0,0.0,0.0,0.0,0.0,0.0,0.0,0.0,0.0,0.0,0.0,0.0,0.0,0.0,0.0,0.0,0.0,0.0,0.0,0.0,0.0,0.0,0.0,0.0,1.5875,1.4476,1.3149,1.2038,1.2244,1.2285,0.0,0.0,0.0,0.0,0.0,0.0,0.0,0.0,0.0,0.0,0.0,0.0,0.0,0.0,0.0,0.0,0.0,0.0,0.0,0.0,0.0,0.0,0.0,0.0,0.0,0.0,0.0,0.0,0.0,0.0,0.0,0.0,0.0,0.0,0.0,0.0,0.0,0.0,0.0,0.0,0.0,0.0,0.0,0.0,0.0,0.0,0.0,0.0,0.0,0.0,0.0,0.0,0.0,0.0,0.0,0.0,0.0,0.0,0.0,0.0,0.0,0.0,0.0,0.0,0.0,0.0,0.0,0.0,0.0,0.0,0.0,0.0,0.0,0.0,0.0,0.0,0.0,0.0,0.0,0.0,0.0,0.0,0.0,0.0,0.0,0.0,0.0,0.0,0.0,0.0,0.0,0.0,0.0,0.0,0.0,0.0,0.0,0.0,0.0,0.0,0.0,0.0,0.0,0.0,0.0,0.0,0.0,0.0,0.0,1.2136,1.0962,1.0151,0.9683,0.9443,0.9616,1.0398,0.0,0.0,0.0,0.0,0.0,0.0,0.0,0.0,0.0,0.0,0.0,0.0,0.0,0.0,0.0,0.0,0.0,0.0,0.0,0.0,0.0,0.0,0.0,0.0,0.0,0.0,0.0,0.0,0.0,0.0,0.0,0.0,0.0,0.0,0.0,0.0,0.0,0.0,0.0,0.0,0.0,0.0,0.0,0.0,0.0,0.0,0.0,0.0,0.0,0.0,0.0,0.0,0.0,0.0,0.0,0.0,0.0,0.0,0.0,0.0,0.0,0.0,0.0,0.0,0.0,0.0,0.0,0.0,0.0,0.0,0.0,0.0,0.0,0.0,0.0,0.0,0.0,0.0,0.0,0.0,0.0,0.0,0.0,0.0,0.0,0.0,0.0,0.0,0.0,0.0,0.0,0.0,0.0,0.0,0.0,0.0,0.0,0.0,0.0,0.0,0.0,0.0,0.0,0.0,0.0,0.0,0.0,0.0,0.6078,0.5585,0.599,0.7194,0.5874,0.6569,0.0,0.0,0.0,0.0,0.0,0.0,0.0,0.0,0.0,0.0,0.0,0.0,0.0,0.0,0.0,0.0,0.0,0.0,0.0,0.0,0.0,0.0,0.0,0.0,0.0,0.0,0.0,0.0,0.0,0.0,0.0,0.0,0.0,0.0,0.0,0.0,0.0,0.0,0.0,0.0,0.0,0.0,0.0,0.0,0.0,0.0,0.0,0.0,0.0,0.0,0.0,0.0,0.0,0.0,0.0,0.0,0.0,0.0,0.0,0.0,0.0,0.0,0.0,0.0,0.0,0.0,0.0,0.0,0.0,0.0,0.0,0.0,0.0,0.0,0.0,0.0,0.0,0.0,0.0,0.0,0.0,0.0,0.0,0.0,0.0,0.0,0.0,0.0,0.0,0.0,0.0,0.0,0.0,0.0,0.0,0.0,0.0,0.0,0.0,0.0,0.0,0.0,0.0,0.0,0.0,0.0,0.0,0.0,0.0,0.2721,0.0303,0.0771,0.4183,0.3769,0.4244,0.0,0.0,0.0,0.0,0.0,0.0,0.0,0.0,0.0,0.0,0.0,0.0,0.0,0.0,0.0,0.0,0.0,0.0,0.0,0.0,0.0,0.0,0.0,0.0,0.0,0.0,0.0,0.0,0.0,0.0,0.0,0.0,0.0,0.0,0.0,0.0,0.0,0.0,0.0,0.0,0.0,0.0,0.0,0.0,0.0,0.0,0.0,0.0,0.0,0.0,0.0,0.0,0.0,0.0,0.0,0.0,0.0,0.0,0.0,0.0,0.0,0.0,0.0,0.0,0.0,0.0,0.0,0.0,0.0,0.0,0.0,0.0,0.0,0.0,0.0,0.0,0.0,0.0,0.0,0.0,0.0,0.0,0.0,0.0,0.0,0.0,0.0,0.0,0.0,0.0,0.0,0.0,0.0,0.0,0.0,0.0,0.0,0.0,0.0,0.0,0.0,0.0,0.0,0.0,0.0,0.0,0.0,0.0,0.145,-0.1124,-0.4277,-0.4394,-0.1309,-0.0372,0.0873,0.0,0.0,0.0,0.0,0.0,0.0,0.0,0.0,0.0,0.0,0.0,0.0,0.0,0.0,0.0,0.0,0.0,0.0,0.0,0.0,0.0,0.0,0.0,0.0,0.0,0.0,0.0,0.0,0.0,0.0,0.0,0.0,0.0,0.0,0.0,0.0,0.0,0.0,0.0,0.0,0.0,0.0,0.0,0.0,0.0,0.0,0.0,0.0,0.0,0.0,0.0,0.0,0.0,0.0,0.0,0.0,0.0,0.0,0.0,0.0,0.0,0.0,0.0,0.0,0.0,0.0,0.0,0.0,0.0,0.0,0.0,0.0,0.0,0.0,0.0,0.0,0.0,0.0,0.0,0.0,0.0,0.0,0.0,0.0,0.0,0.0,0.0,0.0,0.0,0.0,0.0,0.0,0.0,0.0,0.0,0.0,0.0,0.0,0.0,0.0,0.0,0.0,0.0,0.0,0.0,0.0,0.0,0.0,-0.2759,-0.5149,-0.7929,-0.8874,-0.7744,-0.5225,-0.2806,0.0,0.0,0.0,0.0,0.0,0.0,0.0,0.0,0.0,0.0,0.0,0.0,0.0,0.0,0.0,0.0,0.0,0.0,0.0,0.0,0.0,0.0,0.0,0.0,0.0,0.0,0.0,0.0,0.0,0.0,0.0,0.0,0.0,0.0,0.0,0.0,0.0,0.0,0.0,0.0,0.0,0.0,0.0,0.0,0.0,0.0,0.0,0.0,0.0,0.0,0.0,0.0,0.0,0.0,0.0,0.0,0.0,0.0,0.0,0.0,0.0,0.0,0.0,0.0,0.0,0.0,0.0,0.0,0.0,0.0,0.0,0.0,0.0,0.0,0.0,0.0,0.0,0.0,0.0,0.0,0.0,0.0,0.0,0.0,0.0,0.0,0.0,0.0,0.0,0.0,0.0,0.0,0.0,0.0,0.0,0.0,0.0,0.0,0.0,0.0,0.0,0.0,0.0,0.0,0.0,0.0,0.0,0.0,-0.523,-0.8988,-0.9658,-0.9798,-0.9372,-0.6962,-0.458,0.0,0.0,0.0,0.0,0.0,0.0,0.0,0.0,0.0,0.0,0.0,0.0,0.0,0.0,0.0,0.0,0.0,0.0,0.0,0.0,0.0,0.0,0.0,0.0,0.0,0.0,0.0,0.0,0.0,0.0,0.0,0.0,0.0,0.0,0.0,0.0,0.0,0.0,0.0,0.0,0.0,0.0,0.0,0.0,0.0,0.0,0.0,0.0,0.9956,0.0,0.0,0.0,0.0,0.0,0.0,0.0,0.0,0.0,0.0,0.0,0.0,0.0,0.0,0.0,0.0,0.0,0.0,0.0,0.0,0.0,0.0,0.0,0.0,0.0,0.0,0.0,0.0,0.0,0.0,0.0,0.0,0.0,0.0,0.0,0.0,0.0,0.0,0.0,0.0,0.0,0.0,0.0,0.0,0.0,0.0,0.0,0.0,0.0,0.0,0.0,0.0,0.0,0.0,0.0,0.0,0.0,0.0,0.0,-0.9368,-1.1304,-1.1957,-1.2018,-1.152,-0.9283,-0.6935,0.0,0.0,0.0,0.0,0.0,0.0,0.0,0.0,0.0,0.0,0.0,0.0,0.0,0.0,0.0,0.0,0.0,0.0,0.0,0.0,0.0,0.0,0.0,0.0,0.0,0.0,0.0,0.0,0.0,0.0,0.0,0.0,0.0,0.0,0.0,0.0,0.0,0.0,0.0,0.0,0.0,0.0,0.0,0.0,0.0,0.0,0.0,0.0,0.0,0.0,0.0,0.0,0.0,0.0,0.0,0.0,0.0,0.0,0.0,0.0,0.0,0.0,0.0,0.0,0.0,0.0,0.0,0.0,0.0,0.0,0.0,0.0,0.0,0.0,0.0,0.0,0.0,0.0,0.0,0.0,0.0,0.0,0.0,0.0,0.0,0.0,0.0,0.0,0.0,0.0,0.0,0.0,0.0,0.0,0.0,0.0,0.0,0.0,0.0,0.0,0.0,0.0,0.0,0.0,0.0,0.0,0.0,-1.0196,-1.2932,-1.2694,-1.3924,-1.4227,-1.3411,-1.1569,-0.928,-0.6516,0.0,0.0,0.0,0.0,0.0,0.0,0.0,0.0,0.0,0.0,0.0,0.0,0.0,0.0,0.0,0.0,0.0,0.0,0.0,0.0,0.0,0.0,0.0,0.0,0.0,0.0,0.0,0.0,0.0,0.0,0.0,0.0,0.0,0.0,0.0,0.0,0.0,0.0,1.7578,1.5504,0.0,0.0,0.0,0.0,0.0,0.0,0.0,0.0,0.4651,0.0,0.0,0.0,0.0,0.0,0.0,0.0,0.0,0.0,0.0,0.0,0.0,0.0,0.0,0.0,0.0,0.0,0.0,0.0,0.0,0.0,0.0,0.0,0.0,0.0,0.0,0.0,0.0,0.0,0.0,0.0,0.0,0.0,0.0,0.0,0.0,0.0,0.0,0.0,0.0,0.0,0.0,0.0,0.0,0.0,0.0,0.0,0.0,0.0,0.0,0.0,0.0,0.0,0.0,0.0,0.0,-0.8462,-1.0639,-1.2219,-1.323,-1.4148,-1.4227,-1.3411,-1.2638,-1.0912,-0.8226,0.0,0.0,0.0,0.0,0.0,0.0,0.0,0.0,0.0,0.0,0.0,0.0,0.0,0.0,0.0,0.0,0.0,0.0,0.0,0.0,0.0,0.0,0.0,0.0,0.0,0.0,0.0,0.0,0.0,0.0,0.0,0.0,0.0,0.0,0.0,0.0,0.0,0.0,0.0,1.3721,1.2401,0.0,0.0,0.0,0.0,0.0,0.0,0.0,0.0,0.1675,0.0,0.0,0.0,0.0,0.0,0.0,0.0,0.0,0.0,0.0,0.0,0.0,0.0,0.0,0.0,0.0,0.0,0.0,0.0,0.0,0.0,0.0,0.0,0.0,0.0,0.0,0.0,0.0,0.0,0.0,0.0,0.0,0.0,0.0,0.0,0.0,0.0,0.0,0.0,0.0,0.0,0.0,0.0,0.0,0.0,0.0,0.0,0.0,0.0,0.0,0.0,0.0,0.0,0.0,0.0,-0.9402,-1.1174,-1.2914,-1.483,-1.4887,-1.4895,-1.4854,-1.3513,-1.1853,0.0,0.0,0.0,0.0,0.0,0.0,0.0,0.0,0.0,0.0,0.0,0.0,0.0,0.0,0.0,0.0,0.0,0.0,0.0,0.0,0.0,0.0,0.0,0.0,0.0,0.0,0.0,0.0,0.0,0.0,0.0,0.0,0.0,0.0,0.0,0.0,0.0,0.0,0.0,0.0,1.1263,0.9633,0.9624,0.0,0.0,0.0,0.0,0.0,0.0,0.007,-0.0697,0.0,0.0,0.0,0.0,0.0,0.0,0.0,0.0,0.0,0.0,0.0,0.0,0.0,0.0,0.0,0.0,0.0,0.0,0.0,0.0,0.0,0.0,0.0,0.0,0.0,0.0,0.0,0.0,0.0,0.0,0.0,0.0,0.0,0.0,0.0,0.0,0.0,0.0,0.0,0.0,0.0,0.0,0.0,0.0,0.0,0.0,0.0,0.0,0.0,0.0,0.0,0.0,0.0,0.0,0.0,-0.9731,-1.1757,-1.3922,-1.5939,-1.548,-1.5471,-1.6026,-1.4243,-1.2499,0.0,0.0,0.0,0.0,0.0,0.0,0.0,0.0,0.0,0.0,0.0,0.0,0.0,0.0,0.0,0.0,0.0,0.0,0.0,0.0,0.0,0.0,0.0,0.0,0.0,0.0,0.0,0.0,0.0,0.0,0.0,0.0,0.0,0.0,0.0,0.0,0.0,0.0,0.0,0.0,0.0,0.6853,0.5812,0.2838,0.0,0.0,0.0,0.0,-0.176,-0.261,0.0,0.0,0.0,0.0,0.0,0.0,0.0,0.0,0.0,0.0,0.0,0.0,0.0,0.0,0.0,0.0,0.0,0.0,0.0,0.0,0.0,0.0,0.0,0.0,0.0,0.0,0.0,0.0,0.0,0.0,0.0,0.0,0.0,0.0,0.0,0.0,0.0,0.0,0.0,0.0,0.0,0.0,0.0,0.0,0.0,0.0,0.0,0.0,0.0,0.0,0.0,0.0,0.0,0.0,0.0,0.0,-1.045,-1.2764,-1.44,-1.5296,-1.5267,-1.5275,-1.5346,-1.4625,-1.3312,0.0,0.0,0.0,0.0,0.0,0.0,0.0,0.0,0.0,0.0,0.0,0.0,0.0,0.0,0.0,0.0,0.0,0.0,0.0,0.0,0.0,0.0,0.0,0.0,0.0,0.0,0.0,0.0,0.0,0.0,0.0,0.0,0.0,0.0,0.0,0.0,0.0,0.0,0.0,0.0,0.0,0.4854,0.1304,0.0361,-0.0867,0.0,0.0,-0.4347,-0.4441,-0.5705,0.0,0.0,0.0,0.0,0.0,0.0,0.0,0.0,0.0,0.0,0.0,0.0,0.0,0.0,0.0,0.0,0.0,0.0,0.0,0.0,0.0,0.0,0.0,0.0,0.0,0.0,0.0,0.0,0.0,0.0,0.0,0.0,0.0,0.0,0.0,0.0,0.0,0.0,0.0,0.0,0.0,0.0,0.0,0.0,0.0,0.0,0.0,0.0,0.0,0.0,0.0,0.0,0.0,0.0,0.0,-0.9628,-1.0975,-1.2748,-1.4229,-1.5463,-1.5062,-1.5062,-1.5559,-1.4553,-1.3454,0.0,0.0,0.0,0.0,0.0,0.0,0.0,0.0,0.0,0.0,0.0,0.0,0.0,0.0,0.0,0.0,0.0,0.0,0.0,0.0,0.0,0.0,0.0,0.0,0.0,0.0,0.0,0.0,0.0,0.0,0.0,0.0,0.0,0.0,0.0,0.0,0.0,0.0,0.0,0.0,0.0,0.0,-0.0601,-0.2376,0.0,0.0,0.0,-0.6836,-0.6809,0.0,0.0,0.0,0.0,0.0,0.0,0.0,0.0,0.0,0.0,0.0,0.0,0.0,0.0,0.0,0.0,0.0,0.0,0.0,0.0,0.0,0.0,0.0,0.0,0.0,0.0,0.0,0.0,0.0,0.0,0.0,0.0,0.0,0.0,0.0,0.0,0.0,0.0,0.0,0.0,0.0,0.0,0.0,0.0,0.0,0.0,0.0,0.0,0.0,0.0,0.0,0.0,0.0,0.0,0.0,0.0,0.0,-1.1553,-1.2727,-1.4034,-1.5417,-1.4919,-1.4927,-1.548,-1.4402,0.0,0.0,0.0,0.0,0.0,0.0,0.0,0.0,0.0,0.0,0.0,0.0,0.0,0.0,0.0,0.0,0.0,0.0,0.0,0.0,0.0,0.0,0.0,0.0,0.0,0.0,0.0,0.8916,0.0,0.0,0.0,0.0,0.0,0.0,0.0,0.0,0.0,0.0,0.0,0.0,0.0,0.0,-0.1206,-0.2527,-0.4618,-0.6159,0.0,0.0,-0.8787,-0.8672,-0.8937,-0.9066,0.0,0.0,0.0,0.0,0.0,0.0,0.0,0.0,0.0,0.0,0.0,0.0,0.0,0.0,0.0,0.0,0.0,0.0,0.0,0.0,0.0,0.0,0.0,0.0,0.0,0.0,0.0,0.0,0.0,0.0,0.0,0.0,0.0,0.0,0.0,0.0,0.0,0.0,0.0,0.0,0.0,0.0,0.0,0.0,0.0,0.0,0.0,0.0,0.0,0.0,0.0,0.0,0.0,0.0,-1.0604,-1.2212,-1.3267,-1.4049,-1.4633,-1.4633,-1.4641,-1.4641,-1.4122,-1.3304,0.0,0.0,0.0,0.0,0.0,0.0,0.0,0.0,0.0,0.0,0.0,0.0,0.0,0.0,0.0,0.0,0.0,0.0,0.0,0.0,0.0,0.0,0.0,0.0,0.0,0.0,0.0,0.0,0.0,0.0,0.0,0.0,0.0,0.0,0.0,0.0,0.0,0.0,0.0,0.0,0.0,-0.3154,-0.5557,-0.5925,-0.657,0.0,-0.9109,-0.9631,-0.9761,-1.0398,-1.0926,-1.0908,0.0,0.0,0.0,0.0,0.0,0.0,0.0,0.0,0.0,0.0,0.0,0.0,0.0,0.0,0.0,0.0,0.0,0.0,0.0,0.0,0.0,0.0,0.0,0.0,0.0,0.0,0.0,0.0,0.0,0.0,0.0,0.0,0.0,0.0,0.0,0.0,0.0,0.0,0.0,0.0,0.0,0.0,0.0,0.0,0.0,0.0,0.0,0.0,0.0,0.0,0.0,0.0,0.0,-1.0992,-1.2166,-1.3211,-1.4049,-1.4569,-1.4569,-1.4418,-1.4129,-1.355,-1.2762,0.0,0.0,0.0,0.0,0.0,0.0,0.0,0.0,0.0,0.0,0.0,0.0,0.0,0.0,0.0,0.0,0.0,0.0,0.0,0.0,0.0,0.0,0.0,0.0,0.0,0.0,0.0,0.0,0.4807,0.4383,0.3004,0.0,0.0,0.0,0.0,0.0,0.0,0.0,0.0,0.0,0.0,-0.5293,-0.6832,-0.7811,0.0,0.0,-1.006,-1.0547,-1.0651,-1.0887,-1.1117,-1.1117,-1.0953,0.0,0.0,0.0,0.0,0.0,0.0,0.0,0.0,0.0,0.0,0.0,0.0,0.0,0.0,0.0,0.0,0.0,0.0,0.0,0.0,0.0,0.0,0.0,0.0,0.0,0.0,0.0,0.0,0.0,0.0,0.0,0.0,0.0,0.0,0.0,0.0,0.0,0.0,0.0,0.0,0.0,0.0,0.0,0.0,0.0,0.0,0.0,0.0,0.0,0.0,0.0,0.0,-1.1073,-1.2037,-1.2856,-1.3542,-1.4057,-1.4129,-1.3912,-1.355,-1.2966,-1.231,0.0,0.0,0.0,0.0,0.0,0.0,0.0,0.0,0.0,0.0,0.0,0.0,0.0,0.0,0.0,0.0,0.0,0.0,0.0,0.0,0.0,0.0,0.0,0.0,0.0,0.0,0.0,0.0,0.3006,0.2283,0.0637,0.0,0.0,0.0,0.0,0.0,0.0,0.0,0.0,0.0,0.0,-0.685,-0.7706,-0.9226,-1.0212,-1.0218,-1.1103,-1.1677,-1.1313,-1.145,-1.1575,-1.1353,0.0,0.0,0.0,0.0,0.0,0.0,0.0,0.0,0.0,0.0,0.0,0.0,0.0,0.0,0.0,0.0,0.0,0.0,0.0,0.0,0.0,0.0,0.0,0.0,0.0,0.0,0.0,0.0486,0.0,0.0,0.1676,0.0,0.0,0.0,0.0,0.0,0.0,0.0,0.0,0.0,0.0,0.0,0.0,0.0,0.0,0.0,0.0,0.0,0.0,0.0,0.0,0.0,0.0,-1.088,-1.1983,-1.2076,-1.2378,-1.2973,-1.2973,-1.2966,-1.2893,-1.2305,-1.1872,-1.1585,0.0,0.0,0.0,0.0,0.0,0.0,0.0,0.0,0.0,0.0,0.0,0.0,0.0,0.0,0.0,0.0,0.0,0.0,0.0,0.0,0.0,0.0,0.0,0.0,0.0,0.0,0.1053,0.1193,0.0567,0.0,0.0,0.0,0.0,0.0,0.0,0.0,0.0,0.0,-0.498,-0.6468,-0.7787,-0.8551,-0.9895,-1.0887,-1.1049,-1.2313,-1.2871,-1.167,-1.227,-1.2612,0.0,0.0,0.0,0.0,0.0,0.0,0.0,0.0,0.0,0.0,0.0,0.0,0.0,0.0,0.0,0.0,0.0,0.0,0.0,0.0,0.0,0.0,0.0,0.0,0.0,0.0,0.0,-0.3444,-0.2286,0.0,0.0,0.0,0.0,0.0,0.0,0.0,0.0,0.0,0.0,0.0,-0.2778,-0.3167,0.0,0.0,0.0,0.0,0.0,0.0,0.0,0.0,0.0,0.0,0.0,0.0,-1.0673,-1.1456,-1.1781,-1.2305,-1.29,-1.29,-1.268,-1.2298,-1.2077,-1.1426,-1.0208,0.0,0.0,0.0,0.0,0.0,0.0,0.0,0.0,0.0,0.0,0.0,0.0,0.0,0.0,0.0,0.0,0.0,0.0,0.0,0.0,0.0,0.0,0.0,0.0,0.0,0.0732,0.0,0.0,0.0,0.0,0.0,0.0,0.0,0.0,0.0,0.0,-0.4662,-0.5419,-0.6546,-0.7629,-0.8674,-0.9663,-1.061,-1.1366,0.0,0.0,0.0,0.0,0.0,0.0,0.0,0.0,0.0,0.0,0.0,0.0,0.0,0.0,-0.6554,-0.6554,-0.6294,-0.6121,-0.6121,0.0,0.0,0.0,0.0,0.0,0.0,0.0,0.0,0.0,0.0,0.0,0.0,0.0,0.0,-0.5379,-0.4218,-0.2691,0.0,0.0,0.0,0.0,0.0,0.0,0.0,0.0,-0.3475,-0.4164,-0.4219,-0.4538,-0.5007,0.0,-0.639,-0.7138,0.0,0.0,0.0,0.0,0.0,0.0,0.0,0.0,-1.0606,-1.1045,-1.1471,-1.1855,-1.2231,-1.2305,-1.2083,-1.1706,-1.1409,-1.073,-0.968,-0.8342,-0.7367,0.0,0.0,0.0,0.0,0.0,0.0,0.0,0.0,0.0,0.0,0.0,0.0,0.0,0.0,0.0,0.0,0.0,0.0,0.0,0.0,0.0,0.0,0.0,-0.0615,0.0,0.0,0.0,0.0,0.0,0.0,0.0,0.0,0.0,-0.5582,-0.5485,-0.6006,-0.7418,-0.8398,-0.9277,-1.0284,0.0,0.0,0.0,0.0,0.0,0.0,0.0,-1.2443,-1.2198,-1.2337,-1.2445,-1.2445,-1.1043,-0.9923,-0.9923,0.0,0.0,-0.7139,-0.7139,-0.7139,-0.7139,-0.7139,-0.7139,-0.7139,-0.7139,-0.7665,0.0,0.0,0.0,0.0,0.0,0.0,0.0,0.0,-0.6276,-0.5497,0.0,-0.4392,0.0,0.0,0.0,0.0,-0.3651,-0.3657,0.0,0.0,-0.387,-0.4307,-0.5018,-0.5098,-0.5488,-0.6359,-0.7277,-0.8117,-0.8623,-0.8412,0.0,0.0,0.0,0.0,0.0,0.0,-1.0719,-1.0725,-1.0972,-1.1111,-1.1117,-1.1117,-1.1105,-1.1037,-1.0288,-0.9841,-0.976,-0.8718,-0.7868,-0.72,-0.6738,0.0,0.0,0.0,0.0,0.0,0.0,0.0,0.0,0.0,0.0,0.0,0.0,0.0,0.0,0.0,0.0,0.0,0.0,0.0,0.0,-0.1704,0.0,0.0,0.0,0.0,0.0,0.0,0.0,0.0,0.0,-0.6651,-0.6505,-0.6481,-0.6878,-0.7832,0.0,0.0,0.0,0.0,-1.2559,-1.2018,-1.3185,-1.3682,-1.2453,-1.3008,-1.3347,-1.276,0.0,0.0,-1.2631,-1.1149,-0.9854,-0.9854,-0.8392,-0.7153,-0.7163,-0.7153,-0.7139,-0.7139,-0.7143,-0.7143,-0.7139,-0.7302,-0.7815,-1.2052,0.0,0.0,0.0,0.0,-0.938,-0.8684,-0.8078,-0.7535,-0.6948,-0.6289,-0.5382,0.0,0.0,0.0,0.0,0.0,0.0,-0.4838,-0.4915,-0.543,-0.5898,-0.6241,-0.6244,-0.6325,-0.6573,-0.6827,-0.724,-0.7969,-0.8399,-0.902,-0.9962,0.0,0.0,0.0,0.0,-1.0719,-1.0737,-1.0979,-1.1117,-1.1117,-1.1117,-1.0812,-1.0288,-0.9458,-0.878,-0.8165,-0.7355,-0.6666,-0.6328,-0.6239,0.0,0.0,0.0,0.0,0.0,0.0,0.0,0.0,0.0,0.0,0.0,0.0,0.0,0.0,0.0,0.0,0.0,0.0,0.0,-0.0999,-0.2079,-0.2971,0.0,0.0,0.0,0.0,0.0,0.0,0.0,0.0,0.0,-0.6803,-0.6702,-0.72,0.0,0.0,-1.0014,-1.1834,-1.2283,-1.2388,-1.2425,-1.2675,0.0,-1.2109,-1.2257,-1.238,-1.2391,-1.2578,-1.2508,-1.1904,-1.0868,-0.9933,-0.9345,-0.8283,-0.7561,-0.7636,-0.7375,-0.7156,-0.7139,-0.7669,-0.8105,-0.8097,-0.8525,-0.9365,-1.2518,-1.214,-1.1537,-1.1334,-1.1246,-1.0008,-0.9229,-0.8791,-0.8042,-0.7377,-0.6861,-0.6213,-0.5985,-0.5979,-0.5361,0.0,0.0,0.0,-0.583,-0.5906,-0.6397,-0.661,-0.6695,-0.6702,-0.6702,-0.6702,-0.7076,-0.7426,-0.7765,-0.8608,-0.9579,-1.0576,0.0,-1.0797,-1.0647,-1.0797,-1.0876,-1.0882,-1.1027,-1.0962,-1.0588,-1.0282,-0.9906,-0.9458,-0.8627,-0.8016,-0.7484,-0.6721,-0.6217,-0.6125,-0.6064,-0.5541,0.0,0.0,0.0,0.0,0.0,0.0,0.0,0.0,0.0,0.0,0.0,-0.008,-0.1307,0.0,0.0,0.0,-0.1345,-0.1363,-0.1381,-0.2242,0.0,0.0,0.0,0.0,0.0,0.0,0.0,-0.7231,-0.7295,-0.7278,-0.7365,-0.7683,-0.8325,-0.9182,-0.9543,-1.0411,-1.2213,0.0,-1.2141,-1.2469,-1.2265,-1.2037,-1.2059,-1.2161,-1.2361,-1.2729,-1.3003,-1.2985,-1.2422,-1.1276,-1.0318,-0.9688,-0.8524,-0.7597,-0.7785,-0.7533,-0.7389,-0.751,-0.7805,-0.8197,-0.8627,-0.9167,-0.9784,-1.2705,-1.2681,-1.2362,-1.226,-1.2177,-1.0401,-0.9748,-0.9744,-0.8009,-0.7143,-0.7044,-0.7,-0.6946,-0.6939,-0.68,0.0,-0.6736,-0.6736,-0.6736,-0.6736,-0.6732,-0.6736,-0.6736,-0.6739,-0.6736,-0.6739,-0.7701,-0.8106,-0.7962,-0.8919,-0.9742,-1.0353,-1.0793,-1.101,-1.1148,-1.1117,-1.1117,-1.1111,-1.1037,-1.0594,-0.9846,-0.9084,-0.8703,-0.8627,-0.7863,-0.7484,-0.7407,-0.6718,-0.6261,-0.6254,-0.6046,-0.5897,-0.5816,0.0,0.0,0.0,0.0,0.0,0.0,0.0,0.0,0.0,0.0,0.0,0.0,0.0,0.0,-0.1436,-0.1436,0.0,-0.1524,-0.2424,0.0,0.0,0.0,-0.6195,-0.7084,-0.7177,-0.7269,-0.7542,0.0,0.0,-0.8124,-0.9242,-0.9885,-0.9478,-1.0131,-1.1044,-1.2202,-1.2227,-1.2103,-1.2326,-1.2178,-1.2077,-1.2395,-1.2638,-1.2948,-1.3391,-1.3683,-1.3683,-1.3162,-1.1967,-1.0852,-1.0254,-0.8843,-0.7641,-0.7638,-0.7631,-0.7761,-0.8085,-0.7926,-0.7986,-0.892,-0.9121,-0.9564,-1.2705,-1.2613,-1.1861,-1.1929,-1.2529,-1.1406,-1.0489,-0.9831,-0.8711,-0.7753,-0.7136,-0.7105,-0.7092,-0.7001,-0.7054,-0.7037,-0.7034,-0.7037,-0.7037,-0.7034,-0.7037,-0.7037,-0.7037,-0.7037,-0.7034,-0.7031,-0.7132,-0.7499,-0.8042,-0.8197,-0.8704,-0.9385,-0.9531,-1.0195,-1.1354,-1.122,-1.1117,-1.1117,-1.0513,-0.9765,-0.9003,-0.878,-0.8399,-0.7787,-0.7561,-0.7176,-0.6644,-0.6412,-0.6261,-0.6257,-0.56,-0.4958,-0.4339,-0.386,0.0,0.0,0.0,0.0,0.0,0.0,0.0,0.0,0.0,-0.1218,-0.1333,0.0,-0.1436,0.0,-0.1436,-0.1704,-0.2509,-0.354,0.0,0.0,-0.6489,-0.721,-0.7489,-0.7489,-0.7581,-0.7862,-0.7894,-0.8098,-0.8285,-0.9661,-1.0602,-1.0572,-1.1393,-1.2403,-1.3309,-1.3225,-1.3096,-1.3126,-1.2874,-1.2794,-1.2868,-1.3274,-1.358,-1.3799,-1.3835,-1.3397,-1.1989,-1.1263,-1.0364,-0.8964,-0.8322,-0.8031,-0.8112,-0.7938,-0.7945,-0.8379,-0.8707,-0.8905,-0.896,-0.9652,-1.0269,-1.2705,-1.2619,-1.1666,-1.161,-1.1855,-1.0585,-0.9758,-0.9235,-0.8277,-0.7577,-0.7139,-0.7139,-0.7139,-0.7139,-0.7139,-0.7139,-0.7139,-0.7139,-0.7139,-0.7139,-0.7139,-0.7139,-0.7139,-0.7139,-0.7139,-0.7139,-0.7058,-0.7194,-0.7617,-0.7617,-0.7989,-0.883,-0.8748,-0.9316,-1.0568,-1.0307,-1.0362,-1.0755,-0.9509,-0.8623,-0.8169,-0.7787,-0.7407,-0.7026,-0.6949,-0.6795,-0.6338,-0.5944,-0.5867,-0.6257,-0.5082,-0.4455,-0.4297,-0.3554,-0.2794,0.0,0.0,0.0,0.0,0.0,0.0,0.0,0.0,0.0,0.0,0.0,-0.1441,-0.1454,-0.1455,-0.1825,-0.2851,-0.3531,-0.4485,-0.5877,-0.6599,-0.712,-0.7503,-0.7597,-0.7691,-0.7969,-0.8033,-0.8171,-0.8452,-0.9831,-1.0748,-1.0557,-1.1594,-1.2738,-1.3597,-1.3641,-1.3467,-1.362,-1.3408,-1.3272,-1.3379,-1.3536,-1.3592,-1.3349,-1.3315,-1.2728,-1.1268,-1.0533,-0.9819,-0.8779,-0.8132,-0.7841,-0.8032,-0.7876,-0.7815,-0.809,-0.8498,-0.8834,-0.9121,-0.9481,-0.9875,-1.2534,-1.2448,-1.1408,-1.0857,-1.0605,-0.8987,-0.8345,-0.8388,-0.7432,-0.7095,-0.7027,-0.7132,-0.7139,-0.7139,-0.7139,-0.7139,-0.7139,-0.7139,-0.7139,-0.7139,-0.7139,-0.7139,-0.7139,-0.7139,-0.7139,-0.7139,-0.7139,-0.7139,-0.7139,-0.7139,-0.7492,-0.8277,-0.8045,-0.8479,-0.9306,-0.8864,-0.9053,-0.9948,-0.8389,-0.7451,-0.7334,-0.6662,-0.6281,-0.6261,-0.6261,-0.6257,-0.6106,-0.5395,-0.5318,-0.5867,-0.4455,-0.3988,-0.4613,-0.3299,-0.2464,0.0,-0.1797,0.0,0.0,0.0,0.0,0.0,0.0,0.0,0.0,-0.1438,-0.1454,-0.1484,-0.1487,-0.1963,-0.3038,-0.3239,-0.4098,-0.5908,-0.63,-0.6789,-0.756,-0.7658,-0.7749,-0.8026,-0.8151,-0.8434,-0.8724,-0.9909,-1.0583,-1.0253,-1.1317,-1.252,-1.3334,-1.3529,-1.3548,-1.37,-1.3668,-1.3641,-1.3346,-1.3358,-1.323,-1.2518,-1.2381,-1.193,-1.0745,-1.0001,-0.9351,-0.8905,-0.8179,-0.7614,-0.7597,-0.7604,-0.7604,-0.7611,-0.7861,-0.8255,-0.8836,-0.8949,-0.8935,-1.158,-1.1408,-0.9758,-0.9043,-0.8926,-0.7826,-0.7685,-0.8101,-0.7195,-0.6854,-0.6976,-0.7004,-0.7139,-0.7139,-0.7139,-0.7139,-0.7139,-0.7139,-0.7139,-0.7139,-0.7139,-0.7139,-0.7139,-0.7139,-0.7139,-0.7139,-0.7139,-0.7139,-0.7139,-0.7139,-0.7228,-0.7401,-0.7285,-0.7709,-0.8566,0.0,0.0,0.0,-0.7926,-0.7377,-0.6585,-0.6452,-0.6376,-0.6264,-0.6261,0.0,-0.5237,-0.5082,-0.4768,-0.43,-0.3288,0.0,0.0,0.0,0.0,0.0,0.0,0.0,0.0,0.0,0.0,0.0,-0.1436,-0.1436,-0.1436,-0.1458,-0.1485,-0.1515,-0.1518,-0.1899,-0.2953,-0.3953,-0.4955,-0.6026,-0.7091,-0.7756,-0.7957,-0.8146,-0.8343,-0.8637,-0.8659,-0.8784,-0.9079,-0.9891,-1.0391,-1.0288,-1.1268,-1.1981,-1.2189,-1.2886,-1.3402,-1.3314,-1.3823,-1.3652,-1.204,-1.2517,-1.2626,-1.1919,-1.1472,-1.0905,-0.9872,-0.9427,-0.8881,-0.8142,-0.7691,-0.759,-0.759,-0.7597,-0.758,-0.7594,-0.7588,-0.7587,-0.7738,-0.805,-0.8108,-1.1322,-1.1149,-0.9323,-0.8491,0.0,-0.7378,-0.7161,-0.736,-0.702,-0.6959,-0.7037,-0.7109,-0.7139,-0.7048,-0.7068,-0.7037,-0.7031,-0.6959,-0.6963,-0.7034,-0.7037,-0.7075,-0.7139,-0.7139,-0.7139,-0.7139,-0.7139,-0.7139,-0.7139,-0.7139,-0.7139,-0.7139,-0.7139,-0.7316,-0.7749,-0.7243,-0.7052,-0.723,-0.723,-0.6831,-0.5823,-0.5796,-0.5604,-0.5087,-0.5082,0.0,0.0,0.0,0.0,0.0,0.0,0.0,0.0,-0.2179,0.0,-0.1344,-0.1802,-0.1832,-0.1411,-0.1427,-0.1436,-0.1436,-0.1449,-0.1458,-0.1458,-0.1485,-0.1516,-0.1545,-0.1548,-0.2232,-0.3715,-0.4438,-0.5447,-0.6938,-0.7595,-0.8038,-0.8038,-0.8137,-0.8237,-0.8333,-0.8432,-0.8432,-0.8538,-0.9023,-0.9312,-0.9312,-0.9899,-1.0288,-1.019,-1.1556,-1.263,-1.2517,-1.2698,-1.2657,-1.1605,-1.1343,-1.1316,-1.0413,-0.9975,-0.9435,-0.8442,-0.8265,-0.7913,-0.7464,-0.7373,-0.7373,-0.7373,-0.737,-0.737,-0.737,-0.7309,-0.7258,-0.7258,-0.7441,-0.7578,-1.0804,-1.0631,-0.8973,-0.8194,-0.8064,-0.7304,-0.6895,-0.6793,-0.701,0.0,0.0,-0.7037,-0.7139,-0.7041,-0.693,-0.6966,-0.6959,-0.6834,-0.6844,-0.6966,-0.6966,-0.7027,-0.7136,-0.7139,-0.7139,-0.7139,-0.7139,-0.7139,-0.7139,-0.7139,-0.7139,-0.7139,-0.6962,-0.6782,-0.6605,-0.6602,-0.6492,-0.6282,-0.6441,-0.6025,-0.4978,-0.4994,-0.4622,-0.3803,-0.3785,-0.3698,-0.354,-0.2917,-0.2759,-0.3306,-0.206,-0.1604,-0.2283,-0.1724,-0.1339,-0.1386,-0.1395,-0.1408,-0.1433,-0.1436,-0.1438,-0.1443,-0.1472,-0.1491,-0.1495,-0.152,-0.1547,-0.1577,-0.1579,-0.2282,-0.4019,-0.4425,-0.5225,-0.7033,-0.7537,-0.7739,-0.7739,-0.7939,-0.8137,-0.8038,-0.8137,-0.8038,-0.8137,-0.8233,-0.8237,-0.8137,-0.8528,-0.8528,-0.8432,-1.0092,-1.1556,-1.1531,-1.1502,-1.1201,-1.0591,-1.0305,-0.9598,-0.8828,-0.8384,-0.8017,-0.7316,-0.7139,-0.7139,-0.7166,-0.7143,-0.7153,-0.7146,-0.7163,-0.7139,-0.7139,-0.7139,-0.7139,-0.7139,-0.7139,-0.7143,-0.889,-0.8803,-0.7753,-0.7305,-0.7281,-0.7109,-0.7011,-0.7071,-0.6993,-0.6959,-0.6966,-0.7088,-0.7139,-0.7139,-0.7119,-0.7112,-0.7109,-0.7001,-0.7092,-0.7024,-0.7109,-0.7119,-0.7139,-0.7139,-0.7139,-0.7139,-0.7139,-0.7139,-0.7139,-0.7051,-0.7139,-0.6962,-0.6251,-0.5536,-0.4732,-0.4732,-0.4632,-0.4691,-0.5401,-0.5213,-0.401,-0.4168,-0.4081,-0.3824,-0.3745,-0.3467,-0.2823,-0.2664,-0.2262,-0.17,-0.1403,-0.1337,-0.1508,-0.1448,-0.1381,-0.1391,-0.1414,-0.1431,-0.1435,-0.1436,-0.1446,-0.1473,-0.1502,-0.1531,-0.1556,-0.1562,-0.1578,-0.1607,-0.1609,-0.1712,-0.2119,-0.2923,-0.3624,-0.4024,-0.5529,-0.6634,-0.6736,-0.7633,-0.8233,-0.8333,-0.8336,-0.8333,-0.8333,-0.8137,-0.8038,-0.8038,-0.8137,-0.8137,-0.8237,-0.9312,-1.0194,-1.0342,-1.0626,-1.0116,-0.8854,-0.8599,-0.8396,-0.7489,-0.7404,-0.7404,-0.7139,-0.7139,-0.7139,-0.7139,-0.7139,-0.7139,-0.7139,-0.7139,-0.7139,-0.7139,-0.7139,-0.7139,-0.7139,-0.7139,-0.7139,-0.8544,-0.8368,-0.7492,-0.7139,-0.7139,-0.7139,-0.7139,-0.7044,-0.6458,-0.6518,-0.696,-0.7112,-0.6786,-0.6334,-0.6265,-0.597,-0.5444,-0.5378,-0.5383,-0.5444,-0.5447,-0.5478,-0.5531,-0.5622,-0.5625,-0.5536,-0.5534,-0.5536,-0.5622,-0.5622,-0.5622,-0.5534,-0.5181,-0.4734,-0.4378,-0.4289,-0.4022,-0.3578,-0.4469,-0.4404,-0.3251,-0.3364,-0.3091,-0.2439,-0.2412,-0.2234,-0.1904,-0.1904,-0.174,-0.1327,-0.1341,-0.127,-0.137,-0.1383,-0.1397,-0.1413,-0.1427,-0.1436,-0.1436,-0.1436,-0.1448,-0.1478,-0.1509,-0.1539,-0.157,-0.1587,-0.1602,-0.1615,-0.1617,-0.1818,-0.2421,-0.2923,-0.3425,-0.4024,-0.5027,-0.5729,-0.6334,-0.6933,-0.7534,-0.8038,-0.8233,-0.8137,-0.8134,-0.8038,-0.8038,-0.8038,-0.7939,-0.7939,-0.7939,-0.8432,-0.892,-0.8894,-0.9024,-0.8738,-0.7768,-0.7612,-0.7521,-0.7139,-0.7139,-0.7139,-0.7139,-0.7139,-0.7139,-0.7139,-0.7139,-0.7139,-0.7139,-0.7139,-0.7139,-0.7139,-0.7139,-0.7139,-0.7139,-0.7139,-0.7139,-0.8193,-0.8105,-0.7404,-0.6966,-0.6786,-0.6517,-0.6428,-0.6428,-0.5716,-0.5805,-0.6428,-0.6514,-0.6074,-0.5442,-0.5267,-0.4882,-0.4179,-0.3945,-0.3953,-0.41,-0.4124,-0.4168,-0.4316,-0.4338,-0.4351,-0.4349,-0.4351,-0.4349,-0.4349,-0.4349,-0.4248,-0.3965,-0.3961,-0.3862,-0.3666,-0.3666,-0.3309,-0.2688,-0.331,-0.3284,-0.2536,-0.2447,-0.2082,-0.1369,-0.1361,-0.1272,-0.1357,-0.1357,-0.1357,-0.1358,-0.1364,-0.1205,-0.1048,-0.105,-0.0969,-0.0805,-0.0807,-0.0896,-0.1076,-0.1076,-0.1177,-0.1478,-0.1509,-0.1539,-0.1569,-0.1599,-0.1617,-0.1617,-0.1617,-0.1919,-0.2622,-0.2822,-0.3224,-0.4024,-0.4325,-0.4726,-0.5532,-0.5932,-0.6334,-0.7135,-0.7232,-0.7235,-0.7235,-0.7235,-0.7232,-0.7132,-0.7235,-0.7235,-0.7235,-0.7235,-0.7229,-0.735,-0.7376,-0.7684,-0.7546,-0.7326,-0.7163,-0.7139,-0.7139,-0.7139,-0.7139,-0.7139,-0.7139,-0.7139,-0.7139,-0.7139,-0.7139,-0.7139,-0.7139,-0.7139,-0.7139,-0.7139,-0.7139,-0.7139,-0.7139,-0.7228,-0.7228,-0.7051,-0.6605,-0.5805,-0.4914,-0.4643,-0.4643,-0.4467,-0.4467,-0.4643,-0.4554,-0.4556,-0.4465,-0.4366,-0.4273,-0.4182,-0.4267,-0.4176,-0.4194,-0.427,-0.4312,-0.4227,-0.4301,-0.4346,-0.4334,-0.433,-0.4229,-0.4229,-0.4238,-0.3932,-0.3138,-0.304,-0.2556,-0.1798,-0.1706,-0.1615,-0.1525,-0.1614,-0.1613,-0.1521,-0.152,-0.1519,-0.1427,-0.14,-0.1386,-0.1386,-0.1386,-0.1386,-0.1388,-0.1323,-0.0981,-0.0268,-0.0089,0.0268,0.0985,0.1074,0.0806,-0.0,-0.009,-0.0543,-0.1387,-0.1413,-0.144,-0.1568,-0.1598,-0.1616,-0.1617,-0.1617,-0.1718,-0.1718,-0.1818,-0.1918,-0.212,-0.2822,-0.3423,-0.3725,-0.4323,-0.5024,-0.5024,-0.5327,-0.5125,-0.5325,-0.5325,-0.5225,-0.5425,-0.5527,-0.5527,-0.5425,-0.5413,-0.5374,-0.5591,-0.6441,-0.7263,-0.7237,-0.7261,-0.6887,-0.6962,-0.7051,-0.6871,-0.6782,-0.6871,-0.7051,-0.6602,-0.6871,-0.6782,-0.6874,-0.7139,-0.6962,-0.6694,-0.6782,-0.6962,-0.7051,-0.6962,-0.6874,-0.5447,-0.5447,-0.5445,-0.527,-0.4825,-0.4467,-0.4289,-0.4287,-0.3757,-0.3489,-0.3401,-0.2865,-0.2865,-0.3491,-0.3491,-0.3132,-0.2596,-0.2596,-0.2596,-0.2601,-0.2653,-0.2661,-0.2638,-0.2686,-0.2697,-0.267,-0.2697,-0.2712,-0.2712,-0.2712,-0.2515,-0.2129,-0.2127,-0.1853,-0.1488,-0.1489,-0.148,-0.1463,-0.1462,-0.1453,-0.1438,-0.1436,-0.1436,-0.1434,-0.1423,-0.1416,-0.1416,-0.1416,-0.115,-0.062,-0.0535,-0.0179,0.0806,0.0806,0.0985,0.1342,0.1431,0.1253,0.0806,0.0806,0.0629,0.0181,0.0185,-0.0,-0.0674,-0.0687,-0.0897,-0.1513,-0.1617,-0.1617,-0.1617,-0.1617,-0.1617,-0.1617,-0.2019,-0.2521,-0.3124,-0.3524,-0.4022,-0.4624,-0.4824,-0.4724,-0.4824,-0.4824,-0.4824,-0.4824,-0.4724,-0.4724,-0.4722,-0.4781,-0.471,-0.482,-0.5388,-0.5683,-0.5707,-0.5523,-0.546,-0.5447,-0.5447,-0.5445,-0.5534,-0.5445,-0.5445,-0.5534,-0.5534,-0.5534,-0.5356,-0.5445,-0.5445,-0.5534,-0.5445,-0.5445,-0.5447,-0.5445,-0.5445,-0.4289,-0.4287,-0.4022,-0.3933,-0.3933,-0.3576,-0.3487,-0.3398,-0.2776,-0.2509,-0.242,-0.1704,-0.1793,-0.242,-0.251,-0.2061,-0.1436,-0.1436,-0.1436,-0.1439,-0.1467,-0.1469,-0.1452,-0.1478,-0.1482,-0.1466,-0.1484,-0.1494,-0.1493,-0.1493,-0.1489,-0.1482,-0.148,-0.1492,-0.1511,-0.1514,-0.1507,-0.1495,-0.1493,-0.1385,-0.1089,-0.0995,-0.1173,-0.1347,-0.1436,-0.1256,-0.0987,-0.0987,-0.0628,0.0358,0.0358,0.0806,0.17,0.179,0.1969,0.2148,0.2237,0.2058,0.1879,0.179,0.17,0.1434,0.1368,0.1118,0.0476,0.0388,-0.0,-0.0503,-0.0707,-0.0808,-0.1516,-0.1617,-0.1617,-0.1617,-0.1617,-0.1919,-0.2621,-0.2722,-0.3022,-0.3823,-0.3723,-0.3924,-0.3925,-0.3823,-0.3723,-0.3723,-0.3823,-0.3925,-0.3919,-0.3879,-0.3819,-0.3725,-0.3663,-0.3892,-0.4308,-0.4516,-0.4293,-0.4289,-0.4467,-0.4467,-0.4289,-0.4289,-0.4289,-0.4823,-0.4467,-0.4378,-0.4645,-0.4465,-0.4287,-0.4287,-0.4287,-0.4287,-0.4556,-0.4376,-0.4376,-0.4289,-0.4111,-0.3312,-0.2956,-0.2867,-0.1972,-0.1614,-0.1704,-0.1524,-0.1524,-0.1525,-0.1436,-0.1436,-0.1524,-0.1524,-0.1436,-0.1436,-0.1436,-0.1436,-0.1438,-0.1467,-0.148,-0.148,-0.151,-0.1521,-0.1506,-0.1511,-0.1517,-0.1519,-0.1426,-0.151,-0.1482,-0.1387,-0.1389,-0.1304,-0.1305,-0.1405,-0.1236,-0.1238,-0.0943,-0.0185,-0.0092,-0.0458,-0.1171,-0.1346,-0.0897,-0.0179,-0.009,0.0358,0.1343,0.1343,0.179,0.2686,0.2867,0.3224,0.3941,0.4119,0.3673,0.2956,0.2865,0.2506,0.1705,0.1639,0.1489,0.1425,0.145,0.138,0.1409,0.121,0.0504,-0.101,-0.1313,-0.1414,-0.1516,-0.1617,-0.1617,-0.1717,-0.1818,-0.1717,-0.1918,-0.2019,-0.2119,-0.1919,-0.1718,-0.1918,-0.2019,-0.1818,-0.1919,-0.2018,-0.1914,-0.1979,-0.1928,-0.1991,-0.2253,-0.3799,-0.3851,-0.3937,-0.3933,-0.3666,-0.4111,-0.4289,-0.4289,-0.42,-0.4111,-0.3931,-0.3931,-0.42,-0.4198,-0.402,-0.3931,-0.3842,-0.3842,-0.3576,-0.4109,-0.4022,-0.2418,-0.2418,-0.2061,-0.1973,-0.1883,-0.1524,-0.1436,-0.1436,-0.1436,-0.1436,-0.1436,-0.1436,-0.1436,-0.1346,-0.0807,-0.0807,-0.1346,-0.1436,-0.1436,-0.1439,-0.1466,-0.147,-0.1455,-0.1483,-0.1486,-0.1472,-0.1487,-0.1498,-0.1404,-0.0842,-0.0559,-0.0371,0.0092,0.0374,0.0382,0.0384,0.0482,0.0582,0.0582,0.0769,0.1038,0.1036,0.0933,0.0548,0.0451,0.0537,0.0896,0.0896,0.1343,0.2327,0.2327,0.2776,0.3671,0.3762,0.3941,0.4208,0.4297,0.4119,0.3851,0.3762,0.3671,0.3314,0.3244,0.2941,0.2549,0.2395,0.224,0.18,0.1613,0.1109,0.0605,-0.0101,-0.0605,-0.0605,-0.1212,-0.1516,-0.1617,-0.1617,-0.1617,-0.1617,-0.1617,-0.1617,-0.1617,-0.1617,-0.1617,-0.1617,-0.1617,-0.1617,-0.1613,-0.1601,-0.1575,-0.1536,-0.1508,-0.1668,-0.2164,-0.2418,-0.2417,-0.2418,-0.2418,-0.2418,-0.2508,-0.2685,-0.2597,-0.2685,-0.2774,-0.2774,-0.2864,-0.2774,-0.2774,-0.2774,-0.2685,-0.2864,-0.2417,-0.2864,-0.2774,-0.1436,-0.1436,-0.1436,-0.1436,-0.1436,-0.1436,-0.1256,-0.0987,-0.0987,-0.0807,-0.0538,-0.0538,-0.0538,-0.0358,0.0179,0.0179,-0.0448,-0.0537,-0.0538,-0.0538,-0.0546,-0.0545,-0.054,-0.0546,-0.0545,-0.054,-0.0545,-0.0549,-0.0458,0.0092,0.0457,0.0549,0.1098,0.1394,0.1436,0.1451,0.1557,0.1664,0.1676,0.1764,0.2119,0.2113,0.2284,0.2522,0.2484,0.2267,0.1881,0.1879,0.2327,0.3136,0.3405,0.3673,0.4208,0.4297,0.4297,0.4297,0.4297,0.4297,0.4297,0.4297,0.4297,0.4297,0.4302,0.4002,0.3473,0.3506,0.3191,0.2775,0.2613,0.262,0.2418,0.1713,0.0907,0.0605,-0.0101,-0.0505,-0.0606,-0.0505,-0.0707,-0.101,-0.1414,-0.1516,-0.1617,-0.1617,-0.1617,-0.1617,-0.1617,-0.1617,-0.1613,-0.16,-0.1575,-0.1545,-0.1517,-0.149,-0.1731,-0.1806,-0.1795,-0.1793,-0.1793,-0.1525,-0.1436,-0.1436,-0.1436,-0.1436,-0.1436,-0.1436,-0.1436,-0.1436,-0.1436,-0.1436,-0.1614,-0.1972,-0.1704,-0.1524,-0.1704,-0.1346,-0.1346,-0.1346,-0.1256,-0.1256,-0.1166,-0.0718,-0.009,-0.0,0.0448,0.0985,0.1253,0.1074,0.1253,0.1342,0.1342,0.1343,0.1342,0.1253,0.1164,0.1165,0.1165,0.1164,0.1076,0.1077,0.1163,0.1254,0.1254,0.1166,0.1346,0.1436,0.1434,0.1616,0.1818,0.148,0.1794,0.1729,0.1757,0.1883,0.2284,0.2943,0.3125,0.3488,0.4294,0.4375,0.3925,0.2971,0.2877,0.3331,0.4041,0.4216,0.43,0.43,0.4297,0.4297,0.4297,0.4297,0.4297,0.4297,0.4297,0.4297,0.4297,0.4297,0.4252,0.4256,0.4334,0.442,0.4317,0.439,0.4632,0.4431,0.3626,0.262,0.1814,0.131,0.121,0.1311,0.1513,0.121,0.0101,-0.0706,-0.1414,-0.1516,-0.1212,-0.1111,-0.1111,-0.1212,-0.1111,-0.1111,-0.1208,-0.1501,-0.1474,-0.1442,-0.1504,-0.1479,-0.1457,-0.1445,-0.1436,-0.1525,-0.1436,-0.1436,-0.1436,-0.1436,-0.1436,-0.1436,-0.1436,-0.1436,-0.1436,-0.1436,-0.1436,-0.1436,-0.1436,-0.1436,-0.1436,-0.1436,-0.1076,-0.0448,-0.0448,-0.0448,-0.0359,0.0269,0.0716,0.0985,0.0985,0.1164,0.1342,0.1431,0.1431,0.161,0.2058,0.2417,0.2506,0.3042,0.2685,0.161,0.1431,0.1431,0.1431,0.1431,0.1431,0.1431,0.1431,0.1431,0.161,0.2148,0.2417,0.2506,0.3042,0.344,0.3411,0.3441,0.3578,0.3644,0.3673,0.3888,0.4208,0.4215,0.4397,0.4669,0.4667,0.4416,0.4122,0.4113,0.4177,0.4398,0.4393,0.4365,0.4314,0.4297,0.4297,0.4297,0.4297,0.4297,0.4297,0.4297,0.4297,0.4297,0.4297,0.4342,0.4428,0.4518,0.461,0.47,0.4783,0.4832,0.4734,0.4533,0.3827,0.282,0.2017,0.1714,0.1815,0.1613,0.1412,0.121,0.0807,0.0605,0.0605,0.0504,0.0403,0.0404,0.0504,0.0504,0.0404,-0.0202,-0.0501,-0.0492,-0.0869,-0.1235,-0.1026,-0.0824,-0.0814,-0.0988,-0.1166,-0.1346,-0.1436,-0.1436,-0.1436,-0.1436,-0.1436,-0.1436,-0.1436,-0.1436,-0.1436,-0.1436,-0.1436,-0.1436,-0.1436,-0.1436,-0.1436,-0.0,0.0538,0.0537,0.0537,0.0538,0.1164,0.161,0.1879,0.1969,0.2148,0.2416,0.2506,0.2504,0.2594,0.3135,0.3405,0.3494,0.403,0.3669,0.2596,0.2505,0.2505,0.2505,0.2505,0.2505,0.2505,0.2505,0.2505,0.2505,0.3135,0.3403,0.3583,0.403,0.4324,0.4385,0.442,0.4469,0.452,0.4557,0.4616,0.4689,0.4708,0.4724,0.4749,0.4755,0.4724,0.4673,0.4671,0.4612,0.4512,0.4485,0.4455,0.4404,0.4404,0.4387,0.4355,0.4346,0.4336,0.4306,0.4297,0.4297,0.4297,0.4297,0.434,0.4428,0.452,0.461,0.47,0.4785,0.4832,0.4832,0.4734,0.4431,0.3927,0.3325,0.2821,0.272,0.2418,0.2217,0.2116,0.1814,0.1613,0.1613,0.1613,0.1613,0.1613,0.1613,0.1613,0.1513,0.1008,0.0799,0.0594,0.0293,-0.0,-0.0188,-0.0184,-0.0181,-0.054,-0.0807,-0.1166,-0.1436,-0.1436,-0.1436,-0.1436,-0.1436,-0.1436,-0.1436,-0.1436,-0.1436,-0.1436,-0.1346,-0.1436,-0.1436,-0.1436,-0.1436,0.1431,0.1521,0.1521,0.1522,0.1522,0.1611,0.2237,0.2865,0.2956,0.3403,0.403,0.403,0.4119,0.4208,0.4119,0.4119,0.43,0.4228,0.423,0.4141,0.4057,0.406,0.3942,0.3939,0.3939,0.403,0.4117,0.4119,0.3939,0.4119,0.4297,0.4208,0.421,0.4297,0.4324,0.4385,0.442,0.4436,0.4504,0.4585,0.4681,0.4694,0.4741,0.4818,0.4824,0.4818,0.481,0.4804,0.4741,0.4604,0.4571,0.4553,0.4563,0.4571,0.4516,0.4447,0.4442,0.4404,0.4342,0.4326,0.432,0.4322,0.431,0.4336,0.4428,0.452,0.461,0.4702,0.4785,0.4832,0.4832,0.4832,0.4732,0.4732,0.4431,0.4431,0.4634,0.3828,0.3324,0.3123,0.2418,0.1815,0.2116,0.2017,0.2017,0.2017,0.2117,0.2217,0.2116,0.2016,0.1815,0.1598,0.138,0.0968,0.0568,0.065,0.0638,0.0359,-0.0,-0.0269,-0.0717,-0.0717,-0.0717,-0.0807,-0.0987,-0.1166,-0.1076,-0.0717,-0.0897,-0.0987,-0.1076,-0.1256,-0.1436,-0.1346,-0.1345,0.1879,0.2506,0.2506,0.2506,0.2597,0.3223,0.3669,0.3941,0.3941,0.403,0.4297,0.4297,0.4297,0.43,0.43,0.4297,0.4318,0.4371,0.44,0.4412,0.4473,0.4414,0.4322,0.4297,0.4297,0.4297,0.4297,0.4297,0.4297,0.4297,0.4297,0.4297,0.4297,0.4297,0.4306,0.4326,0.4332,0.4334,0.4355,0.4457,0.4585,0.4612,0.4683,0.482,0.4832,0.4832,0.4832,0.4832,0.479,0.4681,0.4606,0.4571,0.4581,0.4583,0.4571,0.4545,0.4536,0.4526,0.4491,0.4434,0.4404,0.4391,0.4351,0.434,0.4428,0.452,0.461,0.47,0.4783,0.4832,0.4832,0.4832,0.4832,0.4832,0.4832,0.4832,0.4734,0.4533,0.4331,0.4331,0.4028,0.3827,0.3726,0.3726,0.3728,0.3728,0.3728,0.3728,0.3425,0.3122,0.2821,0.2506,0.2179,0.1751,0.1431,0.1496,0.1376,0.126,0.1074,0.0984,0.0716,0.0626,0.0716,0.0716,0.0358,0.0179,0.0448,0.0805,0.0358,-0.0359,-0.0359,-0.0448,-0.1076,-0.1346,-0.1166,0.2953,0.3494,0.3494,0.3494,0.3582,0.4032,0.4297,0.4297,0.4297,0.4297,0.4297,0.4297,0.4297,0.4302,0.4338,0.4355,0.4367,0.4451,0.4491,0.4502,0.4542,0.4485,0.4377,0.4324,0.4297,0.4297,0.4297,0.4297,0.4297,0.4297,0.4297,0.4297,0.4297,0.4297,0.4297,0.4297,0.4297,0.43,0.4302,0.4373,0.4502,0.4555,0.4645,0.4765,0.481,0.4832,0.4832,0.4832,0.4808,0.4759,0.4712,0.4681,0.4683,0.4683,0.4667,0.4636,0.463,0.4616,0.4571,0.452,0.4496,0.4487,0.4438,0.4467,0.4444,0.4604,0.4667,0.4757,0.4808,0.4828,0.4832,0.4832,0.4832,0.4832,0.4832,0.4832,0.4832,0.4734,0.4832,0.4832,0.4832,0.4832,0.4832,0.4832,0.4832,0.4732,0.4632,0.4632,0.4531,0.4128,0.3723,0.3509,0.3386,0.3134,0.2882,0.2918,0.2757,0.2434,0.2325,0.2236,0.1789,0.17,0.1521,0.1522,0.1431,0.1521,0.161,0.161,0.1074,0.0627,0.0627,0.0448,-0.009,-0.0627,-0.0538,0.4297,0.4297,0.4297,0.4297,0.43,0.4297,0.4297,0.4297,0.4297,0.4297,0.4297,0.4297,0.431,0.4318,0.4391,0.4436,0.4455,0.4545,0.4591,0.4602,0.4602,0.4547,0.4479,0.4371,0.4334,0.4322,0.4308,0.4297,0.4297,0.4297,0.4297,0.4297,0.4297,0.4297,0.4297,0.4297,0.4297,0.4297,0.4297,0.4349,0.4449,0.453,0.4624,0.4716,0.5001,0.4933,0.4935,0.5033,0.5131,0.4933,0.4834,0.4816,0.4822,0.4826,0.4796,0.4738,0.4718,0.4689,0.4718,0.4797,0.4681,0.4676,0.4761,0.4706,0.4854,0.4981,0.5216,0.5309,0.5031,0.5233,0.5035,0.4935,0.4832,0.4832,0.4832,0.4832,0.4832,0.4832,0.4832,0.4832,0.4832,0.4832,0.4832,0.4832,0.4832,0.4832,0.4832,0.4832,0.4832,0.4531,0.4431,0.4427,0.4489,0.4544,0.4454,0.4364,0.416,0.3886,0.368,0.3401,0.2594,0.2326,0.2058,0.1969,0.2416,0.2505,0.2237,0.2058,0.179,0.1611,0.1612,0.1522,0.1253,0.0805,0.0626,0.4297,0.4297,0.4297,0.4297,0.4297,0.4297,0.4297,0.43,0.4297,0.4391,0.4302,0.43,0.4342,0.4406,0.4533,0.4471,0.4643,0.4829,0.4712,0.4767,0.4704,0.4675,0.4612,0.4583,0.4412,0.4389,0.433,0.4302,0.43,0.4389,0.4297,0.4297,0.4476,0.4297,0.4389,0.4387,0.4297,0.4297,0.43,0.4433,0.4516,0.461,0.4801,0.4901,0.5388,0.5434,0.5233,0.6034,0.6337,0.5737,0.5236,0.5035,0.4933,0.4935,0.492,0.4908,0.4901,0.4893,0.4868,0.5494,0.5649,0.5061,0.5681,0.6225,0.5662,0.6171,0.6516,0.6705,0.6637,0.6337,0.5839,0.5135,0.5035,0.5035,0.4935,0.4933,0.4834,0.4832,0.4832,0.4832,0.4832,0.4832,0.4832,0.4832,0.4832,0.4832,0.4832,0.4832,0.4832,0.4832,0.4832,0.4832,0.48,0.4749,0.4659,0.4573,0.4483,0.4406,0.4373,0.4353,0.3534,0.3247,0.3076,0.3332,0.3758,0.358,0.3042,0.331,0.3221,0.2953,0.2506,0.2326,0.2148,0.1878,0.1789,0.5275,0.5275,0.5275,0.5275,0.5275,0.5275,0.5099,0.4835,0.4835,0.4593,0.4357,0.4361,0.4595,0.506,0.5108,0.5356,0.5699,0.5801,0.5879,0.5914,0.5874,0.5857,0.5824,0.5585,0.5371,0.4633,0.4389,0.4346,0.4401,0.4569,0.4656,0.4387,0.4921,0.5102,0.4835,0.4835,0.5013,0.5188,0.4924,0.4954,0.5285,0.5475,0.5623,0.5764,0.6273,0.6337,0.6134,0.6637,0.6939,0.6539,0.6139,0.5937,0.5937,0.5937,0.5934,0.5934,0.5934,0.5937,0.6114,0.6184,0.6342,0.6251,0.6666,0.6781,0.6721,0.7131,0.7057,0.7214,0.7135,0.6939,0.6639,0.6239,0.5937,0.5937,0.5937,0.5934,0.5837,0.5336,0.4832,0.4832,0.4832,0.4832,0.4832,0.4832,0.4832,0.4832,0.4832,0.4832,0.4832,0.4832,0.4832,0.4826,0.4802,0.4749,0.4665,0.4589,0.4528,0.4487,0.4477,0.4467,0.4187,0.416,0.4225,0.4282,0.4244,0.421,0.3939,0.4208,0.422,0.3851,0.3405,0.3223,0.3042,0.3042,0.3042,0.6493,0.649,0.649,0.648,0.6462,0.6379,0.61,0.5636,0.5549,0.5338,0.4878,0.4802,0.5405,0.5913,0.6008,0.6549,0.6896,0.7057,0.693,0.6927,0.6924,0.6915,0.6886,0.6695,0.6247,0.484,0.489,0.4842,0.497,0.5201,0.528,0.4921,0.5719,0.5899,0.5636,0.5547,0.5725,0.6077,0.5722,0.5727,0.6201,0.6403,0.659,0.6816,0.7162,0.7232,0.7135,0.7437,0.7537,0.7434,0.7534,0.7537,0.7534,0.7235,0.7235,0.7138,0.7138,0.7039,0.6939,0.7027,0.7325,0.7952,0.7524,0.7319,0.773,0.7822,0.7822,0.7627,0.7633,0.7434,0.7338,0.7039,0.7036,0.7135,0.7135,0.7235,0.6936,0.5937,0.5436,0.5035,0.4935,0.4832,0.4832,0.4832,0.4832,0.4834,0.4834,0.4834,0.4834,0.4832,0.4832,0.4812,0.4785,0.4718,0.4632,0.4612,0.4551,0.4553,0.4555,0.4557,0.4555,0.4518,0.4471,0.4416,0.4377,0.4361,0.4365,0.4395,0.4387,0.4336,0.423,0.3796,0.3965,0.4302,0.4123,0.6858,0.6951,0.6858,0.6796,0.67,0.6694,0.6542,0.6263,0.6275,0.6245,0.627,0.6279,0.6418,0.6864,0.6918,0.6997,0.7375,0.7425,0.7434,0.7434,0.7434,0.7434,0.7425,0.7493,0.704,0.6546,0.6334,0.6265,0.6105,0.6227,0.6083,0.6074,0.634,0.6432,0.6343,0.6254,0.6343,0.6609,0.6432,0.6432,0.664,0.6753,0.6938,0.7286,0.7831,0.7912,0.7733,0.8432,0.8928,0.8333,0.8829,0.913,0.8829,0.7932,0.7434,0.7437,0.7743,0.7842,0.7637,0.8347,0.8247,0.7945,0.823,0.8528,0.8634,0.8832,0.8832,0.8832,0.8531,0.823,0.8233,0.7836,0.7338,0.7238,0.7335,0.7335,0.7235,0.6936,0.6437,0.6037,0.5434,0.4933,0.5233,0.5334,0.5334,0.5336,0.5135,0.5135,0.5035,0.4935,0.4832,0.4804,0.4765,0.4683,0.4596,0.4602,0.4585,0.4602,0.4606,0.4608,0.46,0.4575,0.4534,0.4528,0.4506,0.4493,0.45,0.4498,0.4471,0.4426,0.4406,0.4389,0.4375,0.4363,0.4324,0.8056,0.8056,0.8056,0.8016,0.7955,0.7944,0.7629,0.7282,0.7187,0.7082,0.6998,0.6948,0.7235,0.7684,0.7727,0.7974,0.8315,0.8432,0.8432,0.8432,0.8432,0.8432,0.8432,0.8432,0.8293,0.8189,0.8027,0.7387,0.6719,0.691,0.6782,0.6697,0.7054,0.7319,0.7048,0.6956,0.7146,0.7326,0.7238,0.7146,0.7514,0.7652,0.7859,0.8142,0.8519,0.8735,0.8722,0.9031,0.9426,0.9126,0.9426,0.9525,0.9327,0.9031,0.8428,0.8432,0.8638,0.8741,0.8531,0.924,0.9137,0.8733,0.9229,0.943,0.9232,0.9331,0.9628,0.9529,0.943,0.9027,0.9027,0.863,0.8531,0.8432,0.8432,0.8333,0.8333,0.8035,0.7637,0.7135,0.6736,0.6334,0.6137,0.6237,0.6137,0.5937,0.5636,0.5539,0.5436,0.5236,0.5133,0.5118,0.5085,0.495,0.4873,0.4867,0.476,0.4669,0.4675,0.4675,0.4683,0.4677,0.4696,0.4708,0.4679,0.461,0.4569,0.4545,0.453,0.4522,0.4506,0.4485,0.4451,0.4418,0.4387,0.9206,0.9202,0.9206,0.9181,0.9153,0.9149,0.8742,0.8337,0.8228,0.8026,0.7601,0.7614,0.7976,0.8495,0.8726,0.9027,0.9628,0.9529,0.9426,0.9426,0.9426,0.9529,0.9628,0.9608,0.9327,0.9036,0.8965,0.8371,0.7434,0.7517,0.7316,0.7422,0.8143,0.8347,0.7904,0.7882,0.8294,0.8306,0.8213,0.8209,0.8577,0.8787,0.8913,0.9056,0.9238,0.9429,0.9335,0.9509,0.9624,0.9525,0.9624,0.9624,0.9624,0.9624,0.9624,0.9624,0.9624,0.9624,0.9628,0.9529,0.9529,0.9327,0.9525,0.9628,0.9628,0.9529,0.9624,0.9624,0.9525,0.9525,0.9525,0.9525,0.9525,0.9525,0.9426,0.9525,0.9229,0.9031,0.8733,0.8333,0.7935,0.7434,0.7036,0.6836,0.6637,0.6637,0.6337,0.6337,0.6237,0.5937,0.5737,0.5636,0.5525,0.5425,0.5295,0.5284,0.4973,0.4767,0.4769,0.4769,0.4787,0.4804,0.481,0.4891,0.4749,0.4679,0.4636,0.4616,0.4628,0.4628,0.461,0.4573,0.4522,0.4496,0.4471,0.9567,0.9563,0.9563,0.9474,0.9336,0.9324,0.9238,0.8929,0.8937,0.9001,0.8987,0.908,0.9174,0.9296,0.9426,0.9529,0.9628,0.9624,0.9624,0.9624,0.9624,0.9624,0.9624,0.9624,0.9518,0.936,0.9194,0.8902,0.8344,0.8294,0.8404,0.834,0.8458,0.8701,0.8532,0.8619,0.8934,0.9023,0.8922,0.8846,0.8844,0.8962,0.8974,0.9011,0.9173,0.9384,0.9462,0.9563,0.9624,0.9624,0.9624,0.9624,0.9624,0.9624,0.9624,0.9624,0.9624,0.9624,0.9624,0.9624,0.9624,0.9624,0.9624,0.9624,0.9624,0.9624,0.9624,0.9624,0.9624,0.9624,0.9624,0.9624,0.9624,0.9624,0.9624,0.9624,0.9529,0.943,0.9229,0.9229,0.873,0.8134,0.7637,0.7335,0.7135,0.7138,0.7138,0.7039,0.6939,0.6637,0.6437,0.6337,0.6237,0.6137,0.5937,0.5839,0.5636,0.5233,0.5133,0.5133,0.5334,0.5434,0.5133,0.5109,0.4971,0.5062,0.5237,0.513,0.4845,0.4728,0.4698,0.4643,0.4579,0.4563,0.4557,0.9624,0.9624,0.9624,0.9583,0.9514,0.951,0.947,0.9409,0.9401,0.9437,0.9498,0.951,0.9555,0.9616,0.9624,0.9628,0.9624,0.9624,0.9624,0.9624,0.9624,0.9624,0.9624,0.9616,0.9531,0.9388,0.9271,0.9165,0.8974,0.8816,0.871,0.8739,0.8881,0.8978,0.8982,0.906,0.9084,0.9084,0.9084,0.9056,0.9019,0.9051,0.9108,0.912,0.9275,0.9388,0.9498,0.9567,0.9624,0.9624,0.9624,0.9624,0.9624,0.9624,0.9624,0.9624,0.9624,0.9624,0.9624,0.9624,0.9624,0.9624,0.9624,0.9624,0.9624,0.9624,0.9624,0.9624,0.9624,0.9624,0.9624,0.9624,0.9624,0.9624,0.9624,0.9624,0.9624,0.9624,0.9525,0.9624,0.9525,0.8928,0.8432,0.8432,0.8329,0.8233,0.8134,0.7935,0.7637,0.7235,0.7135,0.7036,0.6936,0.6939,0.6836,0.6637,0.6637,0.6334,0.6334,0.6334,0.6337,0.6237,0.5934,0.5737,0.5812,0.5914,0.5937,0.542,0.4893,0.4785,0.4781,0.473,0.4681,0.4657,0.4653,0.9587,0.9624,0.9624,0.9624,0.9624,0.9624,0.962,0.9624,0.9612,0.962,0.9624,0.962,0.962,0.9624,0.9624,0.9624,0.9624,0.9624,0.9624,0.9624,0.9624,0.9624,0.9624,0.9616,0.9563,0.9417,0.9356,0.9271,0.9161,0.9039,0.8954,0.8905,0.9072,0.9149,0.9173,0.9234,0.9279,0.9279,0.9271,0.923,0.9177,0.9161,0.9206,0.9263,0.9436,0.9417,0.9539,0.9616,0.9624,0.9624,0.9624,0.9624,0.9624,0.9624,0.9624,0.9624,0.9624,0.9624,0.9624,0.9624,0.9624,0.9624,0.9624,0.9624,0.9624,0.9624,0.9624,0.9624,0.9624,0.9624,0.9624,0.9624,0.9624,0.9624,0.9624,0.9624,0.9624,0.9624,0.9624,0.9624,0.9624,0.9624,0.9327,0.9426,0.9426,0.9426,0.9229,0.8733,0.8432,0.8031,0.8031,0.8031,0.8031,0.7935,0.7633,0.7534,0.7434,0.7335,0.7335,0.7235,0.7036,0.6936,0.6836,0.6739,0.6642,0.6639,0.6537,0.5737,0.4832,0.502,0.5109,0.482,0.4796,0.4763,0.4743,0.9474,0.9624,0.9624,0.9624,0.9624,0.9624,0.9624,0.9624,0.9624,0.9624,0.9624,0.9624,0.9624,0.9624,0.9624,0.9624,0.9624,0.9624,0.9624,0.9624,0.9624,0.9624,0.9624,0.962,0.9612,0.9563,0.947,0.9384,0.934,0.9311,0.9206,0.9129,0.9271,0.9319,0.9372,0.9445,0.9502,0.951,0.951,0.9449,0.9376,0.9328,0.9291,0.9214,0.9283,0.9368,0.9388,0.9543,0.9624,0.9624,0.9624,0.9624,0.9624,0.9624,0.9624,0.9624,0.9624,0.9624,0.9624,0.9624,0.9624,0.9624,0.9624,0.9624,0.9624,0.9624,0.9624,0.9624,0.9624,0.9624,0.9624,0.9624,0.9624,0.9624,0.9624,0.9624,0.9624,0.9624,0.9624,0.9624,0.9624,0.9624,0.9624,0.9624,0.9624,0.9529,0.9529,0.913,0.9229,0.9027,0.9126,0.9229,0.9229,0.9027,0.8432,0.8333,0.8233,0.8035,0.7932,0.7733,0.7434,0.7434,0.7733,0.7537,0.7437,0.7338,0.7138,0.6337,0.5737,0.5639,0.5639,0.5536,0.5434,0.5402,0.5198,0.9966,0.947,0.9579,0.9624,0.9624,0.9624,0.9624,0.9624,0.9624,0.9624,0.9624,0.9624,0.9624,0.9624,0.9624,0.9624,0.9624,0.9624,0.9624,0.9624,0.9624,0.9624,0.9624,0.9624,0.9624,0.9612,0.9543,0.9522,0.9527,0.9506,0.9498,0.9466,0.9478,0.951,0.9567,0.9579,0.9612,0.9624,0.9624,0.9575,0.9559,0.9522,0.949,0.9453,0.9462,0.9522,0.9543,0.9587,0.9616,0.9624,0.9624,0.9624,0.9624,0.9624,0.9624,0.9624,0.9624,0.9624,0.9624,0.9624,0.9624,0.9624,0.9624,0.9624,0.9624,0.9624,0.9624,0.9624,0.9624,0.9624,0.9624,0.9624,0.9624,0.9624,0.9624,0.9624,0.9624,0.9624,0.9624,0.9624,0.9624,0.9624,0.9624,0.9624,0.9624,0.9624,0.9624,0.9624,0.9624,0.9624,0.9624,0.9624,0.9624,0.9624,0.9027,0.9031,0.8931,0.873,0.8531,0.8432,0.8333,0.873,0.8829,0.8531,0.8333,0.8233,0.7836,0.7036,0.6637,0.6639,0.6539,0.6537,0.6334,0.6134,0.5837,1.0806,1.0323,1.0418,1.0113,0.9624,0.9624,0.9624,0.9624,0.9624,0.9624,0.9624,0.9624,0.9624,0.9624,0.9624,0.9624,0.9624,0.9624,0.9624,0.9624,0.9624,0.9624,0.9624,0.9624,0.9624,0.9624,0.9624,0.9616,0.9608,0.9624,0.96,0.9596,0.9624,0.9616,0.9616,0.9624,0.9624,0.9624,0.9624,0.9624,0.962,0.962,0.9616,0.9604,0.9608,0.9608,0.9604,0.962,0.962,0.9624,0.9624,0.9624,0.9624,0.9624,0.9624,0.9624,0.9624,0.9624,0.9624,0.9624,0.9624,0.9624,0.9624,0.9624,0.9624,0.9624,0.9624,0.9624,0.9624,0.9624,0.9624,0.9624,0.9624,0.9624,0.9624,0.9624,0.9624,0.9624,0.9624,0.9624,0.9624,0.9624,0.9624,0.9624,0.9624,0.9624,0.9624,0.9624,0.9624,0.9624,0.9624,0.9624,0.9624,0.9624,0.9525,0.9426,0.9229,0.9229,0.913,0.9229,0.9327,0.9624,0.9624,0.9229,0.9031,0.913,0.8829,0.823,0.7832,0.7637,0.7434,0.7135,0.6936,0.6634,0.6637,1.2063,1.2304,1.2427,1.1463,0.9916,0.9628,0.9723,0.9916,0.9916,0.9916,0.9916,0.9821,0.9723,0.9723,0.9723,0.9624,0.9624,0.9624,0.9624,0.9624,0.9624,0.9624,0.9624,0.9624,0.9624,0.9624,0.9821,0.9916,0.9821,1.0113,1.0015,0.992,1.0015,0.9723,0.9624,0.9624,0.9624,0.9624,0.9624,0.9624,0.9624,0.9624,0.9624,0.9624,0.9624,0.9624,0.9624,0.9624,0.9624,0.9624,0.9624,0.9624,0.9624,0.9624,0.9624,0.9624,0.9624,0.9624,0.9624,0.9624,0.9624,0.9624,0.9624,0.9624,0.9624,0.9624,0.9624,0.9624,0.9624,0.9624,0.9624,0.9624,0.9624,0.9624,0.9624,0.9624,0.9624,0.9624,0.9624,0.9624,0.9624,0.9624,0.9624,0.9624,0.9624,0.9624,0.9624,0.9624,0.9624,0.9624,0.9624,0.9624,0.9624,0.9624,0.9624,0.9624,0.9525,0.9624,0.9624,0.9624,0.9624,0.9624,0.9624,0.9624,0.9525,0.9426,0.9426,0.9426,0.8931,0.8333,0.7832,0.7534,0.7335,0.7335,0.7434,1.2462,1.2156,1.2304,1.2112,1.1653,1.1663,1.1668,1.1663,1.1663,1.1663,1.1473,1.0984,1.069,1.0493,1.0015,0.9723,0.9723,0.9624,0.9624,0.9624,0.9723,0.9624,0.9723,0.9821,0.9723,0.9821,1.0109,1.069,1.069,1.1082,1.157,1.157,1.0792,1.0207,0.9821,0.9624,0.9624,0.9624,0.9624,0.9624,0.9624,0.9624,0.9624,0.9624,0.9624,0.9624,0.9624,0.9624,0.9624,0.9624,0.9624,0.9624,0.9624,0.9624,0.9624,0.9624,0.9624,0.9624,0.9624,0.9624,0.9624,0.9624,0.9624,0.9624,0.9624,0.9624,0.9624,0.9624,0.9624,0.9624,0.9624,0.9624,0.9624,0.9624,0.9624,0.9624,0.9624,0.9624,0.9624,0.9624,0.9624,0.9624,0.9624,0.9624,0.9624,0.9624,0.9624,0.9624,0.9624,0.9624,0.9624,0.9624,0.9624,0.9624,0.9624,0.9624,0.9624,0.9624,0.9624,0.9624,0.9624,0.9624,0.9624,0.9624,0.9624,0.9624,0.9624,0.9624,0.9525,0.913,0.863,0.8428,0.8528,0.8528,0.863,1.3276,1.2925,1.3269,1.3508,1.3475,1.2984,1.2732,1.2732,1.2732,1.2732,1.2538,1.195,1.1755,1.1468,1.1082,1.0699,1.0694,1.0694,1.0694,1.0694,1.0699,1.089,1.0792,1.06,1.0988,1.089,1.1179,1.1755,1.176,1.2344,1.2538,1.2344,1.2047,1.1468,1.0792,1.0306,0.9817,0.9916,1.0015,0.9624,0.9624,0.9624,0.9624,0.9624,0.9624,0.9624,0.9624,0.9624,0.9624,0.9624,0.9624,0.9624,0.9624,0.9624,0.9624,0.9624,0.9624,0.9624,0.9624,0.9624,0.9624,0.9624,0.9624,0.9624,0.9624,0.9624,0.9624,0.9624,0.9624,0.9624,0.9624,0.9624,0.9624,0.9624,0.9624,0.9624,0.9624,0.9624,0.9624,0.9624,0.9624,0.9624,0.9624,0.9624,0.9624,0.9624,0.9624,0.9624,0.9624,0.9624,0.9624,0.9624,0.9624,0.9624,0.9624,0.9624,0.9624,0.9624,0.9624,0.9624,0.9624,0.9624,0.9624,0.9624,0.9624,0.9624,0.9624,0.9624,0.9525,0.9525,0.9426,0.9426,0.9624,0.9525,0.9327,1.4509,1.4603,1.513,1.5265,1.5054,1.3648,1.2898,1.292,1.2926,1.2926,1.2829,1.292,1.2732,1.2732,1.2635,1.2441,1.2339,1.2436,1.2339,1.2436,1.215,1.2339,1.2339,1.2344,1.215,1.2441,1.2732,1.2732,1.2732,1.3216,1.3216,1.3022,1.2926,1.2732,1.2247,1.1277,1.0788,1.0886,1.0404,1.0113,1.0015,0.9723,0.9624,0.9624,0.9624,0.9624,0.9624,0.9624,0.9624,0.9624,0.9624,0.9624,0.9624,0.9624,0.9624,0.9624,0.9624,0.9624,0.9624,0.9624,0.9624,0.9624,0.9624,0.9624,0.9624,0.9624,0.9624,0.9624,0.9624,0.9624,0.9624,0.9624,0.9624,0.9624,0.9624,0.9624,0.9624,0.9624,0.9624,0.9624,0.9624,0.9624,0.9624,0.9624,0.9624,0.9624,0.9624,0.9624,0.9624,0.9624,0.9624,0.9624,0.9624,0.9624,0.9624,0.9624,0.9624,0.9624,0.9624,0.9624,0.9624,0.9624,0.9624,0.9624,0.9624,0.9624,0.9624,0.9624,0.9624,0.9624,0.9624,0.9624,0.9624,0.9624,0.9525,1.4329,1.4536,1.4703,1.489,1.5026,1.4737,1.4766,1.4848,1.486,1.4854,1.486,1.4094,1.3806,1.3806,1.3028,1.2829,1.2732,1.2732,1.2635,1.2732,1.3022,1.2829,1.2823,1.292,1.2727,1.3022,1.3414,1.3902,1.3998,1.4382,1.4765,1.4867,1.4088,1.4184,1.3794,1.2823,1.2436,1.1955,1.1277,1.0886,1.0498,1.0207,1.0015,0.9916,0.992,0.992,0.992,0.9821,0.9821,0.9723,0.9624,0.9624,0.9624,0.9624,0.9624,0.9624,0.9624,0.9624,0.9624,0.9624,0.9624,0.9624,0.9624,0.9624,0.9624,0.9624,0.9624,0.9624,0.9624,0.9624,0.9624,0.9624,0.9624,0.9624,0.9624,0.9624,0.9624,0.9624,0.9624,0.9624,0.9624,0.9624,0.9624,0.9624,0.9624,0.9624,0.9624,0.9624,0.9624,0.9624,0.9624,0.9624,0.9624,0.9624,0.9624,0.9624,0.9624,0.9624,0.9624,0.9624,0.9624,0.9624,0.9624,0.9624,0.9624,0.9624,0.9624,0.9624,0.9624,0.9624,0.9624,0.9624,0.9624,0.9624,0.9624,1.4182,1.4355,1.4476,1.4689,1.4983,1.5277,1.5504,1.5658,1.5778,1.5825,1.573,1.5153,1.4867,1.4771,1.428,1.4088,1.4082,1.4184,1.4088,1.4178,1.3794,1.4082,1.3986,1.389,1.4082,1.4184,1.4478,1.4867,1.5064,1.535,1.573,1.5635,1.5057,1.535,1.5153,1.4567,1.4088,1.3499,1.2727,1.2047,1.1468,1.1179,1.0984,1.0694,1.0694,1.0699,1.0699,1.0694,1.0596,1.0306,1.0207,1.0015,0.9821,0.9624,0.9624,0.9624,0.9624,0.9624,0.9624,0.9624,0.9624,0.9624,0.9624,0.9624,0.9624,0.9624,0.9624,0.9624,0.9624,0.9624,0.9624,0.9624,0.9624,0.9624,0.9624,0.9624,0.9624,0.9624,0.9624,0.9624,0.9624,0.9624,0.9624,0.9624,0.9624,0.9624,0.9624,0.9624,0.9624,0.9624,0.9624,0.9624,0.9624,0.9624,0.9624,0.9624,0.9624,0.9624,0.9624,0.9624,0.9624,0.9624,0.9624,0.9624,0.9624,0.9624,0.9624,0.9624,0.9624,0.9624,0.9624,0.9624,0.9624,0.9624,0.9624,1.4088,1.4115,1.4376,1.4629,1.4943,1.5184,1.5311,1.5398,1.5645,1.5805,1.5818,1.5825,1.5635,1.5534,1.5343,1.5439,1.5343,1.5248,1.5248,1.573,1.5343,1.5343,1.5343,1.573,1.5248,1.5534,1.573,1.554,1.573,1.5825,1.5825,1.5825,1.573,1.573,1.5635,1.5534,1.5248,1.4956,1.3986,1.3113,1.2829,1.2732,1.2732,1.2538,1.2538,1.2538,1.2538,1.2436,1.2339,1.1658,1.117,1.0788,1.0502,1.0207,1.0113,1.0113,1.0306,1.0113,1.0109,1.001,0.9821,0.9723,0.9624,0.9624,0.9624,0.9624,0.9624,0.9624,0.9624,0.9624,0.9624,0.9624,0.9624,0.9624,0.9624,0.9624,0.9624,0.9624,0.9624,0.9624,0.9624,0.9624,0.9624,0.9624,0.9624,0.9624,0.9624,0.9624,0.9624,0.9624,0.9624,0.9624,0.9624,0.9624,0.9624,0.9624,0.9624,0.9624,0.9624,0.9624,0.9624,0.9624,0.9624,0.9624,0.9624,0.9624,0.9624,0.9624,0.9624,0.9624,0.9624,0.9624,0.9624,0.9624,0.9624,1.4088,1.4088,1.4162,1.4355,1.4616,1.4696,1.487,1.509,1.5378,1.5618,1.5792,1.5825,1.5825,1.5825,1.5825,1.5825,1.5825,1.5825,1.5825,1.5825,1.5825,1.5825,1.5825,1.5825,1.5825,1.5825,1.5825,1.5825,1.5825,1.5825,1.5825,1.5825,1.5825,1.5825,1.5825,1.5825,1.573,1.573,1.5242,1.4376,1.3902,1.3119,1.2732,1.2829,1.2829,1.2926,1.2926,1.2829,1.263,1.2339,1.2339,1.2145,1.2052,1.1955,1.1955,1.1955,1.1663,1.1375,1.0984,1.0783,1.0498,1.0015,0.9723,0.9624,0.9624,0.9624,0.9624,0.9624,0.9624,0.9624,0.9624,0.9624,0.9624,0.9624,0.9624,0.9624,0.9624,0.9624,0.9624,0.9624,0.9624,0.9624,0.9624,0.9624,0.9624,0.9624,0.9624,0.9624,0.9624,0.9624,0.9624,0.9624,0.9723,0.9723,0.9624,0.9821,0.9817,0.9723,0.9624,0.9624,0.9624,0.9624,0.9624,0.9624,0.9624,0.9624,0.9624,0.9624,0.9624,0.9624,0.9624,0.9624,0.9624,0.9624,0.9624,1.4166,1.4088,1.4088,1.4182,1.4329,1.4462,1.4616,1.4803,1.5084,1.5364,1.5645,1.5758,1.5825,1.5825,1.5825,1.5825,1.5825,1.5825,1.5825,1.5825,1.5825,1.5825,1.5825,1.5825,1.5825,1.5825,1.5825,1.5825,1.5825,1.5825,1.5825,1.5825,1.5825,1.5825,1.5825,1.5825,1.5825,1.5825,1.5825,1.5445,1.4873,1.4376,1.4082,1.4082,1.4082,1.3986,1.4088,1.3992,1.38,1.3312,1.292,1.263,1.2538,1.2538,1.2635,1.2635,1.2538,1.2436,1.2047,1.1755,1.1565,1.0984,1.089,1.1179,1.1277,1.1179,1.0404,1.0306,0.9723,0.9624,0.9624,0.9624,0.9624,0.9624,0.9624,0.9624,0.9624,0.9624,0.9624,0.9624,0.9624,0.9624,0.9624,0.9624,0.9624,0.9624,0.9624,0.9624,0.9624,0.9624,0.9624,0.992,1.0113,0.9821,0.9628,0.9916,1.0207,1.0015,0.9821,0.9723,0.9821,0.9624,0.9624,0.9821,0.992,0.9624,0.9624,0.9821,0.9624,0.9624,0.9624,0.9624,0.9624,0.9624,0.9624,1.4321,1.4166,1.4166,1.4088,1.4122,1.4349,1.4462,1.4516,1.4783,1.5037,1.5297,1.5611,1.5765,1.5825,1.5825,1.5825,1.5825,1.5825,1.5825,1.5825,1.5825,1.5825,1.5825,1.5825,1.5825,1.5825,1.5825,1.5825,1.5825,1.5825,1.5825,1.5825,1.5825,1.5825,1.5825,1.5825,1.5825,1.5825,1.5825,1.5825,1.573,1.5825,1.5635,1.5635,1.5825,1.5825,1.5832,1.5642,1.5159,1.4669,1.389,1.3698,1.3499,1.3596,1.3505,1.3505,1.3601,1.3312,1.3017,1.2926,1.2732,1.263,1.2732,1.2727,1.263,1.2242,1.1468,1.0886,1.0306,0.9916,0.9916,0.9723,0.9723,0.9723,0.9723,0.9723,0.9723,0.9723,0.9723,0.9723,0.9723,0.9723,0.9624,0.9624,0.9624,0.9624,0.9624,0.9624,0.9624,0.9723,0.9817,1.0404,1.0984,1.06,1.0015,1.0502,1.1082,1.0984,1.089,1.0306,1.0113,1.06,1.0694,1.0404,1.0306,1.0404,1.0306,1.0404,1.0113,0.9916,0.9628,0.9628,0.9624,0.9624,0.9624,1.4482,1.4314,1.4314,1.4243,1.4186,1.4155,1.4175,1.4215,1.4482,1.4649,1.4843,1.5264,1.5591,1.5825,1.5825,1.5825,1.5825,1.5825,1.5825,1.5825,1.5825,1.5825,1.5825,1.5825,1.5825,1.5825,1.5825,1.5825,1.5825,1.5825,1.5825,1.5825,1.5825,1.5825,1.5825,1.5825,1.5825,1.5825,1.5825,1.5825,1.5825,1.5825,1.5825,1.5825,1.5825,1.5825,1.5825,1.5825,1.5635,1.5439,1.5248,1.5051,1.486,1.4758,1.4758,1.4663,1.4758,1.4478,1.419,1.3998,1.38,1.3216,1.3216,1.3119,1.3119,1.3017,1.2533,1.2344,1.176,1.1082,1.0886,1.0212,1.0019,1.0015,1.0015,1.0015,1.0015,1.0015,0.9916,0.9916,0.992,0.992,0.9821,0.9817,0.9916,0.9916,0.9817,0.9817,0.9628,0.9723,1.0015,1.0792,1.1663,1.1565,1.1175,1.176,1.2247,1.215,1.1858,1.1473,1.1473,1.2052,1.2052,1.1473,1.1668,1.1955,1.1663,1.1082,1.1082,1.0788,1.0015,0.9628,0.9723,1.0015,1.0306]},{"header":{"parameterUnit":"m.s-1","parameterCategory":1,"la1":31.0,"la2":29.5877,"lo1":-88.7671,"lo2":-86.6584,"dy":0.0162,"dx":0.0185,"nx":115,"ny":88,"refTime":"2023-07-28T06:00:00:Z","depth":0,"parameterNumber":3,"parameterNumberName":"V-component_of_WINDS"},"data":[0.0,0.0,0.0,0.0,0.0,0.0,0.0,0.0,0.0,0.0,0.0,0.0,0.0,0.0,0.0,0.0,0.0,0.0,0.0,0.0,0.0,0.0,0.0,0.0,0.0,0.0,0.0,0.0,0.0,0.0,0.0,0.0,0.0,0.0,0.0,0.0,0.0,0.0,0.0,0.0,0.0,0.0,0.0,0.0,0.0,0.0,0.0,0.0,0.0,0.0,0.0,0.0,0.0,0.0,0.0,0.0,0.0,0.0,0.0,0.0,0.0,0.0,0.0,0.0,0.0,0.0,0.0,0.0,0.0,0.0,0.0,0.0,0.0,0.0,0.0,0.0,0.0,0.0,0.0,0.0,0.0,0.0,0.0,0.0,0.0,0.0,0.0,0.0,0.0,0.0,0.0,0.0,0.0,0.0,0.0,0.0,0.0,0.0,0.0,0.0,0.0,0.0,0.0,0.0,0.0,0.0,0.0,0.0,0.0,0.0,0.0,0.0,0.0,0.0,0.0,0.0,0.0,0.0,0.0,0.0,0.0,0.0,0.0,0.0,0.0,0.0,0.0,0.0,0.0,0.0,0.0,0.0,0.0,0.0,0.0,0.0,0.0,0.0,0.0,0.0,0.0,0.0,0.0,0.0,0.0,0.0,0.0,0.0,0.0,0.0,0.0,0.0,0.0,0.0,0.0,0.0,0.0,0.0,0.0,0.0,0.0,0.0,0.0,0.0,0.0,0.0,0.0,0.0,0.0,0.0,0.0,0.0,0.0,0.0,0.0,0.0,0.0,0.0,0.0,0.0,0.0,0.0,0.0,0.0,0.0,0.0,0.0,0.0,0.0,0.0,0.0,0.0,0.0,0.0,0.0,0.0,0.0,0.0,0.0,0.0,0.0,0.0,0.0,0.0,0.0,0.0,0.0,0.0,0.0,0.0,0.0,0.0,0.0,0.0,0.0,0.0,0.0,0.0,0.0,0.0,0.0,0.0,0.0,0.0,0.0,0.0,0.0,0.0,0.0,0.0,0.0,0.0,0.0,0.0,0.0,0.0,0.0,0.0,0.0,0.0,0.0,0.0,0.0,0.0,0.0,0.0,0.0,0.0,0.0,0.0,0.0,0.0,0.0,0.0,0.0,0.0,0.0,0.0,0.0,0.0,0.0,0.0,0.0,0.0,0.0,0.0,0.0,0.0,0.0,0.0,0.0,0.0,0.0,0.0,0.0,0.0,0.0,0.0,0.0,0.0,0.0,0.0,0.0,0.0,0.0,0.0,0.0,0.0,0.0,0.0,0.0,0.0,0.0,0.0,0.0,0.0,0.0,0.0,0.0,0.0,0.0,0.0,0.0,0.0,0.0,0.0,0.0,0.0,0.0,0.0,0.0,0.0,0.0,0.0,0.0,0.0,0.0,0.0,0.0,0.0,0.0,0.0,0.0,0.0,0.0,0.0,0.0,0.0,0.0,0.0,0.0,0.0,0.0,0.0,0.0,0.0,0.0,0.0,0.0,0.0,0.0,0.0,0.0,0.0,0.0,0.0,0.0,0.0,0.0,0.0,0.0,0.0,0.0,0.0,0.0,0.0,0.0,0.0,0.0,0.0,0.0,0.0,0.0,0.0,0.0,0.0,0.0,0.0,0.0,0.0,0.0,0.0,0.0,0.0,0.0,0.0,0.0,0.0,0.0,0.0,0.0,0.0,0.0,0.0,0.0,0.0,0.0,0.0,0.0,0.0,0.0,0.0,0.0,0.0,0.0,0.0,0.0,0.0,0.0,0.0,0.0,0.0,0.0,0.0,0.0,0.0,0.0,0.0,0.0,0.0,0.0,0.0,0.0,0.0,0.0,0.0,0.0,0.0,0.0,0.0,0.0,0.0,0.0,0.0,0.0,0.0,0.0,0.0,0.0,0.0,0.0,0.0,0.0,0.0,0.0,0.0,0.0,0.0,0.0,0.0,0.0,0.0,0.0,0.0,0.0,0.0,0.0,0.0,0.0,0.0,0.0,0.0,0.0,0.0,0.0,0.0,0.0,0.0,0.0,0.0,0.0,0.0,0.0,0.0,0.0,0.0,0.0,0.0,0.0,0.0,0.0,0.0,0.0,0.0,0.0,0.0,0.0,0.0,0.0,0.0,0.0,0.0,0.0,0.0,0.0,0.0,0.0,0.0,0.0,0.0,0.0,0.0,0.0,0.0,0.0,0.0,0.0,0.0,0.0,0.0,0.0,0.0,0.0,0.0,0.0,0.0,0.0,0.0,0.0,0.0,0.0,0.0,0.0,0.0,0.0,0.0,0.0,0.0,0.0,0.0,0.0,0.0,0.0,0.0,0.0,0.0,0.0,0.0,0.0,0.0,0.0,0.0,0.0,0.0,0.0,0.0,0.0,0.0,0.0,0.0,0.0,0.0,0.0,0.0,0.0,0.0,0.0,0.0,0.0,0.0,0.0,0.0,0.0,0.0,0.0,0.0,0.0,0.0,0.0,0.0,0.0,0.0,0.0,0.0,0.0,0.0,0.0,0.0,0.0,0.0,0.0,0.0,0.0,0.0,0.0,0.0,0.0,0.0,0.0,0.0,0.0,0.0,0.0,0.0,0.0,0.0,0.0,0.0,0.0,0.0,0.0,0.0,0.0,0.0,0.0,0.0,0.0,0.0,0.0,0.0,0.0,0.0,0.0,0.0,0.0,0.0,0.0,0.0,0.0,0.0,0.0,0.0,0.0,0.0,0.0,0.0,0.0,0.0,0.0,0.0,0.0,0.0,0.0,0.0,0.0,0.0,0.0,0.0,0.0,0.0,0.0,0.0,0.0,0.0,0.0,0.0,0.0,0.0,0.0,0.0,0.0,0.0,0.0,0.0,0.0,0.0,0.0,0.0,0.0,0.0,0.0,0.0,0.0,0.0,0.0,0.0,0.0,0.0,0.0,0.0,0.0,0.0,0.0,0.0,0.0,0.0,0.0,0.0,0.0,0.0,0.0,0.0,0.0,0.0,0.0,0.0,0.0,0.0,0.0,0.0,0.0,0.0,0.0,0.0,0.0,0.0,0.0,0.0,0.0,0.0,0.0,0.0,0.0,0.0,0.0,0.0,0.0,0.0,0.0,0.0,0.0,0.0,0.0,0.0,0.0,0.0,0.0,0.0,0.0,0.0,0.0,0.0,0.0,0.0,0.0,0.0,0.0,0.0,0.0,0.0,0.0,0.0,0.0,0.0,0.0,0.0,0.0,0.0,0.0,0.0,0.0,0.0,0.0,0.0,0.0,0.0,0.0,0.0,0.0,0.0,0.0,0.0,0.0,0.0,0.0,0.0,0.0,0.0,0.0,0.0,0.0,0.0,0.0,0.0,0.0,0.0,0.0,0.0,0.0,0.0,0.0,0.0,0.0,0.0,0.0,0.0,0.0,0.0,0.0,0.0,0.0,0.0,0.0,0.0,0.0,0.0,0.0,0.0,0.0,0.0,0.0,0.0,0.0,0.0,0.0,0.0,0.0,0.0,0.0,0.0,0.0,0.0,0.0,0.0,0.0,0.0,0.0,0.0,0.0,0.0,0.0,0.0,0.0,0.0,0.0,0.0,0.0,0.0,0.0,0.0,0.0,0.0,0.0,0.0,0.0,0.0,0.0,0.0,0.0,0.0,0.0,0.0,0.0,0.0,0.0,0.0,0.0,0.0,0.0,0.0,0.0,0.0,0.0,0.0,0.0,0.0,0.0,0.0,0.0,0.0,0.0,0.0,0.0,0.0,0.0,0.0,0.0,0.0,0.0,0.0,0.0,0.0,0.0,0.0,0.0,0.0,0.0,0.0,0.0,0.0,0.0,0.0,0.0,0.0,0.0,0.0,0.0,0.0,0.0,0.0,0.0,0.0,0.0,0.0,0.0,0.0,0.0,0.0,0.0,0.0,0.0,0.0,0.0,0.0,0.0,0.0,0.0,0.0,0.0,0.0,0.0,0.0,0.0,0.0,0.0,0.0,0.0,0.0,0.0,0.0,0.0,0.0,0.0,0.0,0.0,0.0,0.0,0.0,0.0,0.0,0.0,0.0,0.0,0.0,0.0,0.0,0.0,0.0,0.0,0.0,0.0,0.0,0.0,0.0,0.0,0.0,0.0,0.0,0.0,0.0,0.0,0.0,0.0,0.0,0.0,0.0,0.0,0.0,0.0,0.0,0.0,0.0,0.0,0.0,0.0,0.0,0.0,0.0,0.0,0.0,0.0,0.0,0.0,0.0,0.0,0.0,0.0,0.0,0.0,0.0,0.0,0.0,-1.6277,0.0,0.0,0.0,-1.6914,0.0,0.0,0.0,0.0,0.0,0.0,0.0,0.0,0.0,0.0,0.0,0.0,0.0,0.0,0.0,0.0,0.0,0.0,0.0,0.0,0.0,0.0,0.0,0.0,0.0,0.0,0.0,0.0,0.0,0.0,0.0,0.0,0.0,0.0,0.0,0.0,0.0,0.0,0.0,0.0,0.0,0.0,0.0,0.0,0.0,0.0,0.0,0.0,0.0,0.0,0.0,0.0,0.0,0.0,0.0,0.0,0.0,0.0,0.0,0.0,0.0,0.0,0.0,0.0,0.0,0.0,0.0,0.0,0.0,0.0,0.0,0.0,0.0,0.0,0.0,0.0,0.0,0.0,0.0,0.0,0.0,0.0,0.0,0.0,0.0,0.0,0.0,0.0,0.0,0.0,0.0,0.0,0.0,0.0,0.0,0.0,0.0,0.0,0.0,0.0,0.0,0.0,0.0,0.0,0.0,0.0,0.0,0.0,0.0,0.0,-1.7359,-1.7335,-1.8433,-1.8664,-1.7909,0.0,0.0,0.0,0.0,0.0,0.0,0.0,0.0,0.0,0.0,0.0,0.0,0.0,0.0,0.0,0.0,0.0,0.0,0.0,0.0,0.0,0.0,0.0,0.0,0.0,0.0,0.0,0.0,0.0,0.0,0.0,0.0,0.0,0.0,0.0,0.0,0.0,0.0,0.0,0.0,0.0,0.0,0.0,0.0,0.0,0.0,0.0,0.0,0.0,0.0,0.0,0.0,0.0,0.0,0.0,0.0,0.0,0.0,0.0,0.0,0.0,0.0,0.0,0.0,0.0,0.0,0.0,0.0,0.0,0.0,0.0,0.0,0.0,0.0,0.0,0.0,0.0,0.0,0.0,0.0,0.0,0.0,0.0,0.0,0.0,0.0,0.0,0.0,0.0,0.0,0.0,0.0,0.0,0.0,0.0,0.0,0.0,0.0,0.0,0.0,0.0,0.0,0.0,0.0,0.0,0.0,0.0,0.0,0.0,0.0,0.0,0.0,-1.9701,-1.9929,-1.9315,0.0,0.0,0.0,0.0,0.0,0.0,0.0,0.0,0.0,0.0,0.0,0.0,0.0,0.0,0.0,0.0,0.0,0.0,0.0,0.0,0.0,0.0,0.0,0.0,0.0,0.0,0.0,0.0,0.0,0.0,0.0,0.0,0.0,0.0,0.0,0.0,0.0,0.0,0.0,0.0,0.0,0.0,0.0,0.0,0.0,0.0,0.0,0.0,0.0,0.0,0.0,0.0,0.0,0.0,0.0,0.0,0.0,0.0,0.0,0.0,0.0,0.0,0.0,0.0,0.0,0.0,0.0,0.0,0.0,0.0,0.0,0.0,0.0,0.0,0.0,0.0,0.0,0.0,0.0,0.0,0.0,0.0,0.0,0.0,0.0,0.0,0.0,0.0,0.0,0.0,0.0,0.0,0.0,0.0,0.0,0.0,0.0,0.0,0.0,0.0,0.0,0.0,0.0,0.0,0.0,0.0,0.0,0.0,0.0,0.0,-1.9523,-1.9981,-2.0453,0.0,-2.0845,0.0,0.0,0.0,0.0,0.0,0.0,0.0,0.0,0.0,0.0,0.0,0.0,0.0,0.0,0.0,0.0,0.0,0.0,0.0,0.0,0.0,0.0,0.0,0.0,0.0,0.0,0.0,0.0,0.0,0.0,0.0,0.0,0.0,0.0,0.0,0.0,0.0,0.0,0.0,0.0,0.0,0.0,0.0,0.0,0.0,0.0,0.0,0.0,0.0,0.0,0.0,0.0,0.0,0.0,0.0,0.0,0.0,0.0,0.0,0.0,0.0,0.0,0.0,0.0,0.0,0.0,0.0,0.0,0.0,0.0,0.0,0.0,0.0,0.0,0.0,0.0,0.0,0.0,0.0,0.0,0.0,0.0,0.0,0.0,0.0,0.0,0.0,0.0,0.0,0.0,0.0,0.0,0.0,0.0,0.0,0.0,0.0,0.0,0.0,0.0,0.0,0.0,0.0,0.0,0.0,0.0,0.0,0.0,0.0,0.0,-2.0335,-2.129,-2.1471,-2.1645,0.0,0.0,0.0,0.0,0.0,0.0,0.0,0.0,0.0,0.0,0.0,0.0,0.0,0.0,0.0,0.0,0.0,0.0,0.0,0.0,0.0,0.0,0.0,0.0,0.0,0.0,0.0,0.0,0.0,0.0,0.0,0.0,0.0,0.0,0.0,0.0,0.0,0.0,0.0,0.0,0.0,0.0,0.0,0.0,0.0,0.0,0.0,0.0,0.0,0.0,0.0,0.0,0.0,0.0,0.0,0.0,0.0,0.0,0.0,0.0,0.0,0.0,0.0,0.0,0.0,0.0,0.0,0.0,0.0,0.0,0.0,0.0,0.0,0.0,0.0,0.0,0.0,0.0,0.0,0.0,0.0,0.0,0.0,0.0,0.0,0.0,0.0,0.0,0.0,0.0,0.0,0.0,0.0,0.0,0.0,0.0,0.0,0.0,0.0,0.0,0.0,0.0,0.0,0.0,0.0,0.0,0.0,0.0,0.0,0.0,-2.1312,-2.183,-2.3097,-2.2748,-2.2597,-2.2881,0.0,0.0,0.0,0.0,0.0,0.0,0.0,0.0,0.0,0.0,0.0,0.0,0.0,0.0,0.0,0.0,0.0,0.0,0.0,0.0,0.0,0.0,0.0,0.0,0.0,0.0,0.0,0.0,0.0,0.0,0.0,0.0,0.0,0.0,0.0,0.0,0.0,0.0,0.0,0.0,0.0,0.0,0.0,0.0,0.0,0.0,0.0,0.0,0.0,0.0,0.0,0.0,0.0,0.0,0.0,0.0,0.0,0.0,0.0,0.0,0.0,0.0,0.0,0.0,0.0,0.0,0.0,0.0,0.0,0.0,0.0,0.0,0.0,0.0,0.0,0.0,0.0,0.0,0.0,0.0,0.0,0.0,0.0,0.0,0.0,0.0,0.0,0.0,0.0,0.0,0.0,0.0,0.0,0.0,0.0,0.0,0.0,0.0,0.0,0.0,0.0,0.0,0.0,0.0,0.0,0.0,0.0,0.0,-2.3612,-2.3688,-2.4428,-2.5786,-2.4324,-2.3717,0.0,0.0,0.0,0.0,0.0,0.0,0.0,0.0,0.0,0.0,0.0,0.0,0.0,0.0,0.0,0.0,0.0,0.0,0.0,0.0,0.0,0.0,0.0,0.0,0.0,0.0,0.0,0.0,0.0,0.0,0.0,0.0,0.0,0.0,0.0,0.0,0.0,0.0,0.0,0.0,0.0,0.0,0.0,0.0,0.0,0.0,0.0,0.0,0.0,0.0,0.0,0.0,0.0,0.0,0.0,0.0,0.0,0.0,0.0,0.0,0.0,0.0,0.0,0.0,0.0,0.0,0.0,0.0,0.0,0.0,0.0,0.0,0.0,0.0,0.0,0.0,0.0,0.0,0.0,0.0,0.0,0.0,0.0,0.0,0.0,0.0,0.0,0.0,0.0,0.0,0.0,0.0,0.0,0.0,0.0,0.0,0.0,0.0,0.0,0.0,0.0,0.0,0.0,0.0,0.0,0.0,0.0,0.0,0.0,-2.2686,-2.4456,-2.5744,-2.6317,-2.5921,-2.5843,0.0,0.0,0.0,0.0,0.0,0.0,0.0,0.0,0.0,0.0,0.0,0.0,0.0,0.0,0.0,0.0,0.0,0.0,0.0,0.0,0.0,0.0,0.0,0.0,0.0,0.0,0.0,0.0,0.0,0.0,0.0,0.0,0.0,0.0,0.0,0.0,0.0,0.0,0.0,0.0,0.0,0.0,0.0,0.0,0.0,0.0,0.0,0.0,0.0,0.0,0.0,0.0,0.0,0.0,0.0,0.0,0.0,0.0,0.0,0.0,0.0,0.0,0.0,0.0,0.0,0.0,0.0,0.0,0.0,0.0,0.0,0.0,0.0,0.0,0.0,0.0,0.0,0.0,0.0,0.0,0.0,0.0,0.0,0.0,0.0,0.0,0.0,0.0,0.0,0.0,0.0,0.0,0.0,0.0,0.0,0.0,0.0,0.0,0.0,0.0,0.0,0.0,0.0,0.0,0.0,0.0,0.0,0.0,0.0,-2.41,0.0,-2.7853,-2.8104,-2.7661,-2.7458,0.0,0.0,0.0,0.0,0.0,0.0,0.0,0.0,0.0,0.0,0.0,0.0,0.0,0.0,0.0,0.0,0.0,0.0,0.0,0.0,0.0,0.0,0.0,0.0,0.0,0.0,0.0,0.0,0.0,0.0,0.0,0.0,0.0,0.0,0.0,0.0,0.0,0.0,0.0,0.0,0.0,0.0,0.0,0.0,0.0,0.0,0.0,0.0,0.0,0.0,0.0,0.0,0.0,0.0,0.0,0.0,0.0,0.0,0.0,0.0,0.0,0.0,0.0,0.0,0.0,0.0,0.0,0.0,0.0,0.0,0.0,0.0,0.0,0.0,0.0,0.0,0.0,0.0,0.0,0.0,0.0,0.0,0.0,0.0,0.0,0.0,0.0,0.0,0.0,0.0,0.0,0.0,0.0,0.0,0.0,0.0,0.0,0.0,0.0,0.0,0.0,0.0,0.0,0.0,0.0,0.0,0.0,0.0,-2.4678,-2.8258,-2.9903,-3.0876,-3.14,-2.9598,-2.853,0.0,0.0,0.0,0.0,0.0,0.0,0.0,0.0,0.0,0.0,0.0,0.0,0.0,0.0,0.0,0.0,0.0,0.0,0.0,0.0,0.0,0.0,0.0,0.0,0.0,0.0,0.0,0.0,0.0,0.0,0.0,0.0,0.0,0.0,0.0,0.0,0.0,0.0,0.0,0.0,0.0,0.0,0.0,0.0,0.0,0.0,0.0,0.0,0.0,0.0,0.0,0.0,0.0,0.0,0.0,0.0,0.0,0.0,0.0,0.0,0.0,0.0,0.0,0.0,0.0,0.0,0.0,0.0,0.0,0.0,0.0,0.0,0.0,0.0,0.0,0.0,0.0,0.0,0.0,0.0,0.0,0.0,0.0,0.0,0.0,0.0,0.0,0.0,0.0,0.0,0.0,0.0,0.0,0.0,0.0,0.0,0.0,0.0,0.0,0.0,0.0,0.0,0.0,0.0,0.0,0.0,0.0,0.0,0.0,-2.7776,-3.0011,-3.1549,-3.2198,-3.0884,-3.0215,0.0,0.0,0.0,0.0,0.0,0.0,0.0,0.0,0.0,0.0,0.0,0.0,0.0,0.0,0.0,0.0,0.0,0.0,0.0,0.0,0.0,0.0,0.0,0.0,0.0,0.0,0.0,0.0,0.0,0.0,0.0,0.0,0.0,0.0,0.0,0.0,0.0,0.0,0.0,0.0,0.0,0.0,0.0,0.0,0.0,0.0,0.0,0.0,0.0,0.0,0.0,0.0,0.0,0.0,0.0,0.0,0.0,0.0,0.0,0.0,0.0,0.0,0.0,0.0,0.0,0.0,0.0,0.0,0.0,0.0,0.0,0.0,0.0,0.0,0.0,0.0,0.0,0.0,0.0,0.0,0.0,0.0,0.0,0.0,0.0,0.0,0.0,0.0,0.0,0.0,0.0,0.0,0.0,0.0,0.0,0.0,0.0,0.0,0.0,0.0,0.0,0.0,0.0,0.0,0.0,0.0,0.0,0.0,0.0,-2.9664,-3.161,-3.2944,-3.3492,-3.2137,-3.1453,-3.1533,0.0,0.0,0.0,0.0,0.0,0.0,0.0,0.0,0.0,0.0,0.0,0.0,0.0,0.0,0.0,0.0,0.0,0.0,0.0,0.0,0.0,0.0,0.0,0.0,0.0,0.0,0.0,0.0,0.0,0.0,0.0,0.0,0.0,0.0,0.0,0.0,0.0,0.0,0.0,0.0,0.0,0.0,0.0,0.0,0.0,0.0,0.0,0.0,0.0,0.0,0.0,0.0,0.0,0.0,0.0,0.0,0.0,0.0,0.0,0.0,0.0,0.0,0.0,0.0,0.0,0.0,0.0,0.0,0.0,0.0,0.0,0.0,0.0,0.0,0.0,0.0,0.0,0.0,0.0,0.0,0.0,0.0,0.0,0.0,0.0,0.0,0.0,0.0,0.0,0.0,0.0,0.0,0.0,0.0,0.0,0.0,0.0,0.0,0.0,0.0,0.0,0.0,0.0,0.0,0.0,0.0,0.0,0.0,-3.3198,-3.4294,-3.486,-3.4971,-3.3314,-3.2288,0.0,0.0,0.0,0.0,0.0,0.0,0.0,0.0,0.0,0.0,0.0,0.0,0.0,0.0,0.0,0.0,0.0,0.0,0.0,0.0,0.0,0.0,0.0,0.0,0.0,0.0,0.0,0.0,0.0,0.0,0.0,0.0,0.0,0.0,0.0,0.0,0.0,0.0,0.0,0.0,0.0,0.0,0.0,0.0,0.0,0.0,0.0,0.0,0.0,0.0,0.0,0.0,0.0,0.0,0.0,0.0,0.0,0.0,0.0,0.0,0.0,0.0,0.0,0.0,0.0,0.0,0.0,0.0,0.0,0.0,0.0,0.0,0.0,0.0,0.0,0.0,0.0,0.0,0.0,0.0,0.0,0.0,0.0,0.0,0.0,0.0,0.0,0.0,0.0,0.0,0.0,0.0,0.0,0.0,0.0,0.0,0.0,0.0,0.0,0.0,0.0,0.0,0.0,0.0,0.0,0.0,0.0,0.0,0.0,-3.364,-3.4745,-3.5343,-3.5339,-3.3735,-3.2793,0.0,0.0,0.0,0.0,0.0,0.0,0.0,0.0,0.0,0.0,0.0,0.0,0.0,0.0,0.0,0.0,0.0,0.0,0.0,0.0,0.0,0.0,0.0,0.0,0.0,0.0,0.0,0.0,0.0,0.0,0.0,0.0,0.0,0.0,0.0,0.0,0.0,0.0,0.0,0.0,0.0,0.0,0.0,0.0,0.0,0.0,0.0,0.0,0.0,0.0,0.0,0.0,0.0,0.0,0.0,0.0,0.0,0.0,0.0,0.0,0.0,0.0,0.0,0.0,0.0,0.0,0.0,0.0,0.0,0.0,0.0,0.0,0.0,0.0,0.0,0.0,0.0,0.0,0.0,0.0,0.0,0.0,0.0,0.0,0.0,0.0,0.0,0.0,0.0,0.0,0.0,0.0,0.0,0.0,0.0,0.0,0.0,0.0,0.0,0.0,0.0,0.0,0.0,0.0,0.0,0.0,0.0,0.0,-3.1627,-3.4337,-3.4836,-3.5156,-3.5288,-3.4119,-3.3328,0.0,0.0,0.0,0.0,0.0,0.0,0.0,0.0,0.0,0.0,0.0,0.0,0.0,0.0,0.0,0.0,0.0,0.0,0.0,0.0,0.0,0.0,0.0,0.0,0.0,0.0,0.0,0.0,0.0,0.0,0.0,0.0,0.0,0.0,0.0,0.0,0.0,0.0,0.0,0.0,0.0,0.0,0.0,0.0,0.0,0.0,0.0,0.0,0.0,0.0,0.0,0.0,0.0,0.0,0.0,0.0,0.0,0.0,0.0,0.0,0.0,0.0,0.0,0.0,0.0,0.0,0.0,0.0,0.0,0.0,0.0,0.0,0.0,0.0,0.0,0.0,0.0,0.0,0.0,0.0,0.0,0.0,0.0,0.0,0.0,0.0,0.0,0.0,0.0,0.0,0.0,0.0,0.0,0.0,0.0,0.0,0.0,0.0,0.0,0.0,0.0,0.0,0.0,0.0,0.0,0.0,0.0,0.0,-3.154,-3.4974,-3.4691,-3.4623,-3.4933,-3.445,-3.377,0.0,0.0,0.0,0.0,0.0,0.0,0.0,0.0,0.0,0.0,0.0,0.0,0.0,0.0,0.0,0.0,0.0,0.0,0.0,0.0,0.0,0.0,0.0,0.0,0.0,0.0,0.0,0.0,0.0,0.0,0.0,0.0,0.0,0.0,0.0,0.0,0.0,0.0,0.0,0.0,0.0,0.0,0.0,0.0,0.0,0.0,0.0,0.0,0.0,0.0,0.0,0.0,0.0,0.0,0.0,0.0,0.0,0.0,0.0,0.0,0.0,0.0,0.0,0.0,0.0,0.0,0.0,0.0,0.0,0.0,0.0,0.0,0.0,0.0,0.0,0.0,0.0,0.0,0.0,0.0,0.0,0.0,0.0,0.0,0.0,0.0,0.0,0.0,0.0,0.0,0.0,0.0,0.0,0.0,0.0,0.0,0.0,0.0,0.0,0.0,0.0,0.0,0.0,0.0,0.0,0.0,0.0,0.0,-3.2116,-3.4755,-3.4534,-3.4454,-3.4674,-3.4221,-3.3655,0.0,0.0,0.0,0.0,0.0,0.0,0.0,0.0,0.0,0.0,0.0,0.0,0.0,0.0,0.0,0.0,0.0,0.0,0.0,0.0,0.0,0.0,0.0,0.0,0.0,0.0,0.0,0.0,0.0,0.0,0.0,0.0,0.0,0.0,0.0,0.0,0.0,0.0,0.0,0.0,0.0,0.0,0.0,0.0,0.0,0.0,0.0,0.0,-2.9972,0.0,0.0,0.0,0.0,0.0,0.0,0.0,0.0,0.0,0.0,0.0,0.0,0.0,0.0,0.0,0.0,0.0,0.0,0.0,0.0,0.0,0.0,0.0,0.0,0.0,0.0,0.0,0.0,0.0,0.0,0.0,0.0,0.0,0.0,0.0,0.0,0.0,0.0,0.0,0.0,0.0,0.0,0.0,0.0,0.0,0.0,0.0,0.0,0.0,0.0,0.0,0.0,0.0,0.0,0.0,0.0,0.0,0.0,0.0,-3.2139,-3.4031,-3.3766,-3.3703,-3.3938,-3.405,-3.3708,0.0,0.0,0.0,0.0,0.0,0.0,0.0,0.0,0.0,0.0,0.0,0.0,0.0,0.0,0.0,0.0,0.0,0.0,0.0,0.0,0.0,0.0,0.0,0.0,0.0,0.0,0.0,0.0,0.0,0.0,0.0,0.0,0.0,0.0,0.0,0.0,0.0,0.0,0.0,0.0,0.0,0.0,0.0,0.0,0.0,0.0,0.0,0.0,0.0,0.0,0.0,0.0,0.0,0.0,0.0,0.0,0.0,0.0,0.0,0.0,0.0,0.0,0.0,0.0,0.0,0.0,0.0,0.0,0.0,0.0,0.0,0.0,0.0,0.0,0.0,0.0,0.0,0.0,0.0,0.0,0.0,0.0,0.0,0.0,0.0,0.0,0.0,0.0,0.0,0.0,0.0,0.0,0.0,0.0,0.0,0.0,0.0,0.0,0.0,0.0,0.0,0.0,0.0,0.0,0.0,0.0,0.0,-3.0695,-3.1808,-3.3286,-3.3003,-3.2916,-3.3194,-3.3839,-3.3747,-3.2757,0.0,0.0,0.0,0.0,0.0,0.0,0.0,0.0,0.0,0.0,0.0,0.0,0.0,0.0,0.0,0.0,0.0,0.0,0.0,0.0,0.0,0.0,0.0,0.0,0.0,0.0,0.0,0.0,0.0,0.0,0.0,0.0,0.0,0.0,0.0,0.0,0.0,0.0,-2.5577,-2.7403,0.0,0.0,0.0,0.0,0.0,0.0,0.0,0.0,-3.1593,0.0,0.0,0.0,0.0,0.0,0.0,0.0,0.0,0.0,0.0,0.0,0.0,0.0,0.0,0.0,0.0,0.0,0.0,0.0,0.0,0.0,0.0,0.0,0.0,0.0,0.0,0.0,0.0,0.0,0.0,0.0,0.0,0.0,0.0,0.0,0.0,0.0,0.0,0.0,0.0,0.0,0.0,0.0,0.0,0.0,0.0,0.0,0.0,0.0,0.0,0.0,0.0,0.0,0.0,0.0,0.0,-3.0772,-3.0254,-3.102,-3.3161,-3.2929,-3.2916,-3.3194,-3.3579,-3.3337,-3.239,0.0,0.0,0.0,0.0,0.0,0.0,0.0,0.0,0.0,0.0,0.0,0.0,0.0,0.0,0.0,0.0,0.0,0.0,0.0,0.0,0.0,0.0,0.0,0.0,0.0,0.0,0.0,0.0,0.0,0.0,0.0,0.0,0.0,0.0,0.0,0.0,0.0,0.0,0.0,-2.9763,-3.0695,0.0,0.0,0.0,0.0,0.0,0.0,0.0,0.0,-3.1968,0.0,0.0,0.0,0.0,0.0,0.0,0.0,0.0,0.0,0.0,0.0,0.0,0.0,0.0,0.0,0.0,0.0,0.0,0.0,0.0,0.0,0.0,0.0,0.0,0.0,0.0,0.0,0.0,0.0,0.0,0.0,0.0,0.0,0.0,0.0,0.0,0.0,0.0,0.0,0.0,0.0,0.0,0.0,0.0,0.0,0.0,0.0,0.0,0.0,0.0,0.0,0.0,0.0,0.0,0.0,-3.0048,-3.1121,-3.1962,-3.2542,-3.2666,-3.2684,-3.2595,-3.3237,-3.3015,0.0,0.0,0.0,0.0,0.0,0.0,0.0,0.0,0.0,0.0,0.0,0.0,0.0,0.0,0.0,0.0,0.0,0.0,0.0,0.0,0.0,0.0,0.0,0.0,0.0,0.0,0.0,0.0,0.0,0.0,0.0,0.0,0.0,0.0,0.0,0.0,0.0,0.0,0.0,0.0,-3.0944,-3.1755,-3.2491,0.0,0.0,0.0,0.0,0.0,0.0,-3.207,-3.1965,0.0,0.0,0.0,0.0,0.0,0.0,0.0,0.0,0.0,0.0,0.0,0.0,0.0,0.0,0.0,0.0,0.0,0.0,0.0,0.0,0.0,0.0,0.0,0.0,0.0,0.0,0.0,0.0,0.0,0.0,0.0,0.0,0.0,0.0,0.0,0.0,0.0,0.0,0.0,0.0,0.0,0.0,0.0,0.0,0.0,0.0,0.0,0.0,0.0,0.0,0.0,0.0,0.0,0.0,0.0,-2.9511,-3.1657,-3.2601,-3.2144,-3.2454,-3.2437,-3.2144,-3.2952,-3.2776,0.0,0.0,0.0,0.0,0.0,0.0,0.0,0.0,0.0,0.0,0.0,0.0,0.0,0.0,0.0,0.0,0.0,0.0,0.0,0.0,0.0,0.0,0.0,0.0,0.0,0.0,0.0,0.0,0.0,0.0,0.0,0.0,0.0,0.0,0.0,0.0,0.0,0.0,0.0,0.0,0.0,-3.2588,-3.3385,-3.3278,0.0,0.0,0.0,0.0,-3.2237,-3.2258,0.0,0.0,0.0,0.0,0.0,0.0,0.0,0.0,0.0,0.0,0.0,0.0,0.0,0.0,0.0,0.0,0.0,0.0,0.0,0.0,0.0,0.0,0.0,0.0,0.0,0.0,0.0,0.0,0.0,0.0,0.0,0.0,0.0,0.0,0.0,0.0,0.0,0.0,0.0,0.0,0.0,0.0,0.0,0.0,0.0,0.0,0.0,0.0,0.0,0.0,0.0,0.0,0.0,0.0,0.0,0.0,-3.0134,-3.044,-3.1235,-3.2433,-3.2555,-3.2573,-3.2539,-3.2848,-3.2538,0.0,0.0,0.0,0.0,0.0,0.0,0.0,0.0,0.0,0.0,0.0,0.0,0.0,0.0,0.0,0.0,0.0,0.0,0.0,0.0,0.0,0.0,0.0,0.0,0.0,0.0,0.0,0.0,0.0,0.0,0.0,0.0,0.0,0.0,0.0,0.0,0.0,0.0,0.0,0.0,0.0,-3.3478,-3.3197,-3.3123,-3.3094,0.0,0.0,-3.3016,-3.3732,-3.3641,0.0,0.0,0.0,0.0,0.0,0.0,0.0,0.0,0.0,0.0,0.0,0.0,0.0,0.0,0.0,0.0,0.0,0.0,0.0,0.0,0.0,0.0,0.0,0.0,0.0,0.0,0.0,0.0,0.0,0.0,0.0,0.0,0.0,0.0,0.0,0.0,0.0,0.0,0.0,0.0,0.0,0.0,0.0,0.0,0.0,0.0,0.0,0.0,0.0,0.0,0.0,0.0,0.0,0.0,0.0,-2.9853,-3.0155,-3.1355,-3.2148,-3.2419,-3.2672,-3.2672,-3.2438,-3.288,-3.248,0.0,0.0,0.0,0.0,0.0,0.0,0.0,0.0,0.0,0.0,0.0,0.0,0.0,0.0,0.0,0.0,0.0,0.0,0.0,0.0,0.0,0.0,0.0,0.0,0.0,0.0,0.0,0.0,0.0,0.0,0.0,0.0,0.0,0.0,0.0,0.0,0.0,0.0,0.0,0.0,0.0,0.0,-3.4428,-3.3979,0.0,0.0,0.0,-3.323,-3.3096,0.0,0.0,0.0,0.0,0.0,0.0,0.0,0.0,0.0,0.0,0.0,0.0,0.0,0.0,0.0,0.0,0.0,0.0,0.0,0.0,0.0,0.0,0.0,0.0,0.0,0.0,0.0,0.0,0.0,0.0,0.0,0.0,0.0,0.0,0.0,0.0,0.0,0.0,0.0,0.0,0.0,0.0,0.0,0.0,0.0,0.0,0.0,0.0,0.0,0.0,0.0,0.0,0.0,0.0,0.0,0.0,0.0,-3.0294,-3.231,-3.3063,-3.2506,-3.2737,-3.2755,-3.2454,-3.2925,0.0,0.0,0.0,0.0,0.0,0.0,0.0,0.0,0.0,0.0,0.0,0.0,0.0,0.0,0.0,0.0,0.0,0.0,0.0,0.0,0.0,0.0,0.0,0.0,0.0,0.0,0.0,-2.9625,0.0,0.0,0.0,0.0,0.0,0.0,0.0,0.0,0.0,0.0,0.0,0.0,0.0,0.0,-3.453,-3.5046,-3.4497,-3.4057,0.0,0.0,-3.3374,-3.294,-3.3355,-3.3542,0.0,0.0,0.0,0.0,0.0,0.0,0.0,0.0,0.0,0.0,0.0,0.0,0.0,0.0,0.0,0.0,0.0,0.0,0.0,0.0,0.0,0.0,0.0,0.0,0.0,0.0,0.0,0.0,0.0,0.0,0.0,0.0,0.0,0.0,0.0,0.0,0.0,0.0,0.0,0.0,0.0,0.0,0.0,0.0,0.0,0.0,0.0,0.0,0.0,0.0,0.0,0.0,0.0,0.0,-3.1464,-3.1002,-3.243,-3.3099,-3.2866,-3.2866,-3.2884,-3.2884,-3.3068,-3.252,0.0,0.0,0.0,0.0,0.0,0.0,0.0,0.0,0.0,0.0,0.0,0.0,0.0,0.0,0.0,0.0,0.0,0.0,0.0,0.0,0.0,0.0,0.0,0.0,0.0,0.0,0.0,0.0,0.0,0.0,0.0,0.0,0.0,0.0,0.0,0.0,0.0,0.0,0.0,0.0,0.0,-3.4328,-3.4121,-3.4039,-3.4199,0.0,-3.3996,-3.3588,-3.4323,-3.4278,-3.4134,-3.4078,0.0,0.0,0.0,0.0,0.0,0.0,0.0,0.0,0.0,0.0,0.0,0.0,0.0,0.0,0.0,0.0,0.0,0.0,0.0,0.0,0.0,0.0,0.0,0.0,0.0,0.0,0.0,0.0,0.0,0.0,0.0,0.0,0.0,0.0,0.0,0.0,0.0,0.0,0.0,0.0,0.0,0.0,0.0,0.0,0.0,0.0,0.0,0.0,0.0,0.0,0.0,0.0,0.0,-3.1476,-3.1083,-3.2495,-3.3099,-3.2916,-3.2916,-3.2961,-3.3086,-3.3327,-3.303,0.0,0.0,0.0,0.0,0.0,0.0,0.0,0.0,0.0,0.0,0.0,0.0,0.0,0.0,0.0,0.0,0.0,0.0,0.0,0.0,0.0,0.0,0.0,0.0,0.0,0.0,0.0,0.0,-3.2162,-3.2203,-3.1929,0.0,0.0,0.0,0.0,0.0,0.0,0.0,0.0,0.0,0.0,-3.4894,-3.4745,-3.4518,0.0,0.0,-3.4236,-3.3967,-3.4302,-3.4269,-3.4216,-3.4216,-3.474,0.0,0.0,0.0,0.0,0.0,0.0,0.0,0.0,0.0,0.0,0.0,0.0,0.0,0.0,0.0,0.0,0.0,0.0,0.0,0.0,0.0,0.0,0.0,0.0,0.0,0.0,0.0,0.0,0.0,0.0,0.0,0.0,0.0,0.0,0.0,0.0,0.0,0.0,0.0,0.0,0.0,0.0,0.0,0.0,0.0,0.0,0.0,0.0,0.0,0.0,0.0,0.0,-3.1489,-3.1154,-3.2637,-3.3309,-3.3117,-3.3086,-3.3178,-3.3327,-3.3559,-3.3368,0.0,0.0,0.0,0.0,0.0,0.0,0.0,0.0,0.0,0.0,0.0,0.0,0.0,0.0,0.0,0.0,0.0,0.0,0.0,0.0,0.0,0.0,0.0,0.0,0.0,0.0,0.0,0.0,-3.2714,-3.2655,-3.2455,0.0,0.0,0.0,0.0,0.0,0.0,0.0,0.0,0.0,0.0,-3.5239,-3.5122,-3.4733,-3.4476,-3.4495,-3.4426,-3.44,-3.4563,-3.4723,-3.4847,-3.494,0.0,0.0,0.0,0.0,0.0,0.0,0.0,0.0,0.0,0.0,0.0,0.0,0.0,0.0,0.0,0.0,0.0,0.0,0.0,0.0,0.0,0.0,0.0,0.0,0.0,0.0,0.0,-3.1813,0.0,0.0,-3.0696,0.0,0.0,0.0,0.0,0.0,0.0,0.0,0.0,0.0,0.0,0.0,0.0,0.0,0.0,0.0,0.0,0.0,0.0,0.0,0.0,0.0,0.0,-3.1597,-3.1217,-3.2955,-3.378,-3.3577,-3.3577,-3.3559,-3.3587,-3.3807,-3.3526,-3.2716,0.0,0.0,0.0,0.0,0.0,0.0,0.0,0.0,0.0,0.0,0.0,0.0,0.0,0.0,0.0,0.0,0.0,0.0,0.0,0.0,0.0,0.0,0.0,0.0,0.0,0.0,-3.217,-3.2146,-3.2475,0.0,0.0,0.0,0.0,0.0,0.0,0.0,0.0,0.0,-3.5433,-3.5331,-3.5124,-3.4945,-3.4508,-3.4269,-3.4258,-3.4531,-3.4889,-3.5391,-3.589,-3.6371,0.0,0.0,0.0,0.0,0.0,0.0,0.0,0.0,0.0,0.0,0.0,0.0,0.0,0.0,0.0,0.0,0.0,0.0,0.0,0.0,0.0,0.0,0.0,0.0,0.0,0.0,0.0,-3.2769,-3.2694,0.0,0.0,0.0,0.0,0.0,0.0,0.0,0.0,0.0,0.0,0.0,-3.5301,-3.5307,0.0,0.0,0.0,0.0,0.0,0.0,0.0,0.0,0.0,0.0,0.0,0.0,-3.1668,-3.1476,-3.304,-3.3807,-3.3605,-3.3605,-3.3689,-3.3788,-3.3868,-3.366,-3.3131,0.0,0.0,0.0,0.0,0.0,0.0,0.0,0.0,0.0,0.0,0.0,0.0,0.0,0.0,0.0,0.0,0.0,0.0,0.0,0.0,0.0,0.0,0.0,0.0,0.0,-3.3547,0.0,0.0,0.0,0.0,0.0,0.0,0.0,0.0,0.0,0.0,-3.4826,-3.521,-3.5316,-3.5138,-3.5116,-3.5445,-3.5254,-3.5244,0.0,0.0,0.0,0.0,0.0,0.0,0.0,0.0,0.0,0.0,0.0,0.0,0.0,0.0,-3.9697,-3.9697,-3.9739,-3.9766,-3.9766,0.0,0.0,0.0,0.0,0.0,0.0,0.0,0.0,0.0,0.0,0.0,0.0,0.0,0.0,-3.4446,-3.4351,-3.327,0.0,0.0,0.0,0.0,0.0,0.0,0.0,0.0,-3.4513,-3.5184,-3.565,-3.5669,-3.5626,0.0,-3.5782,-3.5082,0.0,0.0,0.0,0.0,0.0,0.0,0.0,0.0,-3.2164,-3.2077,-3.3315,-3.3947,-3.3834,-3.3807,-3.3887,-3.3998,-3.4099,-3.4032,-3.3757,-3.377,-3.3576,0.0,0.0,0.0,0.0,0.0,0.0,0.0,0.0,0.0,0.0,0.0,0.0,0.0,0.0,0.0,0.0,0.0,0.0,0.0,0.0,0.0,0.0,0.0,-3.5248,0.0,0.0,0.0,0.0,0.0,0.0,0.0,0.0,0.0,-3.5244,-3.5635,-3.5888,-3.5662,-3.5665,-3.5871,-3.6164,0.0,0.0,0.0,0.0,0.0,0.0,0.0,-3.746,-3.7541,-3.7968,-3.8302,-3.8302,-3.9156,-3.9797,-3.9797,0.0,0.0,-4.0489,-4.0489,-4.0489,-4.0489,-4.0489,-4.0489,-4.0489,-4.0489,-4.0372,0.0,0.0,0.0,0.0,0.0,0.0,0.0,0.0,-3.7011,-3.6779,0.0,-3.5137,0.0,0.0,0.0,0.0,-3.3336,-3.4082,0.0,0.0,-3.5336,-3.5718,-3.5704,-3.5712,-3.5654,-3.5608,-3.617,-3.587,-3.4908,-3.4055,0.0,0.0,0.0,0.0,0.0,0.0,-3.299,-3.3008,-3.377,-3.4197,-3.4216,-3.4216,-3.4179,-3.4221,-3.4454,-3.4604,-3.4607,-3.4018,-3.3743,-3.3872,-3.2393,0.0,0.0,0.0,0.0,0.0,0.0,0.0,0.0,0.0,0.0,0.0,0.0,0.0,0.0,0.0,0.0,0.0,0.0,0.0,0.0,-3.7168,0.0,0.0,0.0,0.0,0.0,0.0,0.0,0.0,0.0,-3.7719,-3.6892,-3.6757,-3.6665,-3.6453,0.0,0.0,0.0,0.0,-3.6473,-3.6716,-3.6977,-3.7338,-3.7765,-3.8321,-3.8762,-3.898,0.0,0.0,-3.9166,-3.9532,-3.9895,-3.9895,-4.0347,-4.0566,-4.0623,-4.0566,-4.0489,-4.0489,-4.0508,-4.0508,-4.0489,-4.038,-4.0204,-3.7649,0.0,0.0,0.0,0.0,-3.6933,-3.7243,-3.7599,-3.7453,-3.7487,-3.7583,-3.6559,0.0,0.0,0.0,0.0,0.0,0.0,-3.5551,-3.6112,-3.6335,-3.6717,-3.7294,-3.7313,-3.7299,-3.7276,-3.6834,-3.6396,-3.5944,-3.4982,-3.3959,-3.2839,0.0,0.0,0.0,0.0,-3.299,-3.3045,-3.3788,-3.4216,-3.4216,-3.4216,-3.4293,-3.4454,-3.4691,-3.4889,-3.5018,-3.4977,-3.4697,-3.4145,-3.3665,0.0,0.0,0.0,0.0,0.0,0.0,0.0,0.0,0.0,0.0,0.0,0.0,0.0,0.0,0.0,0.0,0.0,0.0,0.0,-3.8131,-3.8088,-3.7754,0.0,0.0,0.0,0.0,0.0,0.0,0.0,0.0,0.0,-3.8584,-3.8007,-3.7479,0.0,0.0,-3.7373,-3.7534,-3.6978,-3.6758,-3.7404,-3.7073,0.0,-3.6994,-3.7172,-3.7543,-3.8135,-3.8711,-3.9369,-4.0188,-4.0561,-4.0981,-4.172,-4.2123,-4.2338,-4.2225,-4.13,-4.0585,-4.0489,-4.0392,-4.0286,-4.0248,-3.968,-3.9009,-3.8525,-3.7642,-3.7443,-3.7362,-3.7368,-3.7678,-3.8077,-3.8461,-3.8665,-3.8857,-3.8911,-3.815,-3.7791,-3.7752,-3.6977,0.0,0.0,0.0,-3.6807,-3.7289,-3.7228,-3.7488,-3.7969,-3.8007,-3.8007,-3.8007,-3.7721,-3.7335,-3.6927,-3.6559,-3.575,-3.4591,0.0,-3.3231,-3.2767,-3.3231,-3.3473,-3.3491,-3.3937,-3.4245,-3.4363,-3.4435,-3.4545,-3.4691,-3.4927,-3.5072,-3.5209,-3.5403,-3.5257,-3.4737,-3.4391,-3.4024,0.0,0.0,0.0,0.0,0.0,0.0,0.0,0.0,0.0,0.0,0.0,-3.6543,-3.7438,0.0,0.0,0.0,-3.8512,-3.9039,-3.9546,-3.9487,0.0,0.0,0.0,0.0,0.0,0.0,0.0,-4.0492,-4.0342,-4.0246,-4.023,-3.9991,-3.9164,-3.7526,-3.7234,-3.7224,-3.731,0.0,-3.6819,-3.7266,-3.6922,-3.6771,-3.7113,-3.7429,-3.8042,-3.9175,-3.9723,-4.0262,-4.095,-4.1361,-4.1772,-4.2383,-4.2852,-4.3085,-4.3052,-4.2184,-4.1377,-4.1017,-4.0624,-4.0288,-4.0158,-3.9316,-3.8523,-3.9101,-3.9027,-3.8329,-3.8013,-3.804,-3.8482,-3.9096,-3.9821,-4.0266,-4.0508,-4.0466,-3.97,-3.9392,-3.9354,-3.8565,0.0,-3.82,-3.82,-3.82,-3.82,-3.818,-3.82,-3.82,-3.8219,-3.82,-3.8219,-3.8714,-3.8551,-3.7863,-3.8251,-3.801,-3.7017,-3.5301,-3.4394,-3.4309,-3.4216,-3.4216,-3.4197,-3.4221,-3.4381,-3.4623,-3.4811,-3.4908,-3.4927,-3.5107,-3.5209,-3.5226,-3.5383,-3.5507,-3.5468,-3.4732,-3.4321,-3.4295,0.0,0.0,0.0,0.0,0.0,0.0,0.0,0.0,0.0,0.0,0.0,0.0,0.0,0.0,-4.1108,-4.1108,0.0,-4.1085,-4.11,0.0,0.0,0.0,-4.0841,-4.0696,-4.07,-4.0704,-4.0694,0.0,0.0,-4.1796,-4.2123,-4.1174,-3.8016,-3.7483,-3.7285,-3.7005,-3.7079,-3.6976,-3.7108,-3.6931,-3.7169,-3.7867,-3.8609,-3.9556,-4.0911,-4.1494,-4.1494,-4.1744,-4.2081,-4.2342,-4.2712,-4.2986,-4.3335,-4.3316,-4.3278,-4.2917,-4.2082,-4.1257,-4.0609,-4.0234,-3.9508,-3.8719,-3.9101,-3.911,-3.91,-3.9018,-3.885,-3.9133,-3.949,-3.98,-4.012,-4.0356,-4.0469,-4.0296,-4.0219,-4.0215,-4.0008,-3.9912,-3.9892,-3.9912,-3.9912,-3.9892,-3.9912,-3.9912,-3.9912,-3.9912,-3.9892,-3.9873,-3.9438,-3.9032,-3.8665,-3.8153,-3.77,-3.7294,-3.6854,-3.6148,-3.5206,-3.4531,-3.4216,-3.4216,-3.4386,-3.4626,-3.4812,-3.4889,-3.4982,-3.5124,-3.5193,-3.5273,-3.5417,-3.546,-3.5507,-3.5488,-3.536,-3.5278,-3.534,-3.4551,0.0,0.0,0.0,0.0,0.0,0.0,0.0,0.0,0.0,-3.9864,-4.072,0.0,-4.1108,0.0,-4.1108,-4.1078,-4.1017,-4.1509,0.0,0.0,-4.216,-4.2518,-4.247,-4.247,-4.2453,-4.2422,-4.2595,-4.2656,-4.262,-4.1848,-4.0995,-4.0155,-4.0397,-4.0568,-4.0362,-3.9814,-3.9425,-3.9229,-3.8757,-3.8517,-3.8739,-3.9386,-4.0004,-4.0362,-4.1051,-4.1853,-4.2867,-4.3164,-4.3589,-4.4556,-4.4899,-4.4972,-4.4858,-4.4453,-4.3936,-4.3616,-4.2795,-4.1896,-4.1265,-4.0205,-3.9003,-3.9101,-3.9129,-3.9383,-3.9195,-3.8775,-3.9505,-3.9878,-4.0002,-4.0232,-4.0389,-4.0489,-4.0489,-4.0489,-4.0489,-4.0489,-4.0489,-4.0489,-4.0489,-4.0489,-4.0489,-4.0489,-4.0489,-4.0489,-4.0489,-4.0489,-4.0489,-4.0027,-3.9784,-3.9646,-3.9188,-3.8835,-3.8632,-3.8271,-3.7714,-3.6855,-3.5649,-3.4982,-3.4904,-3.4879,-3.4908,-3.5037,-3.5124,-3.5226,-3.5324,-3.5339,-3.5369,-3.5493,-3.5522,-3.5534,-3.5488,-3.5596,-3.5641,-3.564,-3.529,-3.5496,0.0,0.0,0.0,0.0,0.0,0.0,0.0,0.0,0.0,0.0,0.0,-4.1264,-4.1635,-4.1674,-4.1796,-4.2091,-4.249,-4.2675,-4.2486,-4.2874,-4.3127,-4.3102,-4.3085,-4.3069,-4.2998,-4.3344,-4.3556,-4.3483,-4.3012,-4.2711,-4.2739,-4.2894,-4.2324,-4.0637,-3.99,-3.9671,-3.9557,-3.9217,-3.9098,-3.9412,-3.9875,-4.033,-4.0781,-4.1285,-4.1959,-4.2799,-4.3046,-4.3395,-4.4135,-4.4418,-4.447,-4.4416,-4.4107,-4.3761,-4.3651,-4.3215,-4.247,-4.157,-4.0266,-3.8883,-3.9156,-3.9183,-3.9458,-3.9147,-3.8568,-3.9718,-4.0118,-3.9889,-4.0098,-4.0239,-4.0369,-4.045,-4.0489,-4.0489,-4.0489,-4.0489,-4.0489,-4.0489,-4.0489,-4.0489,-4.0489,-4.0489,-4.0489,-4.0489,-4.0489,-4.0489,-4.0489,-4.0489,-4.0489,-4.0489,-4.0425,-4.0232,-3.9541,-3.9051,-3.8762,-3.7281,-3.631,-3.5873,-3.5627,-3.5436,-3.5261,-3.5513,-3.5622,-3.5507,-3.5507,-3.5488,-3.5534,-3.557,-3.5581,-3.5534,-3.5641,-3.5696,-3.564,-3.5903,-3.6381,0.0,-3.7418,0.0,0.0,0.0,0.0,0.0,0.0,0.0,0.0,-4.1186,-4.1635,-4.2494,-4.2572,-4.2826,-4.3448,-4.3591,-4.3558,-4.3408,-4.3452,-4.3477,-4.3429,-4.3431,-4.3395,-4.3305,-4.3978,-4.4421,-4.4365,-4.4696,-4.4943,-4.4859,-4.4562,-4.3305,-4.0436,-3.9856,-3.9912,-3.9508,-3.9416,-3.99,-4.0473,-4.0511,-4.0717,-4.1594,-4.1798,-4.195,-4.2309,-4.2471,-4.2619,-4.2814,-4.3078,-4.3181,-4.3085,-4.3124,-4.3124,-4.3162,-4.2939,-4.2467,-4.1571,-4.0367,-3.9089,-3.9408,-3.9458,-3.9878,-3.9966,-3.9852,-4.0262,-3.9533,-3.8113,-3.8354,-3.8873,-3.9565,-4.0235,-4.0489,-4.0489,-4.0489,-4.0489,-4.0489,-4.0489,-4.0489,-4.0489,-4.0489,-4.0489,-4.0489,-4.0489,-4.0489,-4.0489,-4.0489,-4.0489,-4.0489,-4.0489,-4.0473,-4.0422,-4.0284,-4.0125,-3.9871,0.0,0.0,0.0,-3.6892,-3.6668,-3.5528,-3.6128,-3.6161,-3.5526,-3.5507,0.0,-3.5574,-3.5596,-3.562,-3.566,-3.5787,0.0,0.0,0.0,0.0,0.0,0.0,0.0,0.0,0.0,0.0,0.0,-4.1108,-4.1108,-4.1127,-4.1752,-4.2513,-4.3372,-4.3469,-4.3494,-4.3591,-4.4081,-4.4353,-4.4279,-4.4774,-4.5139,-4.5124,-4.5051,-4.5015,-4.4959,-4.5074,-4.5189,-4.5131,-4.508,-4.5007,-4.5011,-4.4776,-4.4327,-4.3581,-4.3156,-4.3162,-4.321,-4.2229,-4.2017,-4.269,-4.1921,-4.1297,-4.1912,-4.2077,-4.2167,-4.2341,-4.2522,-4.2699,-4.2886,-4.3069,-4.3047,-4.3047,-4.3085,-4.2989,-4.3066,-4.2492,-4.1956,-4.175,-4.1412,-4.0764,-3.9483,-3.9532,-3.9982,-3.9947,0.0,-3.981,-3.9115,-3.7865,-3.8823,-3.9469,-3.9912,-4.0315,-4.0489,-4.0485,-4.0085,-3.9912,-3.9873,-3.9469,-3.9488,-3.9892,-3.9912,-4.0123,-4.0489,-4.0489,-4.0489,-4.0489,-4.0489,-4.0489,-4.0489,-4.0489,-4.0489,-4.0489,-4.0489,-4.0457,-4.0336,-4.0053,-3.8996,-3.7194,-3.7632,-3.7309,-3.6254,-3.6595,-3.6407,-3.5635,-3.5596,0.0,0.0,0.0,0.0,0.0,0.0,0.0,0.0,-3.6947,0.0,-3.8492,-3.9314,-3.9958,-4.0405,-4.0854,-4.1108,-4.1108,-4.1498,-4.1752,-4.1752,-4.2533,-4.3411,-4.425,-4.4328,-4.4436,-4.4709,-4.5055,-4.518,-4.5075,-4.5384,-4.5586,-4.5586,-4.5568,-4.555,-4.5513,-4.5495,-4.5495,-4.5515,-4.5361,-4.5263,-4.5263,-4.5118,-4.5011,-4.5033,-4.4682,-4.4411,-4.4382,-4.3212,-4.2389,-4.2567,-4.1606,-4.0804,-4.1003,-4.1152,-4.1279,-4.1494,-4.1549,-4.1677,-4.18,-4.1816,-4.1816,-4.1816,-4.1797,-4.1797,-4.1797,-4.145,-4.1162,-4.1162,-4.1149,-4.0886,-3.9628,-3.9675,-4.0062,-3.983,-3.9199,-3.9407,-3.9104,-3.8527,-3.9758,0.0,0.0,-4.0427,-4.0489,-4.0446,-3.9811,-3.9508,-3.9469,-3.8757,-3.8815,-3.9508,-3.9508,-3.9854,-4.0469,-4.0489,-4.0489,-4.0489,-4.0489,-4.0489,-4.0489,-4.0489,-4.0489,-4.0489,-4.0519,-4.053,-4.0559,-4.054,-3.9865,-3.8574,-3.8488,-3.8041,-3.7188,-3.7304,-3.6978,-3.6187,-3.6012,-3.5943,-3.5939,-3.6054,-3.6066,-3.5981,-3.627,-3.6742,-3.7332,-3.7597,-3.8355,-3.9683,-3.9937,-4.0327,-4.1049,-4.1108,-4.1166,-4.1322,-4.2142,-4.2689,-4.2825,-4.3528,-4.4289,-4.5148,-4.5226,-4.5431,-4.5938,-4.5959,-4.5856,-4.5692,-4.5651,-4.5637,-4.5637,-4.5603,-4.5568,-4.5586,-4.5568,-4.5586,-4.5568,-4.5531,-4.555,-4.5568,-4.5457,-4.5457,-4.5495,-4.5055,-4.4682,-4.4588,-4.3303,-4.217,-4.2086,-4.095,-3.9977,-4.0234,-4.0309,-4.0304,-4.0457,-4.0489,-4.0489,-4.0642,-4.0508,-4.0566,-4.0527,-4.0623,-4.0489,-4.0489,-4.0489,-4.0489,-4.0489,-4.0489,-4.0508,-4.0101,-4.012,-4.0356,-4.0399,-4.0265,-4.0315,-4.0273,-4.0104,-3.9662,-3.9469,-3.9508,-4.02,-4.0489,-4.0489,-4.0373,-4.0335,-4.0315,-4.0215,-4.0219,-4.035,-4.0315,-4.0373,-4.0489,-4.0489,-4.0489,-4.0489,-4.0489,-4.0489,-4.0489,-4.0504,-4.0489,-4.0519,-4.0615,-4.068,-4.0742,-4.0742,-4.0655,-4.0392,-4.0343,-3.96,-3.8149,-3.8839,-3.8829,-3.7972,-3.7195,-3.6849,-3.6904,-3.6935,-3.6982,-3.709,-3.7806,-3.8297,-3.8388,-3.9036,-3.9546,-3.9819,-4.0483,-4.0971,-4.1088,-4.1108,-4.142,-4.2181,-4.3021,-4.384,-4.4563,-4.4738,-4.5187,-4.6007,-4.6085,-4.614,-4.6221,-4.6138,-4.6049,-4.5996,-4.5859,-4.5752,-4.5757,-4.5616,-4.5531,-4.5513,-4.5532,-4.5513,-4.5513,-4.5568,-4.5586,-4.5586,-4.5568,-4.5568,-4.555,-4.5263,-4.5052,-4.4798,-4.3426,-4.2544,-4.2565,-4.1342,-4.0366,-4.0406,-4.0441,-4.0441,-4.0489,-4.0489,-4.0489,-4.0489,-4.0489,-4.0489,-4.0489,-4.0489,-4.0489,-4.0489,-4.0489,-4.0489,-4.0489,-4.0489,-4.0489,-4.0196,-4.0233,-4.0425,-4.0489,-4.0489,-4.0489,-4.0489,-4.0466,-4.0207,-4.002,-3.9985,-4.0335,-4.0549,-4.0563,-4.0119,-3.9947,-4.0002,-3.9518,-3.9557,-4.0002,-4.0022,-4.0254,-4.0641,-4.0648,-4.0667,-4.068,-4.066,-4.068,-4.0648,-4.0648,-4.0648,-4.066,-4.0726,-4.0761,-4.0801,-4.081,-4.0837,-4.0898,-4.0811,-4.0209,-3.9123,-3.9447,-3.9273,-3.8497,-3.8068,-3.7883,-3.7921,-3.7921,-3.7948,-3.8004,-3.8394,-3.8807,-3.9234,-3.9605,-4.0015,-4.0464,-4.0873,-4.1108,-4.1108,-4.1108,-4.1479,-4.2337,-4.3216,-4.4075,-4.4953,-4.5441,-4.587,-4.6261,-4.63,-4.6273,-4.6187,-4.6138,-4.6084,-4.5996,-4.5897,-4.5835,-4.5794,-4.5708,-4.5632,-4.5586,-4.5531,-4.5568,-4.5549,-4.5586,-4.5586,-4.5586,-4.5603,-4.5603,-4.5603,-4.5495,-4.5362,-4.5227,-4.3866,-4.2948,-4.2956,-4.1574,-4.0578,-4.0489,-4.0489,-4.0489,-4.0489,-4.0489,-4.0489,-4.0489,-4.0489,-4.0489,-4.0489,-4.0489,-4.0489,-4.0489,-4.0489,-4.0489,-4.0489,-4.0489,-4.0489,-4.0269,-4.0286,-4.0441,-4.0539,-4.0549,-4.0574,-4.0588,-4.0588,-4.0674,-4.0662,-4.0588,-4.0554,-4.0642,-4.0653,-4.0006,-3.976,-3.9761,-3.9177,-3.9255,-3.9848,-4.0081,-4.0509,-4.1063,-4.1276,-4.1393,-4.1374,-4.1393,-4.1374,-4.1374,-4.1374,-4.1286,-4.1177,-4.1138,-4.1049,-4.0871,-4.0871,-4.0901,-4.1006,-4.0921,-4.059,-4.0037,-4.0003,-3.9731,-3.9214,-3.898,-3.8866,-3.8863,-3.8863,-3.8863,-3.8882,-3.9058,-3.9435,-4.0025,-4.0084,-4.0379,-4.0988,-4.1086,-4.1084,-4.1099,-4.1099,-4.1487,-4.2337,-4.3216,-4.4075,-4.4933,-4.5792,-4.63,-4.63,-4.63,-4.6269,-4.6176,-4.6144,-4.6098,-4.5996,-4.5969,-4.5929,-4.5879,-4.5829,-4.5794,-4.5696,-4.5661,-4.568,-4.568,-4.568,-4.5661,-4.5677,-4.568,-4.568,-4.568,-4.568,-4.5642,-4.5128,-4.4075,-4.303,-4.2797,-4.1546,-4.0623,-4.0489,-4.0489,-4.0489,-4.0489,-4.0489,-4.0489,-4.0489,-4.0489,-4.0489,-4.0489,-4.0489,-4.0489,-4.0489,-4.0489,-4.0489,-4.0489,-4.0489,-4.0489,-4.0473,-4.0473,-4.0504,-4.0559,-4.0662,-4.0759,-4.0752,-4.0752,-4.0791,-4.0791,-4.0752,-4.0762,-4.0781,-4.0772,-4.0684,-4.0655,-4.0645,-4.0597,-4.0586,-4.0761,-4.15,-4.1908,-4.1975,-4.2714,-4.3161,-4.3044,-4.3005,-4.2937,-4.2937,-4.3034,-4.2788,-4.2227,-4.2156,-4.1797,-4.1191,-4.1136,-4.1101,-4.1104,-4.1081,-4.1042,-4.0987,-4.0968,-4.0948,-4.0854,-4.0093,-3.9683,-3.9702,-3.9702,-3.9683,-3.9761,-4.0408,-4.0867,-4.0937,-4.0976,-4.0976,-4.1023,-4.1001,-4.1027,-4.1094,-4.1113,-4.1461,-4.236,-4.316,-4.4,-4.4894,-4.5753,-4.628,-4.63,-4.63,-4.6296,-4.6296,-4.6273,-4.6249,-4.624,-4.6144,-4.6064,-4.6041,-4.5949,-4.5878,-4.5878,-4.5863,-4.5867,-4.5844,-4.5844,-4.5856,-4.5832,-4.584,-4.584,-4.5832,-4.5735,-4.5406,-4.473,-4.3747,-4.2826,-4.2117,-4.1181,-4.0611,-4.0519,-4.0504,-4.0515,-4.053,-4.0515,-4.0504,-4.054,-4.0515,-4.053,-4.0534,-4.0489,-4.0519,-4.0545,-4.053,-4.0519,-4.0504,-4.0519,-4.0534,-4.0692,-4.0692,-4.0672,-4.0715,-4.077,-4.0791,-4.081,-4.0791,-4.0882,-4.0906,-4.0933,-4.0974,-4.0974,-4.0926,-4.0926,-4.0935,-4.0972,-4.0972,-4.0972,-4.105,-4.1869,-4.2006,-4.1635,-4.2395,-4.2571,-4.2142,-4.2571,-4.2805,-4.2805,-4.2805,-4.2641,-4.2388,-4.2349,-4.244,-4.2611,-4.265,-4.2396,-4.1888,-4.1869,-4.1615,-4.1166,-4.1108,-4.1108,-4.1069,-4.0737,-4.0561,-4.0561,-4.0561,-4.055,-4.0581,-4.0895,-4.1093,-4.1027,-4.1047,-4.1023,-4.0994,-4.0991,-4.1016,-4.1047,-4.1027,-4.1206,-4.1542,-4.2382,-4.3262,-4.4155,-4.4995,-4.5675,-4.6206,-4.63,-4.63,-4.63,-4.63,-4.63,-4.63,-4.6245,-4.6181,-4.6125,-4.6057,-4.5977,-4.592,-4.5899,-4.591,-4.5899,-4.5899,-4.5899,-4.5899,-4.591,-4.591,-4.589,-4.5491,-4.4812,-4.4014,-4.3102,-4.2453,-4.1938,-4.1253,-4.0788,-4.0692,-4.0692,-4.0672,-4.066,-4.0672,-4.0672,-4.066,-4.066,-4.066,-4.0684,-4.0672,-4.0672,-4.066,-4.0672,-4.0672,-4.0692,-4.0672,-4.0672,-4.081,-4.0791,-4.0837,-4.0846,-4.0846,-4.0879,-4.0887,-4.0894,-4.098,-4.1017,-4.1042,-4.1078,-4.1074,-4.1042,-4.1037,-4.1042,-4.1108,-4.1108,-4.1108,-4.1205,-4.2006,-4.2064,-4.1576,-4.2337,-4.2435,-4.1986,-4.2494,-4.2786,-4.2747,-4.2767,-4.265,-4.2435,-4.2396,-4.2728,-4.3274,-4.3352,-4.3157,-4.2806,-4.2767,-4.2321,-4.1587,-4.1453,-4.1331,-4.115,-4.1108,-4.1114,-4.1101,-4.1101,-4.1089,-4.1073,-4.1073,-4.1047,-4.1,-4.0996,-4.0988,-4.0979,-4.0974,-4.0983,-4.0992,-4.0996,-4.098,-4.1069,-4.1794,-4.27,-4.3591,-4.4432,-4.5273,-4.613,-4.6284,-4.6282,-4.6303,-4.63,-4.63,-4.63,-4.63,-4.6269,-4.6156,-4.615,-4.6112,-4.6013,-4.6021,-4.6005,-4.6024,-4.6013,-4.6021,-4.6021,-4.6013,-4.6024,-4.5946,-4.5479,-4.4779,-4.3669,-4.2949,-4.2361,-4.1869,-4.1238,-4.0849,-4.081,-4.0791,-4.0791,-4.081,-4.081,-4.081,-4.0751,-4.0791,-4.0801,-4.0771,-4.0772,-4.0791,-4.0791,-4.0791,-4.0791,-4.0781,-4.0781,-4.0781,-4.081,-4.0829,-4.094,-4.0987,-4.0994,-4.1046,-4.1081,-4.1078,-4.1085,-4.1085,-4.1104,-4.1108,-4.1108,-4.1085,-4.1085,-4.1108,-4.1108,-4.1108,-4.1108,-4.1186,-4.2006,-4.2376,-4.2396,-4.3235,-4.3548,-4.3138,-4.3274,-4.345,-4.3509,-4.3551,-4.3235,-4.2435,-4.238,-4.2438,-4.2675,-4.2714,-4.2907,-4.3576,-4.3635,-4.3212,-4.246,-4.2324,-4.1951,-4.1272,-4.1111,-4.1103,-4.1093,-4.1113,-4.1073,-4.1013,-4.1013,-4.0996,-4.0986,-4.0994,-4.0967,-4.0924,-4.0906,-4.0949,-4.0987,-4.0974,-4.0978,-4.1097,-4.1726,-4.265,-4.3531,-4.4293,-4.5174,-4.6111,-4.6195,-4.6247,-4.6297,-4.629,-4.6287,-4.6303,-4.63,-4.63,-4.6277,-4.6273,-4.6277,-4.6249,-4.6245,-4.6221,-4.6269,-4.6296,-4.6249,-4.6245,-4.6273,-4.6269,-4.6225,-4.6152,-4.5328,-4.4157,-4.3431,-4.2988,-4.1349,-4.0932,-4.0885,-4.0846,-4.0871,-4.0829,-4.081,-4.081,-4.082,-4.0829,-4.0827,-4.0827,-4.082,-4.08,-4.0818,-4.0827,-4.0835,-4.0835,-4.0879,-4.0809,-4.0837,-4.1003,-4.1003,-4.1042,-4.1066,-4.107,-4.1085,-4.1108,-4.1108,-4.1108,-4.1108,-4.1108,-4.1108,-4.1108,-4.1111,-4.1105,-4.1105,-4.1111,-4.1108,-4.1108,-4.1205,-4.1986,-4.2103,-4.1674,-4.2454,-4.2552,-4.2162,-4.2591,-4.2884,-4.2887,-4.2863,-4.2731,-4.2479,-4.2363,-4.285,-4.3787,-4.3983,-4.4177,-4.443,-4.4469,-4.4056,-4.3249,-4.3171,-4.2744,-4.1891,-4.1326,-4.1032,-4.1045,-4.1045,-4.1013,-4.0989,-4.0989,-4.098,-4.0929,-4.0941,-4.0924,-4.0897,-4.0888,-4.0906,-4.0932,-4.0941,-4.0929,-4.096,-4.122,-4.2065,-4.3226,-4.386,-4.4612,-4.5824,-4.6202,-4.6217,-4.6226,-4.623,-4.6226,-4.6246,-4.6273,-4.6303,-4.63,-4.63,-4.63,-4.63,-4.63,-4.63,-4.63,-4.63,-4.63,-4.63,-4.63,-4.63,-4.6202,-4.5851,-4.5109,-4.3997,-4.3196,-4.2448,-4.1291,-4.1003,-4.0983,-4.1003,-4.1003,-4.1003,-4.0998,-4.0967,-4.0992,-4.0967,-4.0961,-4.0961,-4.0955,-4.0961,-4.0961,-4.0961,-4.0967,-4.0955,-4.0983,-4.0955,-4.0961,-4.1108,-4.1108,-4.1108,-4.1108,-4.1108,-4.1108,-4.1114,-4.1101,-4.1101,-4.1086,-4.1071,-4.1071,-4.1071,-4.1053,-4.1074,-4.1054,-4.1072,-4.1051,-4.1071,-4.1129,-4.1676,-4.1637,-4.1246,-4.1676,-4.1656,-4.1227,-4.1656,-4.1949,-4.1951,-4.1953,-4.1931,-4.1949,-4.1919,-4.2594,-4.3863,-4.4332,-4.4582,-4.4852,-4.5164,-4.4887,-4.4109,-4.3992,-4.3573,-4.2758,-4.2114,-4.152,-4.1031,-4.0992,-4.0989,-4.0993,-4.0972,-4.0949,-4.0897,-4.0888,-4.0888,-4.0888,-4.0888,-4.0888,-4.0888,-4.0888,-4.0888,-4.0888,-4.0927,-4.1565,-4.2926,-4.3335,-4.424,-4.5364,-4.602,-4.6137,-4.6147,-4.616,-4.6182,-4.6187,-4.625,-4.6267,-4.6265,-4.6267,-4.6264,-4.6278,-4.6287,-4.6303,-4.63,-4.63,-4.63,-4.63,-4.63,-4.63,-4.6202,-4.5831,-4.5109,-4.4231,-4.345,-4.2669,-4.1741,-4.1367,-4.1113,-4.1074,-4.1074,-4.1104,-4.1108,-4.1108,-4.1108,-4.1108,-4.1108,-4.1108,-4.1108,-4.1108,-4.1108,-4.1108,-4.1081,-4.1046,-4.1078,-4.1085,-4.1078,-4.1111,-4.1111,-4.1111,-4.1114,-4.1114,-4.1097,-4.1107,-4.1094,-4.1074,-4.1052,-4.1023,-4.0996,-4.1001,-4.0996,-4.0994,-4.0994,-4.1013,-4.0994,-4.0996,-4.1019,-4.1077,-4.1077,-4.1019,-4.1099,-4.1138,-4.0999,-4.1035,-4.1055,-4.1116,-4.113,-4.1127,-4.1069,-4.1121,-4.164,-4.2376,-4.3244,-4.4009,-4.4711,-4.541,-4.5489,-4.4904,-4.4695,-4.4316,-4.3598,-4.3452,-4.2711,-4.1201,-4.1149,-4.1174,-4.1032,-4.0975,-4.0907,-4.0907,-4.0888,-4.0888,-4.0888,-4.0888,-4.0888,-4.0888,-4.0888,-4.0888,-4.0888,-4.0888,-4.1325,-4.2267,-4.3044,-4.3899,-4.4832,-4.559,-4.5998,-4.6018,-4.6068,-4.6137,-4.6175,-4.6192,-4.6215,-4.6212,-4.6206,-4.6215,-4.6211,-4.6245,-4.6287,-4.6303,-4.6293,-4.6276,-4.6295,-4.6293,-4.6295,-4.6276,-4.6136,-4.5854,-4.5034,-4.4039,-4.306,-4.2357,-4.1732,-4.1381,-4.1108,-4.1104,-4.1108,-4.1108,-4.1108,-4.1108,-4.1108,-4.1108,-4.1108,-4.1108,-4.1108,-4.1108,-4.1108,-4.1108,-4.1108,-4.1108,-4.1108,-4.1108,-4.1099,-4.1111,-4.1111,-4.1111,-4.1092,-4.1054,-4.1029,-4.1043,-4.1023,-4.1019,-4.0994,-4.0991,-4.0991,-4.0984,-4.0983,-4.0983,-4.0978,-4.0942,-4.0967,-4.0984,-4.0991,-4.0991,-4.0991,-4.0991,-4.0991,-4.0991,-4.0991,-4.0991,-4.0984,-4.0979,-4.0983,-4.0978,-4.0942,-4.14,-4.2167,-4.2537,-4.3055,-4.3853,-4.4203,-4.444,-4.4724,-4.4802,-4.4647,-4.4423,-4.4404,-4.386,-4.281,-4.2713,-4.2412,-4.184,-4.1801,-4.1529,-4.1043,-4.0888,-4.0888,-4.0888,-4.0888,-4.0888,-4.0888,-4.0888,-4.0888,-4.0888,-4.0888,-4.1315,-4.2131,-4.2986,-4.386,-4.4715,-4.5511,-4.5977,-4.6007,-4.6027,-4.6052,-4.6105,-4.6186,-4.6199,-4.6195,-4.6202,-4.6209,-4.6195,-4.6223,-4.6246,-4.6226,-4.6228,-4.6229,-4.6248,-4.6247,-4.6247,-4.6248,-4.6249,-4.5896,-4.5056,-4.423,-4.3518,-4.2741,-4.1984,-4.1437,-4.116,-4.1097,-4.1111,-4.1108,-4.1108,-4.1108,-4.1108,-4.1108,-4.1108,-4.1108,-4.1108,-4.1108,-4.1108,-4.1108,-4.1108,-4.1108,-4.1108,-4.1108,-4.1074,-4.1071,-4.1051,-4.1051,-4.1071,-4.1019,-4.0984,-4.0992,-4.0988,-4.0979,-4.0964,-4.0978,-4.0939,-4.0953,-4.0974,-4.0972,-4.0964,-4.0915,-4.091,-4.0972,-4.0959,-4.0959,-4.0959,-4.0959,-4.0959,-4.0959,-4.0959,-4.0959,-4.0959,-4.0974,-4.0953,-4.0957,-4.0915,-4.114,-4.1723,-4.2053,-4.252,-4.3005,-4.3355,-4.3918,-4.4617,-4.4792,-4.4948,-4.5181,-4.5239,-4.4948,-4.4462,-4.4443,-4.3879,-4.2928,-4.2675,-4.2384,-4.1898,-4.1898,-4.1743,-4.1432,-4.1354,-4.1257,-4.0966,-4.0888,-4.0888,-4.0888,-4.0888,-4.1296,-4.2131,-4.3005,-4.386,-4.4715,-4.553,-4.5977,-4.5977,-4.6007,-4.6018,-4.6044,-4.6111,-4.6125,-4.6131,-4.6147,-4.6158,-4.6162,-4.6175,-4.6202,-4.6202,-4.6202,-4.6202,-4.6202,-4.6202,-4.6202,-4.6206,-4.62,-4.5794,-4.5348,-4.4784,-4.3984,-4.3046,-4.2265,-4.1523,-4.1246,-4.1086,-4.1097,-4.1108,-4.1108,-4.1108,-4.1108,-4.1108,-4.1108,-4.1108,-4.1108,-4.1108,-4.1108,-4.1111,-4.1108,-4.1108,-4.1108,-4.1108,-4.0991,-4.0987,-4.0987,-4.1007,-4.1007,-4.1003,-4.0974,-4.0974,-4.0987,-4.0953,-4.0915,-4.0915,-4.0906,-4.0897,-4.0906,-4.0906,-4.0907,-4.1092,-4.1111,-4.112,-4.1187,-4.1226,-4.0943,-4.0904,-4.0904,-4.0915,-4.0887,-4.0906,-4.0904,-4.0906,-4.0888,-4.0897,-4.0917,-4.0888,-4.114,-4.1723,-4.2053,-4.2209,-4.285,-4.3627,-4.454,-4.4656,-4.5103,-4.5841,-4.5899,-4.5841,-4.5763,-4.5705,-4.5103,-4.3802,-4.3491,-4.3316,-4.3413,-4.3491,-4.2966,-4.2306,-4.2267,-4.1898,-4.1315,-4.116,-4.1102,-4.1121,-4.1005,-4.1257,-4.2131,-4.3005,-4.386,-4.4734,-4.553,-4.5977,-4.5977,-4.5977,-4.5988,-4.5988,-4.6018,-4.6018,-4.6017,-4.6072,-4.6091,-4.6105,-4.6147,-4.6195,-4.6162,-4.6186,-4.6186,-4.6186,-4.6182,-4.6158,-4.6162,-4.6167,-4.6195,-4.5773,-4.5174,-4.4345,-4.3375,-4.2534,-4.1772,-4.119,-4.1055,-4.1054,-4.1087,-4.1087,-4.1087,-4.1086,-4.1101,-4.1097,-4.1099,-4.1087,-4.1103,-4.1101,-4.1099,-4.1114,-4.1108,-4.1111,-4.1091,-4.0992,-4.0978,-4.0978,-4.0978,-4.0992,-4.0948,-4.091,-4.0924,-4.0924,-4.0915,-4.0888,-4.0888,-4.0888,-4.0907,-4.0907,-4.0888,-4.1082,-4.1587,-4.1859,-4.1976,-4.2558,-4.1995,-4.1121,-4.0888,-4.0888,-4.0888,-4.0888,-4.0888,-4.0888,-4.0888,-4.0888,-4.0888,-4.0888,-4.0888,-4.0966,-4.116,-4.1218,-4.1238,-4.1432,-4.2403,-4.3627,-4.3879,-4.4559,-4.5861,-4.5977,-4.5977,-4.5977,-4.5977,-4.5569,-4.454,-4.3821,-4.3491,-4.3588,-4.3607,-4.3491,-4.3238,-4.3161,-4.3063,-4.2733,-4.2189,-4.1898,-4.1781,-4.1393,-4.1296,-4.2131,-4.3005,-4.386,-4.4715,-4.5511,-4.5977,-4.5977,-4.5977,-4.5977,-4.5977,-4.5977,-4.5977,-4.6007,-4.6027,-4.6027,-4.6027,-4.6035,-4.6052,-4.606,-4.606,-4.608,-4.608,-4.608,-4.608,-4.6084,-4.6086,-4.6125,-4.5908,-4.5358,-4.4555,-4.3707,-4.2845,-4.2028,-4.1231,-4.1001,-4.1004,-4.1009,-4.1011,-4.1029,-4.1029,-4.1033,-4.1035,-4.1033,-4.1008,-4.1053,-4.1092,-4.1092,-4.1091,-4.1099,-4.1111,-4.1097,-4.0948,-4.0964,-4.0964,-4.0964,-4.0937,-4.0935,-4.0888,-4.0888,-4.0888,-4.0888,-4.0888,-4.0888,-4.0888,-4.0927,-4.1276,-4.1432,-4.1548,-4.2345,-4.2733,-4.283,-4.3219,-4.2675,-4.1646,-4.114,-4.0888,-4.0888,-4.0888,-4.0888,-4.0888,-4.0888,-4.0888,-4.0888,-4.0888,-4.0888,-4.0888,-4.0888,-4.0888,-4.0907,-4.0927,-4.1607,-4.283,-4.3335,-4.419,-4.5336,-4.5763,-4.5977,-4.5977,-4.5977,-4.5744,-4.5278,-4.4831,-4.454,-4.4559,-4.4559,-4.4404,-4.4112,-4.4054,-4.3918,-4.3491,-4.3005,-4.2772,-4.2694,-4.2228,-4.25,-4.319,-4.3802,-4.4404,-4.5258,-4.5744,-4.5938,-4.5977,-4.5977,-4.5977,-4.5977,-4.5977,-4.5977,-4.5977,-4.6007,-4.5977,-4.5977,-4.5977,-4.5977,-4.5977,-4.5977,-4.5977,-4.5988,-4.5998,-4.5998,-4.6008,-4.6026,-4.6021,-4.5862,-4.5558,-4.4812,-4.3968,-4.3085,-4.2058,-4.1276,-4.095,-4.0955,-4.0976,-4.098,-4.0987,-4.1007,-4.0991,-4.0987,-4.0984,-4.0984,-4.1021,-4.105,-4.1069,-4.1072,-4.1074,-4.1069,-4.1071,-4.0888,-4.0888,-4.0888,-4.0888,-4.0907,-4.0888,-4.0888,-4.0888,-4.0888,-4.0888,-4.0888,-4.0888,-4.1005,-4.1082,-4.1781,-4.2209,-4.2384,-4.3238,-4.3685,-4.3782,-4.3782,-4.3258,-4.2617,-4.1587,-4.1238,-4.1121,-4.0985,-4.0888,-4.0888,-4.0888,-4.0888,-4.0888,-4.0888,-4.0888,-4.0888,-4.0888,-4.0888,-4.0888,-4.0888,-4.1374,-4.2325,-4.3102,-4.3996,-4.487,-4.5664,-4.5966,-4.5986,-4.5956,-4.5925,-4.5966,-4.5997,-4.5822,-4.588,-4.5919,-4.5627,-4.5084,-4.4889,-4.4617,-4.3966,-4.3801,-4.3617,-4.3578,-4.347,-4.385,-4.4325,-4.4586,-4.4913,-4.5708,-4.5936,-4.5933,-4.5975,-4.5986,-4.5977,-4.5977,-4.5977,-4.5977,-4.5977,-4.5977,-4.5977,-4.5977,-4.5977,-4.5977,-4.5977,-4.5977,-4.5977,-4.5977,-4.5977,-4.5977,-4.5977,-4.6008,-4.6018,-4.5979,-4.558,-4.5123,-4.4229,-4.3335,-4.2237,-4.1302,-4.1027,-4.0933,-4.0953,-4.0969,-4.0983,-4.0988,-4.0964,-4.0959,-4.0974,-4.0983,-4.0996,-4.1003,-4.1023,-4.1007,-4.0996,-4.1008,-4.1011,-4.0888,-4.0888,-4.0888,-4.0888,-4.0888,-4.0888,-4.0888,-4.0907,-4.0888,-4.0917,-4.0927,-4.0907,-4.1315,-4.1917,-4.2238,-4.2539,-4.3267,-4.4092,-4.4831,-4.5356,-4.4753,-4.4481,-4.3879,-4.2704,-4.1976,-4.1762,-4.1199,-4.0927,-4.0907,-4.0898,-4.0888,-4.0888,-4.0869,-4.0888,-4.0898,-4.0878,-4.0888,-4.0888,-4.0907,-4.1306,-4.2083,-4.2956,-4.3839,-4.4752,-4.5522,-4.591,-4.5933,-4.5835,-4.5814,-4.5893,-4.5953,-4.5975,-4.5966,-4.5986,-4.585,-4.5733,-4.5675,-4.5597,-4.5364,-4.4742,-4.4408,-4.442,-4.3892,-4.3601,-4.4504,-4.4614,-4.494,-4.5544,-4.5771,-4.5814,-4.5899,-4.5964,-4.5975,-4.5975,-4.5986,-4.5966,-4.5997,-4.5977,-4.5977,-4.5977,-4.5977,-4.5977,-4.5977,-4.5977,-4.5977,-4.5977,-4.5977,-4.5977,-4.5977,-4.5977,-4.5977,-4.5977,-4.5666,-4.5181,-4.4326,-4.351,-4.2656,-4.1917,-4.1607,-4.1412,-4.1432,-4.1259,-4.139,-4.1193,-4.0902,-4.0918,-4.0942,-4.0921,-4.0928,-4.0948,-4.0978,-4.0969,-4.0979,-4.0972,-4.0976,-4.0754,-4.0754,-4.0754,-4.0754,-4.0754,-4.0754,-4.0796,-4.0848,-4.0848,-4.1111,-4.1451,-4.149,-4.1956,-4.2748,-4.3156,-4.3618,-4.4027,-4.4821,-4.5422,-4.5693,-4.5383,-4.5247,-4.4996,-4.3904,-4.2966,-4.2306,-4.1762,-4.1354,-4.1014,-4.0898,-4.0868,-4.0878,-4.0818,-4.0815,-4.0848,-4.0848,-4.0826,-4.0784,-4.0837,-4.1089,-4.154,-4.2303,-4.3446,-4.4531,-4.5349,-4.5814,-4.5822,-4.5771,-4.5746,-4.5805,-4.586,-4.5867,-4.5867,-4.5867,-4.5848,-4.5848,-4.5848,-4.5867,-4.5667,-4.544,-4.5123,-4.5195,-4.4602,-4.4703,-4.4969,-4.5025,-4.5194,-4.5545,-4.5696,-4.5746,-4.5791,-4.5847,-4.5867,-4.5867,-4.5867,-4.5848,-4.588,-4.5941,-4.5977,-4.5977,-4.5977,-4.5977,-4.5977,-4.5977,-4.5977,-4.5977,-4.5977,-4.5977,-4.5977,-4.5977,-4.5977,-4.5919,-4.5686,-4.5181,-4.4384,-4.3666,-4.3083,-4.2694,-4.2597,-4.25,-4.2509,-4.2237,-4.1956,-4.1616,-4.1247,-4.0917,-4.0904,-4.0897,-4.1014,-4.0932,-4.0972,-4.0948,-4.0942,-4.0942,-4.0942,-4.0993,-4.0974,-4.0974,-4.0916,-4.08,-4.0853,-4.0816,-4.0745,-4.0776,-4.1238,-4.2003,-4.2149,-4.2489,-4.3447,-4.4144,-4.4481,-4.4804,-4.5194,-4.5688,-4.5669,-4.565,-4.5592,-4.5399,-4.4795,-4.3755,-4.2479,-4.21,-4.1692,-4.1225,-4.0881,-4.0792,-4.0818,-4.0694,-4.0688,-4.0745,-4.0757,-4.0732,-4.0662,-4.0713,-4.0752,-4.088,-4.16,-4.2816,-4.4283,-4.5218,-4.5661,-4.5696,-4.5668,-4.5651,-4.5648,-4.5632,-4.5651,-4.5632,-4.568,-4.568,-4.5715,-4.5715,-4.5731,-4.5746,-4.5654,-4.5607,-4.568,-4.5574,-4.5568,-4.558,-4.5524,-4.5524,-4.5577,-4.5616,-4.5648,-4.5684,-4.5731,-4.5712,-4.5696,-4.5696,-4.568,-4.5727,-4.5867,-4.5929,-4.5975,-4.5986,-4.5977,-4.5977,-4.5977,-4.5977,-4.5997,-4.5997,-4.5997,-4.5997,-4.5977,-4.5977,-4.5783,-4.553,-4.4889,-4.4074,-4.3879,-4.3297,-4.3316,-4.3335,-4.3355,-4.3335,-4.2986,-4.2539,-4.2015,-4.1646,-4.149,-4.1529,-4.182,-4.1743,-4.1257,-4.1111,-4.131,-4.1177,-4.0927,-4.0945,-4.2695,-4.268,-4.2695,-4.2309,-4.1711,-4.1673,-4.1301,-4.0693,-4.077,-4.117,-4.1956,-4.2014,-4.2941,-4.3959,-4.4307,-4.4808,-4.5282,-4.5591,-4.5648,-4.5648,-4.5648,-4.5648,-4.5591,-4.5382,-4.4446,-4.3159,-4.2381,-4.1917,-4.1467,-4.1054,-4.07,-4.0642,-4.0602,-4.0607,-4.0621,-4.0635,-4.0621,-4.0579,-4.0607,-4.0607,-4.0771,-4.1465,-4.2603,-4.4129,-4.4987,-4.5449,-4.5599,-4.5495,-4.54,-4.5513,-4.5419,-4.538,-4.5419,-4.5565,-4.5648,-4.5668,-4.5657,-4.564,-4.5635,-4.559,-4.5608,-4.5642,-4.5512,-4.5457,-4.5477,-4.5438,-4.5438,-4.5438,-4.5476,-4.5512,-4.5531,-4.5601,-4.5684,-4.57,-4.5665,-4.5665,-4.568,-4.5727,-4.58,-4.5854,-4.591,-4.5966,-4.5933,-4.5922,-4.5922,-4.5941,-4.5964,-4.5964,-4.5975,-4.5986,-4.5977,-4.5705,-4.5336,-4.4559,-4.3724,-4.3782,-4.3627,-4.3782,-4.3821,-4.384,-4.3763,-4.353,-4.3141,-4.3083,-4.2869,-4.2753,-4.2811,-4.2792,-4.2539,-4.2112,-4.1917,-4.1762,-4.1626,-4.151,-4.114,-4.2942,-4.2942,-4.2942,-4.2731,-4.2405,-4.2347,-4.2187,-4.1832,-4.1828,-4.2322,-4.2969,-4.3254,-4.3821,-4.4716,-4.4966,-4.522,-4.5417,-4.5495,-4.5495,-4.5495,-4.5495,-4.5495,-4.5495,-4.5495,-4.4746,-4.3652,-4.2789,-4.1893,-4.1253,-4.0746,-4.053,-4.0564,-4.0523,-4.0476,-4.0485,-4.0481,-4.0527,-4.0515,-4.0531,-4.0527,-4.054,-4.1289,-4.2403,-4.3403,-4.4345,-4.494,-4.54,-4.54,-4.5319,-4.5361,-4.5319,-4.5298,-4.5339,-4.54,-4.5475,-4.5495,-4.5496,-4.5496,-4.5476,-4.5417,-4.5418,-4.5458,-4.536,-4.5338,-4.5379,-4.5359,-4.5297,-4.5317,-4.5338,-4.538,-4.538,-4.5457,-4.5476,-4.5495,-4.5495,-4.5513,-4.5513,-4.5566,-4.5635,-4.5696,-4.5757,-4.5794,-4.5841,-4.5827,-4.5841,-4.5867,-4.5905,-4.5937,-4.5929,-4.5953,-4.5944,-4.5809,-4.5517,-4.5198,-4.4499,-4.4441,-4.4355,-4.4423,-4.4481,-4.4481,-4.4559,-4.4501,-4.4676,-4.4792,-4.452,-4.386,-4.3471,-4.3238,-4.3102,-4.3025,-4.2869,-4.2675,-4.2345,-4.2034,-4.1743,-4.331,-4.3291,-4.331,-4.3195,-4.3061,-4.3042,-4.2967,-4.2889,-4.283,-4.3305,-4.4234,-4.4311,-4.4664,-4.5284,-4.5419,-4.538,-4.5297,-4.5317,-4.5319,-4.5319,-4.5319,-4.5317,-4.5297,-4.5201,-4.4841,-4.3924,-4.3101,-4.2086,-4.1111,-4.0559,-4.0457,-4.0537,-4.0478,-4.0576,-4.0665,-4.1027,-4.0766,-4.0824,-4.0823,-4.0803,-4.0788,-4.1342,-4.1934,-4.2603,-4.3463,-4.436,-4.4879,-4.5222,-4.5277,-4.5298,-4.5277,-4.5277,-4.5277,-4.5277,-4.5277,-4.5277,-4.5277,-4.5277,-4.5297,-4.5317,-4.5317,-4.5339,-4.5298,-4.5297,-4.5297,-4.5317,-4.5277,-4.5277,-4.5298,-4.5298,-4.5298,-4.5298,-4.5298,-4.5298,-4.5319,-4.5298,-4.536,-4.54,-4.5458,-4.5513,-4.5584,-4.5648,-4.5712,-4.5742,-4.5771,-4.5771,-4.5814,-4.5814,-4.5827,-4.5867,-4.5893,-4.5905,-4.582,-4.5832,-4.5592,-4.5495,-4.5412,-4.5356,-4.5375,-4.5375,-4.555,-4.5705,-4.5763,-4.5578,-4.5181,-4.452,-4.4112,-4.3918,-4.4035,-4.4035,-4.386,-4.351,-4.3025,-4.2772,-4.2539,-4.501,-4.4991,-4.4991,-4.4571,-4.3921,-4.3864,-4.3463,-4.2929,-4.2967,-4.3273,-4.4173,-4.4134,-4.4593,-4.5186,-4.5319,-4.5317,-4.5297,-4.5277,-4.5277,-4.5277,-4.5277,-4.5277,-4.5277,-4.5277,-4.4781,-4.4036,-4.3252,-4.2336,-4.1474,-4.0766,-4.0405,-4.0538,-4.1112,-4.138,-4.1475,-4.1896,-4.2489,-4.245,-4.2431,-4.2068,-4.1609,-4.2163,-4.2221,-4.2393,-4.3157,-4.415,-4.4513,-4.4991,-4.5277,-4.5277,-4.5277,-4.5277,-4.5277,-4.5277,-4.5277,-4.5277,-4.5277,-4.5277,-4.5277,-4.5277,-4.5277,-4.5277,-4.5277,-4.5277,-4.5277,-4.5277,-4.5277,-4.5277,-4.5277,-4.5277,-4.5277,-4.5277,-4.5277,-4.5277,-4.5277,-4.5277,-4.5317,-4.5338,-4.536,-4.536,-4.5438,-4.5549,-4.5635,-4.5665,-4.5696,-4.5715,-4.5715,-4.5731,-4.5746,-4.5771,-4.58,-4.5814,-4.5827,-4.5841,-4.5867,-4.5899,-4.5905,-4.5933,-4.5944,-4.5944,-4.5922,-4.591,-4.5944,-4.5731,-4.5393,-4.5304,-4.5087,-4.5021,-4.5151,-4.4986,-4.4695,-4.4171,-4.3569,-4.3413,-4.3355,-4.5277,-4.5277,-4.5277,-4.5086,-4.4762,-4.4743,-4.4551,-4.4265,-4.4227,-4.4399,-4.4685,-4.4743,-4.4953,-4.5239,-4.5277,-4.5297,-4.5277,-4.5277,-4.5277,-4.5277,-4.5277,-4.5277,-4.5277,-4.5239,-4.4838,-4.4169,-4.3615,-4.3119,-4.2221,-4.1476,-4.0979,-4.1113,-4.1781,-4.224,-4.2259,-4.2622,-4.2737,-4.2737,-4.2737,-4.2603,-4.2431,-4.2584,-4.2851,-4.2908,-4.3634,-4.4169,-4.4685,-4.501,-4.5277,-4.5277,-4.5277,-4.5277,-4.5277,-4.5277,-4.5277,-4.5277,-4.5277,-4.5277,-4.5277,-4.5277,-4.5277,-4.5277,-4.5277,-4.5277,-4.5277,-4.5277,-4.5277,-4.5277,-4.5277,-4.5277,-4.5277,-4.5277,-4.5277,-4.5277,-4.5277,-4.5277,-4.5277,-4.5277,-4.5298,-4.5277,-4.5298,-4.54,-4.5495,-4.5495,-4.5494,-4.5531,-4.5549,-4.5584,-4.5635,-4.568,-4.5696,-4.5712,-4.5727,-4.5746,-4.5742,-4.5771,-4.5771,-4.5794,-4.5794,-4.5794,-4.5814,-4.5827,-4.5848,-4.5893,-4.5686,-4.5693,-4.5867,-4.5794,-4.5597,-4.553,-4.5491,-4.5006,-4.454,-4.4307,-4.4268,-4.5105,-4.5277,-4.5277,-4.5277,-4.5277,-4.5277,-4.5258,-4.5277,-4.522,-4.5258,-4.5277,-4.5258,-4.5258,-4.5277,-4.5277,-4.5277,-4.5277,-4.5277,-4.5277,-4.5277,-4.5277,-4.5277,-4.5277,-4.5239,-4.4991,-4.4303,-4.4017,-4.3615,-4.31,-4.2526,-4.2125,-4.1896,-4.2679,-4.3042,-4.3157,-4.3443,-4.3654,-4.3654,-4.3615,-4.3424,-4.3176,-4.31,-4.331,-4.3577,-4.392,-4.4303,-4.4876,-4.5239,-4.5277,-4.5277,-4.5277,-4.5277,-4.5277,-4.5277,-4.5277,-4.5277,-4.5277,-4.5277,-4.5277,-4.5277,-4.5277,-4.5277,-4.5277,-4.5277,-4.5277,-4.5277,-4.5277,-4.5277,-4.5277,-4.5277,-4.5277,-4.5277,-4.5277,-4.5277,-4.5277,-4.5277,-4.5277,-4.5277,-4.5277,-4.5277,-4.5277,-4.5277,-4.5339,-4.5319,-4.5319,-4.5319,-4.536,-4.5458,-4.5495,-4.5547,-4.5547,-4.5547,-4.5547,-4.5584,-4.5616,-4.5632,-4.5648,-4.5665,-4.5665,-4.568,-4.5712,-4.5727,-4.5742,-4.5776,-4.581,-4.5791,-4.5786,-4.5893,-4.5977,-4.5839,-4.5731,-4.5861,-4.5627,-4.5317,-4.5122,-4.4571,-4.5277,-4.5277,-4.5277,-4.5277,-4.5277,-4.5277,-4.5277,-4.5277,-4.5277,-4.5277,-4.5277,-4.5277,-4.5277,-4.5277,-4.5277,-4.5277,-4.5277,-4.5277,-4.5277,-4.5277,-4.5277,-4.5277,-4.5258,-4.522,-4.4991,-4.4551,-4.415,-4.394,-4.3806,-4.331,-4.2947,-4.3615,-4.3845,-4.4093,-4.4437,-4.4704,-4.4743,-4.4743,-4.4456,-4.4112,-4.3883,-4.3711,-4.3348,-4.3673,-4.4074,-4.4169,-4.4895,-4.5277,-4.5277,-4.5277,-4.5277,-4.5277,-4.5277,-4.5277,-4.5277,-4.5277,-4.5277,-4.5277,-4.5277,-4.5277,-4.5277,-4.5277,-4.5277,-4.5277,-4.5277,-4.5277,-4.5277,-4.5277,-4.5277,-4.5277,-4.5277,-4.5277,-4.5277,-4.5277,-4.5277,-4.5277,-4.5277,-4.5277,-4.5277,-4.5277,-4.5277,-4.5277,-4.5277,-4.5277,-4.5317,-4.5317,-4.538,-4.536,-4.538,-4.5361,-4.536,-4.536,-4.538,-4.5495,-4.5513,-4.5531,-4.5566,-4.5565,-4.5599,-4.5648,-4.5648,-4.5599,-4.5651,-4.5668,-4.5684,-4.5715,-4.5814,-4.5893,-4.5925,-4.5925,-4.5917,-4.591,-4.5638,-4.5623,-4.4043,-4.4551,-4.5067,-4.5277,-4.5277,-4.5277,-4.5277,-4.5277,-4.5277,-4.5277,-4.5277,-4.5277,-4.5277,-4.5277,-4.5277,-4.5277,-4.5277,-4.5277,-4.5277,-4.5277,-4.5277,-4.5277,-4.5277,-4.5277,-4.5277,-4.522,-4.4895,-4.48,-4.4819,-4.4723,-4.4685,-4.4532,-4.459,-4.4743,-4.501,-4.5067,-4.522,-4.5277,-4.5277,-4.5048,-4.4972,-4.48,-4.4647,-4.4475,-4.4513,-4.48,-4.4895,-4.5105,-4.5239,-4.5277,-4.5277,-4.5277,-4.5277,-4.5277,-4.5277,-4.5277,-4.5277,-4.5277,-4.5277,-4.5277,-4.5277,-4.5277,-4.5277,-4.5277,-4.5277,-4.5277,-4.5277,-4.5277,-4.5277,-4.5277,-4.5277,-4.5277,-4.5277,-4.5277,-4.5277,-4.5277,-4.5277,-4.5277,-4.5277,-4.5277,-4.5277,-4.5277,-4.5277,-4.5277,-4.5277,-4.5277,-4.5277,-4.5277,-4.5277,-4.5277,-4.5277,-4.5277,-4.5277,-4.5277,-4.538,-4.54,-4.5419,-4.5438,-4.5476,-4.5495,-4.5513,-4.5438,-4.5419,-4.5476,-4.5513,-4.5531,-4.5601,-4.5712,-4.5771,-4.5791,-4.5805,-4.5786,-4.5794,-4.5822,-4.588,-4.3341,-4.384,-4.468,-4.5151,-4.5277,-4.5277,-4.5277,-4.5277,-4.5277,-4.5277,-4.5277,-4.5277,-4.5277,-4.5277,-4.5277,-4.5277,-4.5277,-4.5277,-4.5277,-4.5277,-4.5277,-4.5277,-4.5277,-4.5277,-4.5277,-4.5277,-4.5277,-4.5239,-4.5201,-4.5277,-4.5163,-4.5144,-4.5277,-4.5239,-4.5239,-4.5277,-4.5277,-4.5277,-4.5277,-4.5277,-4.5258,-4.5258,-4.5239,-4.5182,-4.5201,-4.5201,-4.5182,-4.5258,-4.5258,-4.5277,-4.5277,-4.5277,-4.5277,-4.5277,-4.5277,-4.5277,-4.5277,-4.5277,-4.5277,-4.5277,-4.5277,-4.5277,-4.5277,-4.5277,-4.5277,-4.5277,-4.5277,-4.5277,-4.5277,-4.5277,-4.5277,-4.5277,-4.5277,-4.5277,-4.5277,-4.5277,-4.5277,-4.5277,-4.5277,-4.5277,-4.5277,-4.5277,-4.5277,-4.5277,-4.5277,-4.5277,-4.5277,-4.5277,-4.5277,-4.5277,-4.5277,-4.5277,-4.5277,-4.5277,-4.5298,-4.5319,-4.536,-4.536,-4.538,-4.536,-4.5339,-4.5277,-4.5277,-4.536,-4.54,-4.538,-4.5419,-4.5512,-4.5582,-4.5635,-4.5648,-4.5696,-4.5727,-4.5752,-4.5771,-4.2419,-4.3265,-4.4062,-4.4726,-4.5194,-4.5297,-4.5256,-4.5194,-4.5194,-4.5194,-4.5194,-4.5235,-4.5256,-4.5256,-4.5256,-4.5277,-4.5277,-4.5277,-4.5277,-4.5277,-4.5277,-4.5277,-4.5277,-4.5277,-4.5277,-4.5277,-4.5235,-4.5194,-4.5235,-4.5151,-4.5173,-4.5213,-4.5173,-4.5256,-4.5277,-4.5277,-4.5277,-4.5277,-4.5277,-4.5277,-4.5277,-4.5277,-4.5277,-4.5277,-4.5277,-4.5277,-4.5277,-4.5277,-4.5277,-4.5277,-4.5277,-4.5277,-4.5277,-4.5277,-4.5277,-4.5277,-4.5277,-4.5277,-4.5277,-4.5277,-4.5277,-4.5277,-4.5277,-4.5277,-4.5277,-4.5277,-4.5277,-4.5277,-4.5277,-4.5277,-4.5277,-4.5277,-4.5277,-4.5277,-4.5277,-4.5277,-4.5277,-4.5277,-4.5277,-4.5277,-4.5277,-4.5277,-4.5277,-4.5277,-4.5277,-4.5277,-4.5277,-4.5277,-4.5277,-4.5277,-4.5277,-4.5277,-4.5277,-4.5277,-4.5277,-4.5277,-4.5298,-4.5277,-4.5277,-4.5277,-4.5277,-4.5277,-4.5277,-4.5277,-4.5298,-4.5319,-4.5319,-4.5319,-4.5419,-4.5513,-4.5582,-4.5632,-4.5665,-4.5665,-4.5648,-4.1407,-4.2393,-4.3265,-4.4049,-4.4657,-4.4695,-4.4714,-4.4695,-4.4695,-4.4695,-4.4764,-4.4887,-4.4957,-4.5004,-4.5173,-4.5256,-4.5256,-4.5277,-4.5277,-4.5277,-4.5256,-4.5277,-4.5256,-4.5235,-4.5256,-4.5235,-4.5132,-4.4957,-4.4957,-4.4862,-4.4739,-4.4739,-4.4953,-4.5109,-4.5235,-4.5277,-4.5277,-4.5277,-4.5277,-4.5277,-4.5277,-4.5277,-4.5277,-4.5277,-4.5277,-4.5277,-4.5277,-4.5277,-4.5277,-4.5277,-4.5277,-4.5277,-4.5277,-4.5277,-4.5277,-4.5277,-4.5277,-4.5277,-4.5277,-4.5277,-4.5277,-4.5277,-4.5277,-4.5277,-4.5277,-4.5277,-4.5277,-4.5277,-4.5277,-4.5277,-4.5277,-4.5277,-4.5277,-4.5277,-4.5277,-4.5277,-4.5277,-4.5277,-4.5277,-4.5277,-4.5277,-4.5277,-4.5277,-4.5277,-4.5277,-4.5277,-4.5277,-4.5277,-4.5277,-4.5277,-4.5277,-4.5277,-4.5277,-4.5277,-4.5277,-4.5277,-4.5277,-4.5277,-4.5277,-4.5277,-4.5277,-4.5277,-4.5277,-4.5277,-4.5277,-4.5277,-4.5277,-4.5277,-4.5298,-4.538,-4.5457,-4.5475,-4.5457,-4.5457,-4.5457,-4.0558,-4.1306,-4.2406,-4.317,-4.3733,-4.4186,-4.4402,-4.4402,-4.4402,-4.4402,-4.4457,-4.4599,-4.465,-4.4745,-4.4862,-4.4995,-4.4976,-4.4976,-4.4976,-4.4976,-4.4995,-4.4929,-4.4953,-4.5019,-4.4905,-4.4929,-4.4838,-4.465,-4.4669,-4.4511,-4.4457,-4.4511,-4.4572,-4.4745,-4.4953,-4.5087,-4.5216,-4.5194,-4.5173,-4.5277,-4.5277,-4.5277,-4.5277,-4.5277,-4.5277,-4.5277,-4.5277,-4.5277,-4.5277,-4.5277,-4.5277,-4.5277,-4.5277,-4.5277,-4.5277,-4.5277,-4.5277,-4.5277,-4.5277,-4.5277,-4.5277,-4.5277,-4.5277,-4.5277,-4.5277,-4.5277,-4.5277,-4.5277,-4.5277,-4.5277,-4.5277,-4.5277,-4.5277,-4.5277,-4.5277,-4.5277,-4.5277,-4.5277,-4.5277,-4.5277,-4.5277,-4.5277,-4.5277,-4.5277,-4.5277,-4.5277,-4.5277,-4.5277,-4.5277,-4.5277,-4.5277,-4.5277,-4.5277,-4.5277,-4.5277,-4.5277,-4.5277,-4.5277,-4.5277,-4.5277,-4.5277,-4.5277,-4.5277,-4.5277,-4.5277,-4.5277,-4.5277,-4.5277,-4.5298,-4.5298,-4.5319,-4.5319,-4.5277,-4.5298,-4.5339,-3.9863,-4.012,-4.157,-4.2228,-4.2511,-4.3618,-4.4252,-4.4327,-4.4346,-4.4346,-4.4374,-4.4327,-4.4402,-4.4402,-4.443,-4.4484,-4.4493,-4.4465,-4.4493,-4.4465,-4.4565,-4.4493,-4.4493,-4.4511,-4.4565,-4.4484,-4.4402,-4.4402,-4.4402,-4.426,-4.426,-4.4318,-4.4346,-4.4402,-4.4538,-4.4814,-4.4934,-4.491,-4.5065,-4.5151,-4.5173,-4.5256,-4.5277,-4.5277,-4.5277,-4.5277,-4.5277,-4.5277,-4.5277,-4.5277,-4.5277,-4.5277,-4.5277,-4.5277,-4.5277,-4.5277,-4.5277,-4.5277,-4.5277,-4.5277,-4.5277,-4.5277,-4.5277,-4.5277,-4.5277,-4.5277,-4.5277,-4.5277,-4.5277,-4.5277,-4.5277,-4.5277,-4.5277,-4.5277,-4.5277,-4.5277,-4.5277,-4.5277,-4.5277,-4.5277,-4.5277,-4.5277,-4.5277,-4.5277,-4.5277,-4.5277,-4.5277,-4.5277,-4.5277,-4.5277,-4.5277,-4.5277,-4.5277,-4.5277,-4.5277,-4.5277,-4.5277,-4.5277,-4.5277,-4.5277,-4.5277,-4.5277,-4.5277,-4.5277,-4.5277,-4.5277,-4.5277,-4.5277,-4.5277,-4.5277,-4.5277,-4.5277,-4.5277,-4.5277,-4.5298,-3.9368,-3.9937,-4.0396,-4.091,-4.1566,-4.2498,-4.319,-4.374,-4.3777,-4.3758,-4.3777,-4.403,-4.4121,-4.4121,-4.4336,-4.4374,-4.4402,-4.4402,-4.443,-4.4402,-4.4318,-4.4374,-4.4355,-4.4327,-4.4383,-4.4318,-4.4221,-4.4091,-4.406,-4.3936,-4.3809,-4.3795,-4.4011,-4.398,-4.4084,-4.4355,-4.4465,-4.4617,-4.4814,-4.491,-4.5023,-4.5109,-4.5173,-4.5194,-4.5213,-4.5213,-4.5213,-4.5235,-4.5235,-4.5256,-4.5277,-4.5277,-4.5277,-4.5277,-4.5277,-4.5277,-4.5277,-4.5277,-4.5277,-4.5277,-4.5277,-4.5277,-4.5277,-4.5277,-4.5277,-4.5277,-4.5277,-4.5277,-4.5277,-4.5277,-4.5277,-4.5277,-4.5277,-4.5277,-4.5277,-4.5277,-4.5277,-4.5277,-4.5277,-4.5277,-4.5277,-4.5277,-4.5277,-4.5277,-4.5277,-4.5277,-4.5277,-4.5277,-4.5277,-4.5277,-4.5277,-4.5277,-4.5277,-4.5277,-4.5277,-4.5277,-4.5277,-4.5277,-4.5277,-4.5277,-4.5277,-4.5277,-4.5277,-4.5277,-4.5277,-4.5277,-4.5277,-4.5277,-4.5277,-4.5277,-4.5277,-4.5277,-4.5277,-4.5277,-4.5277,-3.8964,-3.9441,-3.9772,-4.0359,-4.1167,-4.1974,-4.2598,-4.302,-4.3351,-4.3479,-4.3513,-4.3697,-4.3795,-4.3828,-4.3949,-4.4011,-4.3992,-4.398,-4.4011,-4.3962,-4.4084,-4.3992,-4.4023,-4.4053,-4.3992,-4.398,-4.3905,-4.3795,-4.3749,-4.3649,-4.3513,-4.3548,-4.373,-4.3649,-4.3697,-4.3855,-4.4011,-4.4154,-4.4383,-4.4572,-4.4745,-4.4838,-4.4887,-4.4976,-4.4976,-4.4995,-4.4995,-4.4976,-4.5,-4.5087,-4.5109,-4.5173,-4.5235,-4.5277,-4.5277,-4.5277,-4.5277,-4.5277,-4.5277,-4.5277,-4.5277,-4.5277,-4.5277,-4.5277,-4.5277,-4.5277,-4.5277,-4.5277,-4.5277,-4.5277,-4.5277,-4.5277,-4.5277,-4.5277,-4.5277,-4.5277,-4.5277,-4.5277,-4.5277,-4.5277,-4.5277,-4.5277,-4.5277,-4.5277,-4.5277,-4.5277,-4.5277,-4.5277,-4.5277,-4.5277,-4.5277,-4.5277,-4.5277,-4.5277,-4.5277,-4.5277,-4.5277,-4.5277,-4.5277,-4.5277,-4.5277,-4.5277,-4.5277,-4.5277,-4.5277,-4.5277,-4.5277,-4.5277,-4.5277,-4.5277,-4.5277,-4.5277,-4.5277,-4.5277,-4.5277,-3.8707,-3.8781,-3.9496,-4.0194,-4.1056,-4.1717,-4.2066,-4.2304,-4.2983,-4.3424,-4.3461,-4.3479,-4.3548,-4.3563,-4.3631,-4.3597,-4.3631,-4.3664,-4.3664,-4.3513,-4.3631,-4.3631,-4.3631,-4.3513,-4.3664,-4.3563,-4.3513,-4.3582,-4.3513,-4.3479,-4.3479,-4.3479,-4.3513,-4.3513,-4.3548,-4.3563,-4.3664,-4.3744,-4.4023,-4.427,-4.4374,-4.4402,-4.4402,-4.4457,-4.4457,-4.4457,-4.4457,-4.4465,-4.4493,-4.4676,-4.48,-4.4934,-4.5042,-4.5109,-4.5151,-4.5151,-4.5087,-4.5151,-4.5132,-4.5154,-4.5235,-4.5256,-4.5277,-4.5277,-4.5277,-4.5277,-4.5277,-4.5277,-4.5277,-4.5277,-4.5277,-4.5277,-4.5277,-4.5277,-4.5277,-4.5277,-4.5277,-4.5277,-4.5277,-4.5277,-4.5277,-4.5277,-4.5277,-4.5277,-4.5277,-4.5277,-4.5277,-4.5277,-4.5277,-4.5277,-4.5277,-4.5277,-4.5277,-4.5277,-4.5277,-4.5277,-4.5277,-4.5277,-4.5277,-4.5277,-4.5277,-4.5277,-4.5277,-4.5277,-4.5277,-4.5277,-4.5277,-4.5277,-4.5277,-4.5277,-4.5277,-4.5277,-4.5277,-4.5277,-4.5277,-3.8707,-3.8707,-3.8909,-3.9441,-4.0157,-4.0377,-4.0855,-4.146,-4.2249,-4.291,-4.3387,-4.3479,-4.3479,-4.3479,-4.3479,-4.3479,-4.3479,-4.3479,-4.3479,-4.3479,-4.3479,-4.3479,-4.3479,-4.3479,-4.3479,-4.3479,-4.3479,-4.3479,-4.3479,-4.3479,-4.3479,-4.3479,-4.3479,-4.3479,-4.3479,-4.3479,-4.3513,-4.3513,-4.3646,-4.3918,-4.4091,-4.4289,-4.4402,-4.4374,-4.4374,-4.4346,-4.4346,-4.4374,-4.4411,-4.4493,-4.4493,-4.4546,-4.4591,-4.4617,-4.4617,-4.4617,-4.4695,-4.4789,-4.4887,-4.4915,-4.5023,-4.5173,-4.5256,-4.5277,-4.5277,-4.5277,-4.5277,-4.5277,-4.5277,-4.5277,-4.5277,-4.5277,-4.5277,-4.5277,-4.5277,-4.5277,-4.5277,-4.5277,-4.5277,-4.5277,-4.5277,-4.5277,-4.5277,-4.5277,-4.5277,-4.5277,-4.5277,-4.5277,-4.5277,-4.5277,-4.5277,-4.5277,-4.5256,-4.5256,-4.5277,-4.5235,-4.5216,-4.5256,-4.5277,-4.5277,-4.5277,-4.5277,-4.5277,-4.5277,-4.5277,-4.5277,-4.5277,-4.5277,-4.5277,-4.5277,-4.5277,-4.5277,-4.5277,-4.5277,-4.5277,-3.8658,-3.8707,-3.8707,-3.8964,-3.9368,-3.9735,-4.0157,-4.0671,-4.1442,-4.2213,-4.2983,-4.3296,-4.3479,-4.3479,-4.3479,-4.3479,-4.3479,-4.3479,-4.3479,-4.3479,-4.3479,-4.3479,-4.3479,-4.3479,-4.3479,-4.3479,-4.3479,-4.3479,-4.3479,-4.3479,-4.3479,-4.3479,-4.3479,-4.3479,-4.3479,-4.3479,-4.3479,-4.3479,-4.3479,-4.3615,-4.3814,-4.3918,-4.3992,-4.3992,-4.3992,-4.4023,-4.4011,-4.4042,-4.4102,-4.4231,-4.4327,-4.4411,-4.4457,-4.4457,-4.443,-4.443,-4.4457,-4.4465,-4.4572,-4.465,-4.472,-4.4887,-4.4929,-4.4838,-4.4814,-4.4838,-4.5065,-4.5087,-4.5256,-4.5277,-4.5277,-4.5277,-4.5277,-4.5277,-4.5277,-4.5277,-4.5277,-4.5277,-4.5277,-4.5277,-4.5277,-4.5277,-4.5277,-4.5277,-4.5277,-4.5277,-4.5277,-4.5277,-4.5277,-4.5277,-4.5277,-4.5213,-4.5151,-4.5235,-4.5297,-4.5194,-4.5109,-4.5173,-4.5235,-4.5256,-4.5235,-4.5277,-4.5277,-4.5235,-4.5213,-4.5277,-4.5277,-4.5235,-4.5277,-4.5277,-4.5277,-4.5277,-4.5277,-4.5277,-4.5277,-3.8559,-3.8658,-3.8658,-3.8707,-3.8799,-3.9423,-3.9735,-3.9882,-4.0616,-4.1313,-4.2029,-4.2892,-4.3314,-4.3479,-4.3479,-4.3479,-4.3479,-4.3479,-4.3479,-4.3479,-4.3479,-4.3479,-4.3479,-4.3479,-4.3479,-4.3479,-4.3479,-4.3479,-4.3479,-4.3479,-4.3479,-4.3479,-4.3479,-4.3479,-4.3479,-4.3479,-4.3479,-4.3479,-4.3479,-4.3479,-4.3513,-4.3479,-4.3548,-4.3548,-4.3479,-4.3479,-4.3497,-4.3566,-4.3716,-4.3841,-4.4053,-4.4114,-4.4154,-4.4125,-4.4173,-4.4173,-4.4143,-4.4231,-4.4299,-4.4346,-4.4402,-4.4411,-4.4402,-4.4383,-4.4411,-4.4519,-4.4745,-4.491,-4.5087,-4.5194,-4.5194,-4.5256,-4.5256,-4.5256,-4.5256,-4.5256,-4.5256,-4.5256,-4.5256,-4.5256,-4.5256,-4.5256,-4.5277,-4.5277,-4.5277,-4.5277,-4.5277,-4.5277,-4.5277,-4.5256,-4.5216,-4.5065,-4.4887,-4.5019,-4.5173,-4.5042,-4.4862,-4.4887,-4.4929,-4.5087,-4.5151,-4.5019,-4.4976,-4.5065,-4.5087,-4.5065,-4.5087,-4.5065,-4.5151,-4.5194,-4.5297,-4.5297,-4.5277,-4.5277,-4.5277,-3.8478,-3.8541,-3.8541,-3.8609,-3.8713,-3.8891,-3.8946,-3.9056,-3.979,-4.0249,-4.0781,-4.1937,-4.2837,-4.3479,-4.3479,-4.3479,-4.3479,-4.3479,-4.3479,-4.3479,-4.3479,-4.3479,-4.3479,-4.3479,-4.3479,-4.3479,-4.3479,-4.3479,-4.3479,-4.3479,-4.3479,-4.3479,-4.3479,-4.3479,-4.3479,-4.3479,-4.3479,-4.3479,-4.3479,-4.3479,-4.3479,-4.3479,-4.3479,-4.3479,-4.3479,-4.3479,-4.3479,-4.3479,-4.3548,-4.3597,-4.3664,-4.3712,-4.3777,-4.3791,-4.3791,-4.3823,-4.3791,-4.3905,-4.3999,-4.406,-4.4102,-4.426,-4.426,-4.4289,-4.4289,-4.4299,-4.4438,-4.4511,-4.4669,-4.4862,-4.491,-4.5129,-4.5192,-4.5173,-4.5173,-4.5173,-4.5173,-4.5173,-4.5194,-4.5194,-4.5213,-4.5213,-4.5235,-4.5216,-4.5194,-4.5194,-4.5216,-4.5216,-4.5297,-4.5256,-4.5173,-4.4953,-4.4695,-4.472,-4.4819,-4.4669,-4.4538,-4.4565,-4.4643,-4.4764,-4.4764,-4.4591,-4.4591,-4.4764,-4.4714,-4.4617,-4.4695,-4.4862,-4.4862,-4.4934,-4.5173,-4.5297,-4.5256,-4.5173,-4.5087]}]]